<?xml version="1.0" encoding="utf-8"?>
<gpx xmlns:xsi="http://www.w3.org/2001/XMLSchema-instance" xmlns:xsd="http://www.w3.org/2001/XMLSchema" version="1.1" creator="Shapelink.com" xmlns="http://www.topografix.com/GPX/1/1" xmlns:gpxtpx="http://www.garmin.com/xmlschemas/TrackPointExtension/v1">
  <metadata>
    <name>Sykling 87.94 km, 2012-05-01</name>
    <desc></desc>
    <author><name>Mikael Blom</name></author> 
    <time>2012-05-01T09:29:10Z</time>
  </metadata>
  <trk>
    <name>Sykling 87.94 km, 2012-05-01</name>
    <trkseg>
      <trkpt lat="59.9787873" lon="17.739294">
        <ele>32.3416</ele>
        <time>2012-05-01T09:29:10Z</time>
      </trkpt>
      <trkpt lat="59.9786837" lon="17.7392735">
        <ele>33.7834</ele>
        <time>2012-05-01T09:29:13Z</time>
      </trkpt>
      <trkpt lat="59.9784335" lon="17.7392011">
        <ele>35.2255</ele>
        <time>2012-05-01T09:29:19Z</time>
      </trkpt>
      <trkpt lat="59.9781071" lon="17.7390886">
        <ele>35.7061</ele>
        <time>2012-05-01T09:29:25Z</time>
      </trkpt>
      <trkpt lat="59.9780506" lon="17.7390671">
        <ele>35.7061</ele>
        <time>2012-05-01T09:29:26Z</time>
      </trkpt>
      <trkpt lat="59.9779259" lon="17.738998">
        <ele>34.7449</ele>
        <time>2012-05-01T09:29:28Z</time>
      </trkpt>
      <trkpt lat="59.9775723" lon="17.7389351">
        <ele>33.3029</ele>
        <time>2012-05-01T09:29:33Z</time>
      </trkpt>
      <trkpt lat="59.9771645" lon="17.7391024">
        <ele>34.2642</ele>
        <time>2012-05-01T09:29:38Z</time>
      </trkpt>
      <trkpt lat="59.9766919" lon="17.7393637">
        <ele>35.7061</ele>
        <time>2012-05-01T09:29:44Z</time>
      </trkpt>
      <trkpt lat="59.9763772" lon="17.7396832">
        <ele>33.3029</ele>
        <time>2012-05-01T09:29:48Z</time>
      </trkpt>
      <trkpt lat="59.9761962" lon="17.7396533">
        <ele>31.8607</ele>
        <time>2012-05-01T09:29:50Z</time>
      </trkpt>
      <trkpt lat="59.9760482" lon="17.7394325">
        <ele>28.4962</ele>
        <time>2012-05-01T09:29:52Z</time>
      </trkpt>
      <trkpt lat="59.9759796" lon="17.7392878">
        <ele>27.5349</ele>
        <time>2012-05-01T09:29:53Z</time>
      </trkpt>
      <trkpt lat="59.9754301" lon="17.7382969">
        <ele>20.325</ele>
        <time>2012-05-01T09:30:00Z</time>
      </trkpt>
      <trkpt lat="59.9749148" lon="17.7373838">
        <ele>19.3638</ele>
        <time>2012-05-01T09:30:07Z</time>
      </trkpt>
      <trkpt lat="59.974616" lon="17.7366467">
        <ele>19.8444</ele>
        <time>2012-05-01T09:30:12Z</time>
      </trkpt>
      <trkpt lat="59.9744205" lon="17.7358371">
        <ele>19.8444</ele>
        <time>2012-05-01T09:30:17Z</time>
      </trkpt>
      <trkpt lat="59.9743128" lon="17.7349952">
        <ele>19.8444</ele>
        <time>2012-05-01T09:30:22Z</time>
      </trkpt>
      <trkpt lat="59.974301" lon="17.7340008">
        <ele>20.8057</ele>
        <time>2012-05-01T09:30:28Z</time>
      </trkpt>
      <trkpt lat="59.9743527" lon="17.7326171">
        <ele>22.2476</ele>
        <time>2012-05-01T09:30:37Z</time>
      </trkpt>
      <trkpt lat="59.9743411" lon="17.7317233">
        <ele>23.6896</ele>
        <time>2012-05-01T09:30:43Z</time>
      </trkpt>
      <trkpt lat="59.9744074" lon="17.7304013">
        <ele>25.1317</ele>
        <time>2012-05-01T09:30:52Z</time>
      </trkpt>
      <trkpt lat="59.974482" lon="17.729308">
        <ele>26.5736</ele>
        <time>2012-05-01T09:31:00Z</time>
      </trkpt>
      <trkpt lat="59.9744708" lon="17.7283252">
        <ele>28.0155</ele>
        <time>2012-05-01T09:31:07Z</time>
      </trkpt>
      <trkpt lat="59.9744585" lon="17.7272547">
        <ele>28.9769</ele>
        <time>2012-05-01T09:31:15Z</time>
      </trkpt>
      <trkpt lat="59.9744444" lon="17.7264391">
        <ele>28.9769</ele>
        <time>2012-05-01T09:31:22Z</time>
      </trkpt>
      <trkpt lat="59.9743785" lon="17.7253813">
        <ele>28.0155</ele>
        <time>2012-05-01T09:31:31Z</time>
      </trkpt>
      <trkpt lat="59.9742304" lon="17.7242845">
        <ele>26.0929</ele>
        <time>2012-05-01T09:31:40Z</time>
      </trkpt>
      <trkpt lat="59.9740734" lon="17.7232266">
        <ele>25.6123</ele>
        <time>2012-05-01T09:31:48Z</time>
      </trkpt>
      <trkpt lat="59.9738495" lon="17.7223269">
        <ele>25.6123</ele>
        <time>2012-05-01T09:31:55Z</time>
      </trkpt>
      <trkpt lat="59.9735038" lon="17.7214427">
        <ele>25.6123</ele>
        <time>2012-05-01T09:32:03Z</time>
      </trkpt>
      <trkpt lat="59.9730865" lon="17.7207382">
        <ele>26.5736</ele>
        <time>2012-05-01T09:32:11Z</time>
      </trkpt>
      <trkpt lat="59.972593" lon="17.7202092">
        <ele>27.0543</ele>
        <time>2012-05-01T09:32:19Z</time>
      </trkpt>
      <trkpt lat="59.9719517" lon="17.7196352">
        <ele>27.5349</ele>
        <time>2012-05-01T09:32:29Z</time>
      </trkpt>
      <trkpt lat="59.9711964" lon="17.7189614">
        <ele>28.9769</ele>
        <time>2012-05-01T09:32:41Z</time>
      </trkpt>
      <trkpt lat="59.9703869" lon="17.7182361">
        <ele>29.9381</ele>
        <time>2012-05-01T09:32:53Z</time>
      </trkpt>
      <trkpt lat="59.9697409" lon="17.7176762">
        <ele>30.8995</ele>
        <time>2012-05-01T09:33:02Z</time>
      </trkpt>
      <trkpt lat="59.9692327" lon="17.7173752">
        <ele>31.8607</ele>
        <time>2012-05-01T09:33:09Z</time>
      </trkpt>
      <trkpt lat="59.9685193" lon="17.7170813">
        <ele>30.4188</ele>
        <time>2012-05-01T09:33:19Z</time>
      </trkpt>
      <trkpt lat="59.968144" lon="17.7167702">
        <ele>28.9769</ele>
        <time>2012-05-01T09:33:24Z</time>
      </trkpt>
      <trkpt lat="59.9678548" lon="17.716327">
        <ele>26.5736</ele>
        <time>2012-05-01T09:33:28Z</time>
      </trkpt>
      <trkpt lat="59.9675694" lon="17.715484">
        <ele>23.6896</ele>
        <time>2012-05-01T09:33:33Z</time>
      </trkpt>
      <trkpt lat="59.9675322" lon="17.7152848">
        <ele>23.209</ele>
        <time>2012-05-01T09:33:34Z</time>
      </trkpt>
      <trkpt lat="59.967387" lon="17.7141831">
        <ele>23.209</ele>
        <time>2012-05-01T09:33:40Z</time>
      </trkpt>
      <trkpt lat="59.9672967" lon="17.7134671">
        <ele>25.1317</ele>
        <time>2012-05-01T09:33:45Z</time>
      </trkpt>
      <trkpt lat="59.9671517" lon="17.7127617">
        <ele>26.5736</ele>
        <time>2012-05-01T09:33:51Z</time>
      </trkpt>
      <trkpt lat="59.9668986" lon="17.7120189">
        <ele>27.0543</ele>
        <time>2012-05-01T09:33:58Z</time>
      </trkpt>
      <trkpt lat="59.9665635" lon="17.7109794">
        <ele>26.5736</ele>
        <time>2012-05-01T09:34:07Z</time>
      </trkpt>
      <trkpt lat="59.9662501" lon="17.7098396">
        <ele>25.6123</ele>
        <time>2012-05-01T09:34:16Z</time>
      </trkpt>
      <trkpt lat="59.9658842" lon="17.7086599">
        <ele>26.0929</ele>
        <time>2012-05-01T09:34:25Z</time>
      </trkpt>
      <trkpt lat="59.965837" lon="17.7085435">
        <ele>26.0929</ele>
        <time>2012-05-01T09:34:26Z</time>
      </trkpt>
      <trkpt lat="59.9654684" lon="17.7080152">
        <ele>26.5736</ele>
        <time>2012-05-01T09:34:32Z</time>
      </trkpt>
      <trkpt lat="59.9647654" lon="17.7074813">
        <ele>27.5349</ele>
        <time>2012-05-01T09:34:42Z</time>
      </trkpt>
      <trkpt lat="59.9643334" lon="17.7072656">
        <ele>28.0155</ele>
        <time>2012-05-01T09:34:48Z</time>
      </trkpt>
      <trkpt lat="59.9636402" lon="17.7071398">
        <ele>27.5349</ele>
        <time>2012-05-01T09:34:57Z</time>
      </trkpt>
      <trkpt lat="59.9630414" lon="17.7071187">
        <ele>28.0155</ele>
        <time>2012-05-01T09:35:05Z</time>
      </trkpt>
      <trkpt lat="59.9625557" lon="17.7070538">
        <ele>28.4962</ele>
        <time>2012-05-01T09:35:12Z</time>
      </trkpt>
      <trkpt lat="59.9620954" lon="17.7068507">
        <ele>28.9769</ele>
        <time>2012-05-01T09:35:19Z</time>
      </trkpt>
      <trkpt lat="59.9619014" lon="17.7067269">
        <ele>28.9769</ele>
        <time>2012-05-01T09:35:22Z</time>
      </trkpt>
      <trkpt lat="59.9615285" lon="17.7063072">
        <ele>28.0155</ele>
        <time>2012-05-01T09:35:28Z</time>
      </trkpt>
      <trkpt lat="59.9611259" lon="17.7055902">
        <ele>28.4962</ele>
        <time>2012-05-01T09:35:35Z</time>
      </trkpt>
      <trkpt lat="59.9607584" lon="17.7050325">
        <ele>28.4962</ele>
        <time>2012-05-01T09:35:41Z</time>
      </trkpt>
      <trkpt lat="59.9602125" lon="17.7043524">
        <ele>28.9769</ele>
        <time>2012-05-01T09:35:49Z</time>
      </trkpt>
      <trkpt lat="59.9601506" lon="17.7042638">
        <ele>28.9769</ele>
        <time>2012-05-01T09:35:50Z</time>
      </trkpt>
      <trkpt lat="59.9598676" lon="17.7036031">
        <ele>28.9769</ele>
        <time>2012-05-01T09:35:56Z</time>
      </trkpt>
      <trkpt lat="59.9596696" lon="17.7029054">
        <ele>29.9381</ele>
        <time>2012-05-01T09:36:02Z</time>
      </trkpt>
      <trkpt lat="59.9594283" lon="17.7020624">
        <ele>29.4575</ele>
        <time>2012-05-01T09:36:09Z</time>
      </trkpt>
      <trkpt lat="59.9592334" lon="17.7011034">
        <ele>28.9769</ele>
        <time>2012-05-01T09:36:16Z</time>
      </trkpt>
      <trkpt lat="59.959108" lon="17.6997601">
        <ele>27.0543</ele>
        <time>2012-05-01T09:36:25Z</time>
      </trkpt>
      <trkpt lat="59.9590559" lon="17.6985741">
        <ele>27.5349</ele>
        <time>2012-05-01T09:36:33Z</time>
      </trkpt>
      <trkpt lat="59.9589989" lon="17.6976928">
        <ele>26.0929</ele>
        <time>2012-05-01T09:36:39Z</time>
      </trkpt>
      <trkpt lat="59.9588637" lon="17.6969014">
        <ele>25.6123</ele>
        <time>2012-05-01T09:36:44Z</time>
      </trkpt>
      <trkpt lat="59.9586384" lon="17.6961615">
        <ele>25.6123</ele>
        <time>2012-05-01T09:36:49Z</time>
      </trkpt>
      <trkpt lat="59.9581675" lon="17.6949557">
        <ele>25.1317</ele>
        <time>2012-05-01T09:36:58Z</time>
      </trkpt>
      <trkpt lat="59.9577118" lon="17.6936616">
        <ele>25.1317</ele>
        <time>2012-05-01T09:37:07Z</time>
      </trkpt>
      <trkpt lat="59.9572615" lon="17.6923704">
        <ele>25.6123</ele>
        <time>2012-05-01T09:37:16Z</time>
      </trkpt>
      <trkpt lat="59.9569396" lon="17.6914188">
        <ele>26.5736</ele>
        <time>2012-05-01T09:37:23Z</time>
      </trkpt>
      <trkpt lat="59.9566943" lon="17.6907356">
        <ele>28.0155</ele>
        <time>2012-05-01T09:37:29Z</time>
      </trkpt>
      <trkpt lat="59.9563869" lon="17.6899413">
        <ele>28.0155</ele>
        <time>2012-05-01T09:37:37Z</time>
      </trkpt>
      <trkpt lat="59.9562079" lon="17.6893724">
        <ele>27.0543</ele>
        <time>2012-05-01T09:37:42Z</time>
      </trkpt>
      <trkpt lat="59.9560751" lon="17.6886668">
        <ele>26.5736</ele>
        <time>2012-05-01T09:37:47Z</time>
      </trkpt>
      <trkpt lat="59.9559095" lon="17.6875632">
        <ele>26.5736</ele>
        <time>2012-05-01T09:37:54Z</time>
      </trkpt>
      <trkpt lat="59.9556691" lon="17.6859297">
        <ele>27.0543</ele>
        <time>2012-05-01T09:38:04Z</time>
      </trkpt>
      <trkpt lat="59.9555203" lon="17.6848652">
        <ele>25.6123</ele>
        <time>2012-05-01T09:38:10Z</time>
      </trkpt>
      <trkpt lat="59.9552759" lon="17.6835854">
        <ele>22.7283</ele>
        <time>2012-05-01T09:38:17Z</time>
      </trkpt>
      <trkpt lat="59.9549648" lon="17.682409">
        <ele>20.8057</ele>
        <time>2012-05-01T09:38:24Z</time>
      </trkpt>
      <trkpt lat="59.9548653" lon="17.6821042">
        <ele>20.325</ele>
        <time>2012-05-01T09:38:26Z</time>
      </trkpt>
      <trkpt lat="59.9546099" lon="17.6816268">
        <ele>19.8444</ele>
        <time>2012-05-01T09:38:30Z</time>
      </trkpt>
      <trkpt lat="59.9542135" lon="17.6804316">
        <ele>19.8444</ele>
        <time>2012-05-01T09:38:38Z</time>
      </trkpt>
      <trkpt lat="59.9538116" lon="17.6792641">
        <ele>21.2864</ele>
        <time>2012-05-01T09:38:46Z</time>
      </trkpt>
      <trkpt lat="59.95348" lon="17.6782561">
        <ele>22.7283</ele>
        <time>2012-05-01T09:38:53Z</time>
      </trkpt>
      <trkpt lat="59.9531533" lon="17.6773314">
        <ele>22.2476</ele>
        <time>2012-05-01T09:39:00Z</time>
      </trkpt>
      <trkpt lat="59.9528074" lon="17.6764278">
        <ele>24.1703</ele>
        <time>2012-05-01T09:39:07Z</time>
      </trkpt>
      <trkpt lat="59.9524564" lon="17.6754874">
        <ele>26.0929</ele>
        <time>2012-05-01T09:39:15Z</time>
      </trkpt>
      <trkpt lat="59.9523144" lon="17.6750442">
        <ele>28.4962</ele>
        <time>2012-05-01T09:39:20Z</time>
      </trkpt>
      <trkpt lat="59.9522956" lon="17.6749502">
        <ele>28.4962</ele>
        <time>2012-05-01T09:39:21Z</time>
      </trkpt>
      <trkpt lat="59.9521926" lon="17.6743259">
        <ele>28.9769</ele>
        <time>2012-05-01T09:39:26Z</time>
      </trkpt>
      <trkpt lat="59.9520173" lon="17.6734226">
        <ele>28.0155</ele>
        <time>2012-05-01T09:39:32Z</time>
      </trkpt>
      <trkpt lat="59.9518623" lon="17.6723058">
        <ele>27.5349</ele>
        <time>2012-05-01T09:39:39Z</time>
      </trkpt>
      <trkpt lat="59.9518209" lon="17.6714929">
        <ele>27.0543</ele>
        <time>2012-05-01T09:39:44Z</time>
      </trkpt>
      <trkpt lat="59.9517357" lon="17.6708625">
        <ele>26.5736</ele>
        <time>2012-05-01T09:39:48Z</time>
      </trkpt>
      <trkpt lat="59.9517483" lon="17.6705061">
        <ele>26.0929</ele>
        <time>2012-05-01T09:39:50Z</time>
      </trkpt>
      <trkpt lat="59.9518391" lon="17.6690826">
        <ele>26.5736</ele>
        <time>2012-05-01T09:39:58Z</time>
      </trkpt>
      <trkpt lat="59.9518416" lon="17.6689101">
        <ele>26.5736</ele>
        <time>2012-05-01T09:39:59Z</time>
      </trkpt>
      <trkpt lat="59.9517188" lon="17.6682528">
        <ele>27.0543</ele>
        <time>2012-05-01T09:40:03Z</time>
      </trkpt>
      <trkpt lat="59.9515567" lon="17.6680637">
        <ele>27.5349</ele>
        <time>2012-05-01T09:40:05Z</time>
      </trkpt>
      <trkpt lat="59.9513608" lon="17.6680521">
        <ele>27.5349</ele>
        <time>2012-05-01T09:40:07Z</time>
      </trkpt>
      <trkpt lat="59.9506025" lon="17.6682508">
        <ele>26.0929</ele>
        <time>2012-05-01T09:40:16Z</time>
      </trkpt>
      <trkpt lat="59.9500492" lon="17.6681931">
        <ele>23.6896</ele>
        <time>2012-05-01T09:40:23Z</time>
      </trkpt>
      <trkpt lat="59.9494991" lon="17.6679539">
        <ele>22.2476</ele>
        <time>2012-05-01T09:40:30Z</time>
      </trkpt>
      <trkpt lat="59.9487982" lon="17.6675617">
        <ele>21.2864</ele>
        <time>2012-05-01T09:40:39Z</time>
      </trkpt>
      <trkpt lat="59.9479031" lon="17.6670503">
        <ele>20.8057</ele>
        <time>2012-05-01T09:40:51Z</time>
      </trkpt>
      <trkpt lat="59.947061" lon="17.6666459">
        <ele>20.8057</ele>
        <time>2012-05-01T09:41:02Z</time>
      </trkpt>
      <trkpt lat="59.946533" lon="17.6664874">
        <ele>20.8057</ele>
        <time>2012-05-01T09:41:09Z</time>
      </trkpt>
      <trkpt lat="59.9463806" lon="17.6664444">
        <ele>20.8057</ele>
        <time>2012-05-01T09:41:11Z</time>
      </trkpt>
      <trkpt lat="59.9460817" lon="17.6662642">
        <ele>20.8057</ele>
        <time>2012-05-01T09:41:15Z</time>
      </trkpt>
      <trkpt lat="59.9453165" lon="17.6659616">
        <ele>20.8057</ele>
        <time>2012-05-01T09:41:25Z</time>
      </trkpt>
      <trkpt lat="59.9444682" lon="17.6656434">
        <ele>21.2864</ele>
        <time>2012-05-01T09:41:36Z</time>
      </trkpt>
      <trkpt lat="59.9436933" lon="17.6652721">
        <ele>22.2476</ele>
        <time>2012-05-01T09:41:46Z</time>
      </trkpt>
      <trkpt lat="59.9429591" lon="17.664693">
        <ele>23.6896</ele>
        <time>2012-05-01T09:41:56Z</time>
      </trkpt>
      <trkpt lat="59.9424361" lon="17.6641158">
        <ele>24.651</ele>
        <time>2012-05-01T09:42:04Z</time>
      </trkpt>
      <trkpt lat="59.9419041" lon="17.6633507">
        <ele>25.6123</ele>
        <time>2012-05-01T09:42:13Z</time>
      </trkpt>
      <trkpt lat="59.9413967" lon="17.6624972">
        <ele>25.1317</ele>
        <time>2012-05-01T09:42:22Z</time>
      </trkpt>
      <trkpt lat="59.9411099" lon="17.6622271">
        <ele>25.1317</ele>
        <time>2012-05-01T09:42:26Z</time>
      </trkpt>
      <trkpt lat="59.9407271" lon="17.6620858">
        <ele>24.651</ele>
        <time>2012-05-01T09:42:31Z</time>
      </trkpt>
      <trkpt lat="59.9404543" lon="17.6618353">
        <ele>23.6896</ele>
        <time>2012-05-01T09:42:35Z</time>
      </trkpt>
      <trkpt lat="59.9403659" lon="17.6613834">
        <ele>23.209</ele>
        <time>2012-05-01T09:42:38Z</time>
      </trkpt>
      <trkpt lat="59.9404483" lon="17.6606448">
        <ele>23.6896</ele>
        <time>2012-05-01T09:42:43Z</time>
      </trkpt>
      <trkpt lat="59.9404825" lon="17.6601548">
        <ele>24.1703</ele>
        <time>2012-05-01T09:42:47Z</time>
      </trkpt>
      <trkpt lat="59.9404231" lon="17.6599295">
        <ele>24.1703</ele>
        <time>2012-05-01T09:42:49Z</time>
      </trkpt>
      <trkpt lat="59.9403116" lon="17.659186">
        <ele>23.6896</ele>
        <time>2012-05-01T09:42:55Z</time>
      </trkpt>
      <trkpt lat="59.9401474" lon="17.6583691">
        <ele>23.209</ele>
        <time>2012-05-01T09:43:01Z</time>
      </trkpt>
      <trkpt lat="59.9398881" lon="17.657129">
        <ele>25.1317</ele>
        <time>2012-05-01T09:43:11Z</time>
      </trkpt>
      <trkpt lat="59.939644" lon="17.6558983">
        <ele>26.5736</ele>
        <time>2012-05-01T09:43:21Z</time>
      </trkpt>
      <trkpt lat="59.9394052" lon="17.6547156">
        <ele>27.0543</ele>
        <time>2012-05-01T09:43:31Z</time>
      </trkpt>
      <trkpt lat="59.9391726" lon="17.6536194">
        <ele>27.5349</ele>
        <time>2012-05-01T09:43:40Z</time>
      </trkpt>
      <trkpt lat="59.9389193" lon="17.6525861">
        <ele>27.5349</ele>
        <time>2012-05-01T09:43:48Z</time>
      </trkpt>
      <trkpt lat="59.938579" lon="17.6514268">
        <ele>27.5349</ele>
        <time>2012-05-01T09:43:57Z</time>
      </trkpt>
      <trkpt lat="59.938448" lon="17.6510397">
        <ele>27.0543</ele>
        <time>2012-05-01T09:44:00Z</time>
      </trkpt>
      <trkpt lat="59.9381029" lon="17.6502007">
        <ele>27.0543</ele>
        <time>2012-05-01T09:44:07Z</time>
      </trkpt>
      <trkpt lat="59.9377413" lon="17.6492474">
        <ele>28.0155</ele>
        <time>2012-05-01T09:44:15Z</time>
      </trkpt>
      <trkpt lat="59.9375807" lon="17.6487839">
        <ele>28.4962</ele>
        <time>2012-05-01T09:44:19Z</time>
      </trkpt>
      <trkpt lat="59.9374852" lon="17.6485858">
        <ele>28.9769</ele>
        <time>2012-05-01T09:44:21Z</time>
      </trkpt>
      <trkpt lat="59.9373928" lon="17.6483768">
        <ele>28.4962</ele>
        <time>2012-05-01T09:44:23Z</time>
      </trkpt>
      <trkpt lat="59.9370344" lon="17.6478635">
        <ele>28.9769</ele>
        <time>2012-05-01T09:44:29Z</time>
      </trkpt>
      <trkpt lat="59.9365168" lon="17.6472146">
        <ele>29.4575</ele>
        <time>2012-05-01T09:44:37Z</time>
      </trkpt>
      <trkpt lat="59.9360187" lon="17.6465596">
        <ele>30.4188</ele>
        <time>2012-05-01T09:44:45Z</time>
      </trkpt>
      <trkpt lat="59.9355698" lon="17.6460168">
        <ele>30.4188</ele>
        <time>2012-05-01T09:44:52Z</time>
      </trkpt>
      <trkpt lat="59.9353538" lon="17.6457981">
        <ele>30.8995</ele>
        <time>2012-05-01T09:44:55Z</time>
      </trkpt>
      <trkpt lat="59.9348809" lon="17.6452576">
        <ele>30.8995</ele>
        <time>2012-05-01T09:45:02Z</time>
      </trkpt>
      <trkpt lat="59.9345562" lon="17.6448505">
        <ele>29.9381</ele>
        <time>2012-05-01T09:45:07Z</time>
      </trkpt>
      <trkpt lat="59.9341577" lon="17.644257">
        <ele>27.5349</ele>
        <time>2012-05-01T09:45:13Z</time>
      </trkpt>
      <trkpt lat="59.9336303" lon="17.6436805">
        <ele>26.5736</ele>
        <time>2012-05-01T09:45:20Z</time>
      </trkpt>
      <trkpt lat="59.9332448" lon="17.6431458">
        <ele>23.6896</ele>
        <time>2012-05-01T09:45:25Z</time>
      </trkpt>
      <trkpt lat="59.9328881" lon="17.642633">
        <ele>21.767</ele>
        <time>2012-05-01T09:45:29Z</time>
      </trkpt>
      <trkpt lat="59.9327134" lon="17.642345">
        <ele>21.2864</ele>
        <time>2012-05-01T09:45:31Z</time>
      </trkpt>
      <trkpt lat="59.9322203" lon="17.6418139">
        <ele>21.2864</ele>
        <time>2012-05-01T09:45:36Z</time>
      </trkpt>
      <trkpt lat="59.9317348" lon="17.6414287">
        <ele>21.2864</ele>
        <time>2012-05-01T09:45:41Z</time>
      </trkpt>
      <trkpt lat="59.9310569" lon="17.6409446">
        <ele>20.325</ele>
        <time>2012-05-01T09:45:48Z</time>
      </trkpt>
      <trkpt lat="59.9309517" lon="17.640878">
        <ele>19.8444</ele>
        <time>2012-05-01T09:45:49Z</time>
      </trkpt>
      <trkpt lat="59.9305265" lon="17.6408341">
        <ele>19.3638</ele>
        <time>2012-05-01T09:45:53Z</time>
      </trkpt>
      <trkpt lat="59.9298829" lon="17.6408429">
        <ele>18.4023</ele>
        <time>2012-05-01T09:45:59Z</time>
      </trkpt>
      <trkpt lat="59.9293765" lon="17.6409222">
        <ele>18.4023</ele>
        <time>2012-05-01T09:46:04Z</time>
      </trkpt>
      <trkpt lat="59.9286899" lon="17.6410027">
        <ele>18.4023</ele>
        <time>2012-05-01T09:46:11Z</time>
      </trkpt>
      <trkpt lat="59.9278324" lon="17.6411262">
        <ele>18.4023</ele>
        <time>2012-05-01T09:46:20Z</time>
      </trkpt>
      <trkpt lat="59.9267107" lon="17.6412337">
        <ele>18.4023</ele>
        <time>2012-05-01T09:46:32Z</time>
      </trkpt>
      <trkpt lat="59.9258155" lon="17.6413499">
        <ele>18.8831</ele>
        <time>2012-05-01T09:46:42Z</time>
      </trkpt>
      <trkpt lat="59.924937" lon="17.6414192">
        <ele>20.325</ele>
        <time>2012-05-01T09:46:52Z</time>
      </trkpt>
      <trkpt lat="59.924416" lon="17.6415199">
        <ele>20.325</ele>
        <time>2012-05-01T09:46:58Z</time>
      </trkpt>
      <trkpt lat="59.9236958" lon="17.6415887">
        <ele>21.2864</ele>
        <time>2012-05-01T09:47:06Z</time>
      </trkpt>
      <trkpt lat="59.922936" lon="17.6416904">
        <ele>23.209</ele>
        <time>2012-05-01T09:47:15Z</time>
      </trkpt>
      <trkpt lat="59.9221678" lon="17.6417794">
        <ele>24.1703</ele>
        <time>2012-05-01T09:47:25Z</time>
      </trkpt>
      <trkpt lat="59.9214616" lon="17.6418869">
        <ele>24.651</ele>
        <time>2012-05-01T09:47:34Z</time>
      </trkpt>
      <trkpt lat="59.9207872" lon="17.6419404">
        <ele>22.7283</ele>
        <time>2012-05-01T09:47:42Z</time>
      </trkpt>
      <trkpt lat="59.9201009" lon="17.6419471">
        <ele>22.7283</ele>
        <time>2012-05-01T09:47:50Z</time>
      </trkpt>
      <trkpt lat="59.9195092" lon="17.6420388">
        <ele>23.6896</ele>
        <time>2012-05-01T09:47:57Z</time>
      </trkpt>
      <trkpt lat="59.9187496" lon="17.642128">
        <ele>26.5736</ele>
        <time>2012-05-01T09:48:06Z</time>
      </trkpt>
      <trkpt lat="59.9179357" lon="17.6422228">
        <ele>28.0155</ele>
        <time>2012-05-01T09:48:15Z</time>
      </trkpt>
      <trkpt lat="59.9172495" lon="17.642243">
        <ele>29.4575</ele>
        <time>2012-05-01T09:48:22Z</time>
      </trkpt>
      <trkpt lat="59.9167916" lon="17.6423367">
        <ele>30.8995</ele>
        <time>2012-05-01T09:48:27Z</time>
      </trkpt>
      <trkpt lat="59.9162183" lon="17.6424075">
        <ele>31.8607</ele>
        <time>2012-05-01T09:48:34Z</time>
      </trkpt>
      <trkpt lat="59.91554" lon="17.6424539">
        <ele>30.8995</ele>
        <time>2012-05-01T09:48:42Z</time>
      </trkpt>
      <trkpt lat="59.9153685" lon="17.6425003">
        <ele>31.3801</ele>
        <time>2012-05-01T09:48:44Z</time>
      </trkpt>
      <trkpt lat="59.9151419" lon="17.6426388">
        <ele>31.8607</ele>
        <time>2012-05-01T09:48:47Z</time>
      </trkpt>
      <trkpt lat="59.9147256" lon="17.642732">
        <ele>32.3416</ele>
        <time>2012-05-01T09:48:53Z</time>
      </trkpt>
      <trkpt lat="59.9139087" lon="17.6428848">
        <ele>32.3416</ele>
        <time>2012-05-01T09:49:05Z</time>
      </trkpt>
      <trkpt lat="59.9132944" lon="17.6429993">
        <ele>32.3416</ele>
        <time>2012-05-01T09:49:14Z</time>
      </trkpt>
      <trkpt lat="59.9127998" lon="17.6430993">
        <ele>32.8223</ele>
        <time>2012-05-01T09:49:21Z</time>
      </trkpt>
      <trkpt lat="59.9123972" lon="17.6430273">
        <ele>31.3801</ele>
        <time>2012-05-01T09:49:26Z</time>
      </trkpt>
      <trkpt lat="59.9123134" lon="17.6430438">
        <ele>31.3801</ele>
        <time>2012-05-01T09:49:27Z</time>
      </trkpt>
      <trkpt lat="59.9117629" lon="17.6432022">
        <ele>31.3801</ele>
        <time>2012-05-01T09:49:34Z</time>
      </trkpt>
      <trkpt lat="59.9110466" lon="17.6433576">
        <ele>31.3801</ele>
        <time>2012-05-01T09:49:43Z</time>
      </trkpt>
      <trkpt lat="59.910709" lon="17.64342">
        <ele>30.8995</ele>
        <time>2012-05-01T09:49:47Z</time>
      </trkpt>
      <trkpt lat="59.9102236" lon="17.6435888">
        <ele>30.4188</ele>
        <time>2012-05-01T09:49:53Z</time>
      </trkpt>
      <trkpt lat="59.9101436" lon="17.6435933">
        <ele>30.4188</ele>
        <time>2012-05-01T09:49:54Z</time>
      </trkpt>
      <trkpt lat="59.9098874" lon="17.6435271">
        <ele>28.9769</ele>
        <time>2012-05-01T09:49:57Z</time>
      </trkpt>
      <trkpt lat="59.9094341" lon="17.6435758">
        <ele>28.0155</ele>
        <time>2012-05-01T09:50:02Z</time>
      </trkpt>
      <trkpt lat="59.9087453" lon="17.6436685">
        <ele>27.5349</ele>
        <time>2012-05-01T09:50:10Z</time>
      </trkpt>
      <trkpt lat="59.908266" lon="17.6436665">
        <ele>28.0155</ele>
        <time>2012-05-01T09:50:16Z</time>
      </trkpt>
      <trkpt lat="59.9075367" lon="17.6435461">
        <ele>26.5736</ele>
        <time>2012-05-01T09:50:25Z</time>
      </trkpt>
      <trkpt lat="59.906755" lon="17.6433732">
        <ele>25.1317</ele>
        <time>2012-05-01T09:50:34Z</time>
      </trkpt>
      <trkpt lat="59.9060225" lon="17.6430987">
        <ele>23.209</ele>
        <time>2012-05-01T09:50:42Z</time>
      </trkpt>
      <trkpt lat="59.9054479" lon="17.6428922">
        <ele>22.2476</ele>
        <time>2012-05-01T09:50:48Z</time>
      </trkpt>
      <trkpt lat="59.9052631" lon="17.6428476">
        <ele>22.2476</ele>
        <time>2012-05-01T09:50:50Z</time>
      </trkpt>
      <trkpt lat="59.9046325" lon="17.6424801">
        <ele>21.767</ele>
        <time>2012-05-01T09:50:57Z</time>
      </trkpt>
      <trkpt lat="59.9041977" lon="17.6422306">
        <ele>22.2476</ele>
        <time>2012-05-01T09:51:02Z</time>
      </trkpt>
      <trkpt lat="59.9037169" lon="17.6419804">
        <ele>23.6896</ele>
        <time>2012-05-01T09:51:08Z</time>
      </trkpt>
      <trkpt lat="59.903423" lon="17.641899">
        <ele>23.6896</ele>
        <time>2012-05-01T09:51:12Z</time>
      </trkpt>
      <trkpt lat="59.9028022" lon="17.6415557">
        <ele>23.209</ele>
        <time>2012-05-01T09:51:20Z</time>
      </trkpt>
      <trkpt lat="59.9020267" lon="17.6410464">
        <ele>23.209</ele>
        <time>2012-05-01T09:51:30Z</time>
      </trkpt>
      <trkpt lat="59.9011154" lon="17.6402353">
        <ele>23.209</ele>
        <time>2012-05-01T09:51:42Z</time>
      </trkpt>
      <trkpt lat="59.9004732" lon="17.6395909">
        <ele>23.209</ele>
        <time>2012-05-01T09:51:51Z</time>
      </trkpt>
      <trkpt lat="59.8999433" lon="17.6390296">
        <ele>23.6896</ele>
        <time>2012-05-01T09:51:59Z</time>
      </trkpt>
      <trkpt lat="59.8993118" lon="17.6383953">
        <ele>24.1703</ele>
        <time>2012-05-01T09:52:09Z</time>
      </trkpt>
      <trkpt lat="59.8988392" lon="17.6379658">
        <ele>24.651</ele>
        <time>2012-05-01T09:52:17Z</time>
      </trkpt>
      <trkpt lat="59.8983824" lon="17.6375502">
        <ele>25.1317</ele>
        <time>2012-05-01T09:52:25Z</time>
      </trkpt>
      <trkpt lat="59.8978473" lon="17.6371059">
        <ele>27.5349</ele>
        <time>2012-05-01T09:52:34Z</time>
      </trkpt>
      <trkpt lat="59.8975914" lon="17.636943">
        <ele>28.9769</ele>
        <time>2012-05-01T09:52:39Z</time>
      </trkpt>
      <trkpt lat="59.8975436" lon="17.6369079">
        <ele>29.4575</ele>
        <time>2012-05-01T09:52:40Z</time>
      </trkpt>
      <trkpt lat="59.8974511" lon="17.6368365">
        <ele>29.9381</ele>
        <time>2012-05-01T09:52:42Z</time>
      </trkpt>
      <trkpt lat="59.8973755" lon="17.6365526">
        <ele>28.4962</ele>
        <time>2012-05-01T09:52:46Z</time>
      </trkpt>
      <trkpt lat="59.8974508" lon="17.6363005">
        <ele>27.5349</ele>
        <time>2012-05-01T09:52:49Z</time>
      </trkpt>
      <trkpt lat="59.8977096" lon="17.63557">
        <ele>26.5736</ele>
        <time>2012-05-01T09:52:57Z</time>
      </trkpt>
      <trkpt lat="59.8977834" lon="17.6353766">
        <ele>26.0929</ele>
        <time>2012-05-01T09:52:59Z</time>
      </trkpt>
      <trkpt lat="59.8979567" lon="17.6350561">
        <ele>26.0929</ele>
        <time>2012-05-01T09:53:03Z</time>
      </trkpt>
      <trkpt lat="59.8980952" lon="17.6346163">
        <ele>24.651</ele>
        <time>2012-05-01T09:53:08Z</time>
      </trkpt>
      <trkpt lat="59.8981358" lon="17.6342092">
        <ele>24.1703</ele>
        <time>2012-05-01T09:53:14Z</time>
      </trkpt>
      <trkpt lat="59.8982073" lon="17.6335118">
        <ele>24.1703</ele>
        <time>2012-05-01T09:53:23Z</time>
      </trkpt>
      <trkpt lat="59.8982641" lon="17.6330038">
        <ele>25.6123</ele>
        <time>2012-05-01T09:53:30Z</time>
      </trkpt>
      <trkpt lat="59.898347" lon="17.6327293">
        <ele>26.0929</ele>
        <time>2012-05-01T09:53:35Z</time>
      </trkpt>
      <trkpt lat="59.8980846" lon="17.6343343">
        <ele>22.7283</ele>
        <time>2012-05-01T09:58:29Z</time>
      </trkpt>
      <trkpt lat="59.8981701" lon="17.633641">
        <ele>23.6896</ele>
        <time>2012-05-01T09:58:36Z</time>
      </trkpt>
      <trkpt lat="59.8982338" lon="17.6331097">
        <ele>25.1317</ele>
        <time>2012-05-01T09:58:42Z</time>
      </trkpt>
      <trkpt lat="59.8983041" lon="17.6328064">
        <ele>25.1317</ele>
        <time>2012-05-01T09:58:46Z</time>
      </trkpt>
      <trkpt lat="59.898347" lon="17.6326733">
        <ele>25.6123</ele>
        <time>2012-05-01T09:58:48Z</time>
      </trkpt>
      <trkpt lat="59.8983176" lon="17.6323652">
        <ele>24.651</ele>
        <time>2012-05-01T09:58:52Z</time>
      </trkpt>
      <trkpt lat="59.8981285" lon="17.6321121">
        <ele>24.651</ele>
        <time>2012-05-01T09:58:56Z</time>
      </trkpt>
      <trkpt lat="59.8980131" lon="17.6317">
        <ele>24.1703</ele>
        <time>2012-05-01T09:59:00Z</time>
      </trkpt>
      <trkpt lat="59.8979975" lon="17.6315829">
        <ele>24.1703</ele>
        <time>2012-05-01T09:59:01Z</time>
      </trkpt>
      <trkpt lat="59.897955" lon="17.631257">
        <ele>24.651</ele>
        <time>2012-05-01T09:59:04Z</time>
      </trkpt>
      <trkpt lat="59.8977432" lon="17.6304049">
        <ele>24.1703</ele>
        <time>2012-05-01T09:59:13Z</time>
      </trkpt>
      <trkpt lat="59.8975982" lon="17.6299181">
        <ele>24.1703</ele>
        <time>2012-05-01T09:59:18Z</time>
      </trkpt>
      <trkpt lat="59.8972266" lon="17.6290784">
        <ele>24.651</ele>
        <time>2012-05-01T09:59:28Z</time>
      </trkpt>
      <trkpt lat="59.8969346" lon="17.6285876">
        <ele>25.1317</ele>
        <time>2012-05-01T09:59:35Z</time>
      </trkpt>
      <trkpt lat="59.8966212" lon="17.6282469">
        <ele>25.1317</ele>
        <time>2012-05-01T09:59:42Z</time>
      </trkpt>
      <trkpt lat="59.896376" lon="17.6280506">
        <ele>25.6123</ele>
        <time>2012-05-01T09:59:48Z</time>
      </trkpt>
      <trkpt lat="59.8962392" lon="17.6279064">
        <ele>25.6123</ele>
        <time>2012-05-01T09:59:52Z</time>
      </trkpt>
      <trkpt lat="59.895966" lon="17.6277176">
        <ele>26.0929</ele>
        <time>2012-05-01T09:59:58Z</time>
      </trkpt>
      <trkpt lat="59.8955454" lon="17.6275762">
        <ele>27.5349</ele>
        <time>2012-05-01T10:00:06Z</time>
      </trkpt>
      <trkpt lat="59.89519" lon="17.6273431">
        <ele>27.0543</ele>
        <time>2012-05-01T10:00:13Z</time>
      </trkpt>
      <trkpt lat="59.8948526" lon="17.6271527">
        <ele>26.0929</ele>
        <time>2012-05-01T10:00:19Z</time>
      </trkpt>
      <trkpt lat="59.8944875" lon="17.6268451">
        <ele>25.1317</ele>
        <time>2012-05-01T10:00:26Z</time>
      </trkpt>
      <trkpt lat="59.8941483" lon="17.6263282">
        <ele>23.6896</ele>
        <time>2012-05-01T10:00:33Z</time>
      </trkpt>
      <trkpt lat="59.8938984" lon="17.6257714">
        <ele>23.209</ele>
        <time>2012-05-01T10:00:39Z</time>
      </trkpt>
      <trkpt lat="59.8938054" lon="17.6254735">
        <ele>22.2476</ele>
        <time>2012-05-01T10:00:42Z</time>
      </trkpt>
      <trkpt lat="59.8936721" lon="17.6247079">
        <ele>18.4023</ele>
        <time>2012-05-01T10:00:47Z</time>
      </trkpt>
      <trkpt lat="59.8936437" lon="17.6245315">
        <ele>17.9218</ele>
        <time>2012-05-01T10:00:48Z</time>
      </trkpt>
      <trkpt lat="59.8934331" lon="17.6239635">
        <ele>17.4412</ele>
        <time>2012-05-01T10:00:52Z</time>
      </trkpt>
      <trkpt lat="59.8931132" lon="17.6234577">
        <ele>17.9218</ele>
        <time>2012-05-01T10:00:58Z</time>
      </trkpt>
      <trkpt lat="59.8930247" lon="17.623331">
        <ele>17.9218</ele>
        <time>2012-05-01T10:01:00Z</time>
      </trkpt>
      <trkpt lat="59.8927592" lon="17.6231285">
        <ele>17.9218</ele>
        <time>2012-05-01T10:01:05Z</time>
      </trkpt>
      <trkpt lat="59.8927035" lon="17.6231129">
        <ele>17.9218</ele>
        <time>2012-05-01T10:01:06Z</time>
      </trkpt>
      <trkpt lat="59.8924357" lon="17.6232781">
        <ele>20.8057</ele>
        <time>2012-05-01T10:01:12Z</time>
      </trkpt>
      <trkpt lat="59.892401" lon="17.6233553">
        <ele>21.2864</ele>
        <time>2012-05-01T10:01:13Z</time>
      </trkpt>
      <trkpt lat="59.8921802" lon="17.6239242">
        <ele>23.209</ele>
        <time>2012-05-01T10:01:19Z</time>
      </trkpt>
      <trkpt lat="59.8920128" lon="17.6241141">
        <ele>23.209</ele>
        <time>2012-05-01T10:01:23Z</time>
      </trkpt>
      <trkpt lat="59.891968" lon="17.6241182">
        <ele>23.209</ele>
        <time>2012-05-01T10:01:24Z</time>
      </trkpt>
      <trkpt lat="59.8915773" lon="17.6240889">
        <ele>22.2476</ele>
        <time>2012-05-01T10:01:32Z</time>
      </trkpt>
      <trkpt lat="59.8911195" lon="17.6241043">
        <ele>22.2476</ele>
        <time>2012-05-01T10:01:40Z</time>
      </trkpt>
      <trkpt lat="59.8906273" lon="17.6241039">
        <ele>20.8057</ele>
        <time>2012-05-01T10:01:48Z</time>
      </trkpt>
      <trkpt lat="59.8899428" lon="17.6240827">
        <ele>19.8444</ele>
        <time>2012-05-01T10:01:58Z</time>
      </trkpt>
      <trkpt lat="59.8896747" lon="17.6240861">
        <ele>20.325</ele>
        <time>2012-05-01T10:02:02Z</time>
      </trkpt>
      <trkpt lat="59.889451" lon="17.6242419">
        <ele>21.2864</ele>
        <time>2012-05-01T10:02:06Z</time>
      </trkpt>
      <trkpt lat="59.8893613" lon="17.6243909">
        <ele>21.767</ele>
        <time>2012-05-01T10:02:08Z</time>
      </trkpt>
      <trkpt lat="59.8889708" lon="17.6247741">
        <ele>22.2476</ele>
        <time>2012-05-01T10:02:16Z</time>
      </trkpt>
      <trkpt lat="59.8885754" lon="17.6250078">
        <ele>22.7283</ele>
        <time>2012-05-01T10:02:23Z</time>
      </trkpt>
      <trkpt lat="59.8882309" lon="17.6250491">
        <ele>22.2476</ele>
        <time>2012-05-01T10:02:29Z</time>
      </trkpt>
      <trkpt lat="59.888115" lon="17.6250623">
        <ele>21.767</ele>
        <time>2012-05-01T10:02:31Z</time>
      </trkpt>
      <trkpt lat="59.8876482" lon="17.625227">
        <ele>21.2864</ele>
        <time>2012-05-01T10:02:39Z</time>
      </trkpt>
      <trkpt lat="59.8871891" lon="17.6254034">
        <ele>21.767</ele>
        <time>2012-05-01T10:02:47Z</time>
      </trkpt>
      <trkpt lat="59.8870432" lon="17.625452">
        <ele>22.2476</ele>
        <time>2012-05-01T10:02:50Z</time>
      </trkpt>
      <trkpt lat="59.8869427" lon="17.6254416">
        <ele>21.767</ele>
        <time>2012-05-01T10:02:52Z</time>
      </trkpt>
      <trkpt lat="59.8866008" lon="17.625479">
        <ele>19.8444</ele>
        <time>2012-05-01T10:02:57Z</time>
      </trkpt>
      <trkpt lat="59.886046" lon="17.6254841">
        <ele>19.3638</ele>
        <time>2012-05-01T10:03:05Z</time>
      </trkpt>
      <trkpt lat="59.8858197" lon="17.6253496">
        <ele>18.4023</ele>
        <time>2012-05-01T10:03:09Z</time>
      </trkpt>
      <trkpt lat="59.8855521" lon="17.6253015">
        <ele>16.9604</ele>
        <time>2012-05-01T10:03:13Z</time>
      </trkpt>
      <trkpt lat="59.8851875" lon="17.6253341">
        <ele>17.9218</ele>
        <time>2012-05-01T10:03:19Z</time>
      </trkpt>
      <trkpt lat="59.884712" lon="17.625359">
        <ele>18.4023</ele>
        <time>2012-05-01T10:03:27Z</time>
      </trkpt>
      <trkpt lat="59.8841443" lon="17.6254074">
        <ele>18.4023</ele>
        <time>2012-05-01T10:03:36Z</time>
      </trkpt>
      <trkpt lat="59.8835441" lon="17.6255034">
        <ele>18.8831</ele>
        <time>2012-05-01T10:03:46Z</time>
      </trkpt>
      <trkpt lat="59.8830079" lon="17.6257191">
        <ele>19.3638</ele>
        <time>2012-05-01T10:03:55Z</time>
      </trkpt>
      <trkpt lat="59.8828432" lon="17.6257827">
        <ele>19.3638</ele>
        <time>2012-05-01T10:03:58Z</time>
      </trkpt>
      <trkpt lat="59.882583" lon="17.6256209">
        <ele>18.8831</ele>
        <time>2012-05-01T10:04:03Z</time>
      </trkpt>
      <trkpt lat="59.8824143" lon="17.625403">
        <ele>17.9218</ele>
        <time>2012-05-01T10:04:07Z</time>
      </trkpt>
      <trkpt lat="59.8822028" lon="17.6251248">
        <ele>17.4412</ele>
        <time>2012-05-01T10:04:12Z</time>
      </trkpt>
      <trkpt lat="59.8820497" lon="17.6247129">
        <ele>16.9604</ele>
        <time>2012-05-01T10:04:17Z</time>
      </trkpt>
      <trkpt lat="59.8819474" lon="17.6245232">
        <ele>16.9604</ele>
        <time>2012-05-01T10:04:20Z</time>
      </trkpt>
      <trkpt lat="59.8816303" lon="17.6242533">
        <ele>16.4797</ele>
        <time>2012-05-01T10:04:27Z</time>
      </trkpt>
      <trkpt lat="59.8815357" lon="17.6241888">
        <ele>16.4797</ele>
        <time>2012-05-01T10:04:29Z</time>
      </trkpt>
      <trkpt lat="59.8814781" lon="17.623935">
        <ele>16.4797</ele>
        <time>2012-05-01T10:04:33Z</time>
      </trkpt>
      <trkpt lat="59.8815243" lon="17.6236968">
        <ele>16.4797</ele>
        <time>2012-05-01T10:04:36Z</time>
      </trkpt>
      <trkpt lat="59.881556" lon="17.6235359">
        <ele>16.9604</ele>
        <time>2012-05-01T10:04:38Z</time>
      </trkpt>
      <trkpt lat="59.8815834" lon="17.6231816">
        <ele>17.4412</ele>
        <time>2012-05-01T10:04:42Z</time>
      </trkpt>
      <trkpt lat="59.8815725" lon="17.6228853">
        <ele>16.9604</ele>
        <time>2012-05-01T10:04:45Z</time>
      </trkpt>
      <trkpt lat="59.8814202" lon="17.622185">
        <ele>15.5184</ele>
        <time>2012-05-01T10:04:51Z</time>
      </trkpt>
      <trkpt lat="59.8813615" lon="17.6219567">
        <ele>15.0377</ele>
        <time>2012-05-01T10:04:53Z</time>
      </trkpt>
      <trkpt lat="59.8812154" lon="17.6214956">
        <ele>13.5958</ele>
        <time>2012-05-01T10:04:57Z</time>
      </trkpt>
      <trkpt lat="59.880897" lon="17.6211113">
        <ele>13.5958</ele>
        <time>2012-05-01T10:05:03Z</time>
      </trkpt>
      <trkpt lat="59.8806391" lon="17.6207715">
        <ele>13.1151</ele>
        <time>2012-05-01T10:05:08Z</time>
      </trkpt>
      <trkpt lat="59.8804773" lon="17.6202813">
        <ele>13.5958</ele>
        <time>2012-05-01T10:05:13Z</time>
      </trkpt>
      <trkpt lat="59.8802412" lon="17.6192084">
        <ele>13.5958</ele>
        <time>2012-05-01T10:05:23Z</time>
      </trkpt>
      <trkpt lat="59.8800526" lon="17.618339">
        <ele>12.6344</ele>
        <time>2012-05-01T10:05:31Z</time>
      </trkpt>
      <trkpt lat="59.8798998" lon="17.6176856">
        <ele>10.7118</ele>
        <time>2012-05-01T10:05:37Z</time>
      </trkpt>
      <trkpt lat="59.8798087" lon="17.6171699">
        <ele>9.75061</ele>
        <time>2012-05-01T10:05:42Z</time>
      </trkpt>
      <trkpt lat="59.8796618" lon="17.6165606">
        <ele>9.2699</ele>
        <time>2012-05-01T10:05:49Z</time>
      </trkpt>
      <trkpt lat="59.8796012" lon="17.6163253">
        <ele>9.75061</ele>
        <time>2012-05-01T10:05:53Z</time>
      </trkpt>
      <trkpt lat="59.8795128" lon="17.6158638">
        <ele>9.75061</ele>
        <time>2012-05-01T10:05:59Z</time>
      </trkpt>
      <trkpt lat="59.8793293" lon="17.615142">
        <ele>7.82788</ele>
        <time>2012-05-01T10:06:06Z</time>
      </trkpt>
      <trkpt lat="59.8791299" lon="17.6143269">
        <ele>5.42456</ele>
        <time>2012-05-01T10:06:14Z</time>
      </trkpt>
      <trkpt lat="59.8789502" lon="17.6135989">
        <ele>5.42456</ele>
        <time>2012-05-01T10:06:21Z</time>
      </trkpt>
      <trkpt lat="59.8787006" lon="17.6127516">
        <ele>5.42456</ele>
        <time>2012-05-01T10:06:29Z</time>
      </trkpt>
      <trkpt lat="59.8784497" lon="17.6119051">
        <ele>5.90527</ele>
        <time>2012-05-01T10:06:37Z</time>
      </trkpt>
      <trkpt lat="59.8783266" lon="17.6115338">
        <ele>6.38586</ele>
        <time>2012-05-01T10:06:41Z</time>
      </trkpt>
      <trkpt lat="59.8781028" lon="17.6112354">
        <ele>6.86646</ele>
        <time>2012-05-01T10:06:46Z</time>
      </trkpt>
      <trkpt lat="59.877898" lon="17.6107711">
        <ele>7.34717</ele>
        <time>2012-05-01T10:06:52Z</time>
      </trkpt>
      <trkpt lat="59.8777146" lon="17.6101668">
        <ele>6.86646</ele>
        <time>2012-05-01T10:06:58Z</time>
      </trkpt>
      <trkpt lat="59.8774872" lon="17.609398">
        <ele>5.42456</ele>
        <time>2012-05-01T10:07:04Z</time>
      </trkpt>
      <trkpt lat="59.8771415" lon="17.6082657">
        <ele>4.94385</ele>
        <time>2012-05-01T10:07:13Z</time>
      </trkpt>
      <trkpt lat="59.8767846" lon="17.6070977">
        <ele>5.42456</ele>
        <time>2012-05-01T10:07:23Z</time>
      </trkpt>
      <trkpt lat="59.8765576" lon="17.6063474">
        <ele>5.42456</ele>
        <time>2012-05-01T10:07:30Z</time>
      </trkpt>
      <trkpt lat="59.8764148" lon="17.6059041">
        <ele>5.42456</ele>
        <time>2012-05-01T10:07:35Z</time>
      </trkpt>
      <trkpt lat="59.8763597" lon="17.6057715">
        <ele>5.42456</ele>
        <time>2012-05-01T10:07:37Z</time>
      </trkpt>
      <trkpt lat="59.8761702" lon="17.6053963">
        <ele>5.90527</ele>
        <time>2012-05-01T10:07:43Z</time>
      </trkpt>
      <trkpt lat="59.8759184" lon="17.6052771">
        <ele>5.42456</ele>
        <time>2012-05-01T10:07:48Z</time>
      </trkpt>
      <trkpt lat="59.875693" lon="17.6053141">
        <ele>5.90527</ele>
        <time>2012-05-01T10:07:52Z</time>
      </trkpt>
      <trkpt lat="59.87542" lon="17.6051266">
        <ele>5.90527</ele>
        <time>2012-05-01T10:07:57Z</time>
      </trkpt>
      <trkpt lat="59.8753743" lon="17.605046">
        <ele>6.38586</ele>
        <time>2012-05-01T10:07:58Z</time>
      </trkpt>
      <trkpt lat="59.8749465" lon="17.6042216">
        <ele>6.38586</ele>
        <time>2012-05-01T10:08:08Z</time>
      </trkpt>
      <trkpt lat="59.8745519" lon="17.6034673">
        <ele>6.86646</ele>
        <time>2012-05-01T10:08:17Z</time>
      </trkpt>
      <trkpt lat="59.8741394" lon="17.6027188">
        <ele>7.82788</ele>
        <time>2012-05-01T10:08:26Z</time>
      </trkpt>
      <trkpt lat="59.8737655" lon="17.602082">
        <ele>8.78918</ele>
        <time>2012-05-01T10:08:34Z</time>
      </trkpt>
      <trkpt lat="59.8734392" lon="17.6015085">
        <ele>9.75061</ele>
        <time>2012-05-01T10:08:41Z</time>
      </trkpt>
      <trkpt lat="59.8732787" lon="17.6008856">
        <ele>10.2312</ele>
        <time>2012-05-01T10:08:47Z</time>
      </trkpt>
      <trkpt lat="59.8732708" lon="17.6007689">
        <ele>10.2312</ele>
        <time>2012-05-01T10:08:48Z</time>
      </trkpt>
      <trkpt lat="59.8732859" lon="17.5998485">
        <ele>10.2312</ele>
        <time>2012-05-01T10:08:56Z</time>
      </trkpt>
      <trkpt lat="59.8731739" lon="17.5989673">
        <ele>10.2312</ele>
        <time>2012-05-01T10:09:04Z</time>
      </trkpt>
      <trkpt lat="59.8731486" lon="17.5988667">
        <ele>10.2312</ele>
        <time>2012-05-01T10:09:05Z</time>
      </trkpt>
      <trkpt lat="59.8728989" lon="17.5982326">
        <ele>10.2312</ele>
        <time>2012-05-01T10:09:13Z</time>
      </trkpt>
      <trkpt lat="59.8728399" lon="17.5981252">
        <ele>10.7118</ele>
        <time>2012-05-01T10:09:15Z</time>
      </trkpt>
      <trkpt lat="59.8727212" lon="17.5981091">
        <ele>11.1925</ele>
        <time>2012-05-01T10:09:19Z</time>
      </trkpt>
      <trkpt lat="59.87263" lon="17.5980676">
        <ele>11.6732</ele>
        <time>2012-05-01T10:09:22Z</time>
      </trkpt>
      <trkpt lat="59.8724234" lon="17.5977401">
        <ele>12.1538</ele>
        <time>2012-05-01T10:09:28Z</time>
      </trkpt>
      <trkpt lat="59.8722706" lon="17.597357">
        <ele>13.1151</ele>
        <time>2012-05-01T10:09:34Z</time>
      </trkpt>
      <trkpt lat="59.8721144" lon="17.5969677">
        <ele>14.0764</ele>
        <time>2012-05-01T10:09:41Z</time>
      </trkpt>
      <trkpt lat="59.8720141" lon="17.5965478">
        <ele>12.6344</ele>
        <time>2012-05-01T10:09:47Z</time>
      </trkpt>
      <trkpt lat="59.871959" lon="17.5958154">
        <ele>12.6344</ele>
        <time>2012-05-01T10:09:55Z</time>
      </trkpt>
      <trkpt lat="59.871908" lon="17.5948885">
        <ele>13.5958</ele>
        <time>2012-05-01T10:10:05Z</time>
      </trkpt>
      <trkpt lat="59.8718456" lon="17.5941011">
        <ele>15.999</ele>
        <time>2012-05-01T10:10:14Z</time>
      </trkpt>
      <trkpt lat="59.8717193" lon="17.5934036">
        <ele>15.5184</ele>
        <time>2012-05-01T10:10:22Z</time>
      </trkpt>
      <trkpt lat="59.8715753" lon="17.5926679">
        <ele>14.0764</ele>
        <time>2012-05-01T10:10:29Z</time>
      </trkpt>
      <trkpt lat="59.8714857" lon="17.5923227">
        <ele>13.1151</ele>
        <time>2012-05-01T10:10:32Z</time>
      </trkpt>
      <trkpt lat="59.871187" lon="17.5917561">
        <ele>12.6344</ele>
        <time>2012-05-01T10:10:38Z</time>
      </trkpt>
      <trkpt lat="59.8706956" lon="17.5910733">
        <ele>12.6344</ele>
        <time>2012-05-01T10:10:47Z</time>
      </trkpt>
      <trkpt lat="59.870343" lon="17.5905381">
        <ele>13.5958</ele>
        <time>2012-05-01T10:10:54Z</time>
      </trkpt>
      <trkpt lat="59.8701125" lon="17.5899617">
        <ele>14.557</ele>
        <time>2012-05-01T10:11:00Z</time>
      </trkpt>
      <trkpt lat="59.8698753" lon="17.5893241">
        <ele>14.557</ele>
        <time>2012-05-01T10:11:07Z</time>
      </trkpt>
      <trkpt lat="59.8697153" lon="17.588967">
        <ele>14.0764</ele>
        <time>2012-05-01T10:11:12Z</time>
      </trkpt>
      <trkpt lat="59.869549" lon="17.5889251">
        <ele>13.5958</ele>
        <time>2012-05-01T10:11:16Z</time>
      </trkpt>
      <trkpt lat="59.8690479" lon="17.5891852">
        <ele>13.5958</ele>
        <time>2012-05-01T10:11:25Z</time>
      </trkpt>
      <trkpt lat="59.8688914" lon="17.5893949">
        <ele>14.557</ele>
        <time>2012-05-01T10:11:29Z</time>
      </trkpt>
      <trkpt lat="59.8686508" lon="17.5895846">
        <ele>15.5184</ele>
        <time>2012-05-01T10:11:35Z</time>
      </trkpt>
      <trkpt lat="59.8683927" lon="17.589799">
        <ele>16.4797</ele>
        <time>2012-05-01T10:11:41Z</time>
      </trkpt>
      <trkpt lat="59.8680655" lon="17.5898726">
        <ele>13.5958</ele>
        <time>2012-05-01T10:11:46Z</time>
      </trkpt>
      <trkpt lat="59.8677114" lon="17.589897">
        <ele>16.4797</ele>
        <time>2012-05-01T10:11:51Z</time>
      </trkpt>
      <trkpt lat="59.8676074" lon="17.5899186">
        <ele>17.4412</ele>
        <time>2012-05-01T10:11:53Z</time>
      </trkpt>
      <trkpt lat="59.8671843" lon="17.5901752">
        <ele>15.0377</ele>
        <time>2012-05-01T10:12:02Z</time>
      </trkpt>
      <trkpt lat="59.8669888" lon="17.5903902">
        <ele>13.5958</ele>
        <time>2012-05-01T10:12:06Z</time>
      </trkpt>
      <trkpt lat="59.8667847" lon="17.5904392">
        <ele>12.1538</ele>
        <time>2012-05-01T10:12:10Z</time>
      </trkpt>
      <trkpt lat="59.866588" lon="17.590487">
        <ele>13.5958</ele>
        <time>2012-05-01T10:12:15Z</time>
      </trkpt>
      <trkpt lat="59.8665562" lon="17.590497">
        <ele>14.0764</ele>
        <time>2012-05-01T10:12:16Z</time>
      </trkpt>
      <trkpt lat="59.8662816" lon="17.5905522">
        <ele>15.5184</ele>
        <time>2012-05-01T10:12:23Z</time>
      </trkpt>
      <trkpt lat="59.8660028" lon="17.5906129">
        <ele>16.9604</ele>
        <time>2012-05-01T10:12:29Z</time>
      </trkpt>
      <trkpt lat="59.865839" lon="17.5907322">
        <ele>17.9218</ele>
        <time>2012-05-01T10:12:33Z</time>
      </trkpt>
      <trkpt lat="59.8655751" lon="17.59122">
        <ele>19.3638</ele>
        <time>2012-05-01T10:12:41Z</time>
      </trkpt>
      <trkpt lat="59.8654239" lon="17.5914773">
        <ele>19.3638</ele>
        <time>2012-05-01T10:12:46Z</time>
      </trkpt>
      <trkpt lat="59.8652371" lon="17.591565">
        <ele>20.325</ele>
        <time>2012-05-01T10:12:51Z</time>
      </trkpt>
      <trkpt lat="59.8648796" lon="17.5915467">
        <ele>20.8057</ele>
        <time>2012-05-01T10:12:59Z</time>
      </trkpt>
      <trkpt lat="59.8647837" lon="17.5915505">
        <ele>21.767</ele>
        <time>2012-05-01T10:13:01Z</time>
      </trkpt>
      <trkpt lat="59.8644384" lon="17.5916116">
        <ele>24.1703</ele>
        <time>2012-05-01T10:13:08Z</time>
      </trkpt>
      <trkpt lat="59.8641845" lon="17.5915567">
        <ele>23.209</ele>
        <time>2012-05-01T10:13:13Z</time>
      </trkpt>
      <trkpt lat="59.864082" lon="17.5915189">
        <ele>23.6896</ele>
        <time>2012-05-01T10:13:15Z</time>
      </trkpt>
      <trkpt lat="59.8638648" lon="17.5914641">
        <ele>22.7283</ele>
        <time>2012-05-01T10:13:19Z</time>
      </trkpt>
      <trkpt lat="59.8634863" lon="17.5911937">
        <ele>20.8057</ele>
        <time>2012-05-01T10:13:26Z</time>
      </trkpt>
      <trkpt lat="59.8630018" lon="17.5908521">
        <ele>19.3638</ele>
        <time>2012-05-01T10:13:34Z</time>
      </trkpt>
      <trkpt lat="59.8623919" lon="17.5904144">
        <ele>17.9218</ele>
        <time>2012-05-01T10:13:44Z</time>
      </trkpt>
      <trkpt lat="59.8618958" lon="17.5900514">
        <ele>17.9218</ele>
        <time>2012-05-01T10:13:52Z</time>
      </trkpt>
      <trkpt lat="59.8613484" lon="17.5896386">
        <ele>18.8831</ele>
        <time>2012-05-01T10:14:02Z</time>
      </trkpt>
      <trkpt lat="59.8609583" lon="17.5894768">
        <ele>19.3638</ele>
        <time>2012-05-01T10:14:09Z</time>
      </trkpt>
      <trkpt lat="59.8608049" lon="17.5894339">
        <ele>19.8444</ele>
        <time>2012-05-01T10:14:12Z</time>
      </trkpt>
      <trkpt lat="59.8605303" lon="17.5891804">
        <ele>20.8057</ele>
        <time>2012-05-01T10:14:18Z</time>
      </trkpt>
      <trkpt lat="59.8604377" lon="17.5890765">
        <ele>20.325</ele>
        <time>2012-05-01T10:14:20Z</time>
      </trkpt>
      <trkpt lat="59.8600865" lon="17.5888245">
        <ele>20.8057</ele>
        <time>2012-05-01T10:14:27Z</time>
      </trkpt>
      <trkpt lat="59.8599301" lon="17.5889206">
        <ele>20.8057</ele>
        <time>2012-05-01T10:14:31Z</time>
      </trkpt>
      <trkpt lat="59.8599097" lon="17.5889905">
        <ele>21.2864</ele>
        <time>2012-05-01T10:14:32Z</time>
      </trkpt>
      <trkpt lat="59.859839" lon="17.5892552">
        <ele>22.2476</ele>
        <time>2012-05-01T10:14:36Z</time>
      </trkpt>
      <trkpt lat="59.8597522" lon="17.589959">
        <ele>27.5349</ele>
        <time>2012-05-01T10:14:45Z</time>
      </trkpt>
      <trkpt lat="59.859716" lon="17.5901752">
        <ele>29.4575</ele>
        <time>2012-05-01T10:14:48Z</time>
      </trkpt>
      <trkpt lat="59.8596042" lon="17.5904216">
        <ele>31.3801</ele>
        <time>2012-05-01T10:14:53Z</time>
      </trkpt>
      <trkpt lat="59.8595121" lon="17.5906426">
        <ele>32.3416</ele>
        <time>2012-05-01T10:14:57Z</time>
      </trkpt>
      <trkpt lat="59.859419" lon="17.5911832">
        <ele>36.1868</ele>
        <time>2012-05-01T10:15:04Z</time>
      </trkpt>
      <trkpt lat="59.8593864" lon="17.5914701">
        <ele>35.2255</ele>
        <time>2012-05-01T10:15:07Z</time>
      </trkpt>
      <trkpt lat="59.8593494" lon="17.5918147">
        <ele>32.8223</ele>
        <time>2012-05-01T10:15:10Z</time>
      </trkpt>
      <trkpt lat="59.8592187" lon="17.5926534">
        <ele>26.0929</ele>
        <time>2012-05-01T10:15:14Z</time>
      </trkpt>
      <trkpt lat="59.859186" lon="17.5928433">
        <ele>24.651</ele>
        <time>2012-05-01T10:15:15Z</time>
      </trkpt>
      <trkpt lat="59.8590984" lon="17.5940938">
        <ele>20.8057</ele>
        <time>2012-05-01T10:15:21Z</time>
      </trkpt>
      <trkpt lat="59.8590637" lon="17.5951026">
        <ele>21.2864</ele>
        <time>2012-05-01T10:15:27Z</time>
      </trkpt>
      <trkpt lat="59.85904" lon="17.5959921">
        <ele>20.8057</ele>
        <time>2012-05-01T10:15:34Z</time>
      </trkpt>
      <trkpt lat="59.8589974" lon="17.5970995">
        <ele>20.8057</ele>
        <time>2012-05-01T10:15:44Z</time>
      </trkpt>
      <trkpt lat="59.8589933" lon="17.5971984">
        <ele>20.8057</ele>
        <time>2012-05-01T10:15:45Z</time>
      </trkpt>
      <trkpt lat="59.8590618" lon="17.5975474">
        <ele>20.325</ele>
        <time>2012-05-01T10:15:49Z</time>
      </trkpt>
      <trkpt lat="59.8590986" lon="17.5976184">
        <ele>20.325</ele>
        <time>2012-05-01T10:15:50Z</time>
      </trkpt>
      <trkpt lat="59.8592954" lon="17.5981972">
        <ele>20.325</ele>
        <time>2012-05-01T10:15:57Z</time>
      </trkpt>
      <trkpt lat="59.8593006" lon="17.5982954">
        <ele>20.325</ele>
        <time>2012-05-01T10:15:58Z</time>
      </trkpt>
      <trkpt lat="59.859303" lon="17.5984858">
        <ele>20.8057</ele>
        <time>2012-05-01T10:16:00Z</time>
      </trkpt>
      <trkpt lat="59.8592198" lon="17.5989388">
        <ele>22.2476</ele>
        <time>2012-05-01T10:16:06Z</time>
      </trkpt>
      <trkpt lat="59.8590285" lon="17.5995563">
        <ele>23.209</ele>
        <time>2012-05-01T10:16:15Z</time>
      </trkpt>
      <trkpt lat="59.859008" lon="17.5996297">
        <ele>23.6896</ele>
        <time>2012-05-01T10:16:16Z</time>
      </trkpt>
      <trkpt lat="59.8587578" lon="17.6004435">
        <ele>25.1317</ele>
        <time>2012-05-01T10:16:27Z</time>
      </trkpt>
      <trkpt lat="59.8586051" lon="17.6009524">
        <ele>26.5736</ele>
        <time>2012-05-01T10:16:34Z</time>
      </trkpt>
      <trkpt lat="59.8584085" lon="17.6015919">
        <ele>28.4962</ele>
        <time>2012-05-01T10:16:43Z</time>
      </trkpt>
      <trkpt lat="59.8582243" lon="17.6020385">
        <ele>29.4575</ele>
        <time>2012-05-01T10:16:51Z</time>
      </trkpt>
      <trkpt lat="59.8579686" lon="17.6025654">
        <ele>29.4575</ele>
        <time>2012-05-01T10:17:01Z</time>
      </trkpt>
      <trkpt lat="59.8578257" lon="17.6030007">
        <ele>30.4188</ele>
        <time>2012-05-01T10:17:08Z</time>
      </trkpt>
      <trkpt lat="59.8578068" lon="17.6033804">
        <ele>30.4188</ele>
        <time>2012-05-01T10:17:13Z</time>
      </trkpt>
      <trkpt lat="59.8577025" lon="17.6035369">
        <ele>30.8995</ele>
        <time>2012-05-01T10:17:17Z</time>
      </trkpt>
      <trkpt lat="59.8575466" lon="17.603813">
        <ele>32.3416</ele>
        <time>2012-05-01T10:17:22Z</time>
      </trkpt>
      <trkpt lat="59.8573752" lon="17.6040723">
        <ele>31.3801</ele>
        <time>2012-05-01T10:17:27Z</time>
      </trkpt>
      <trkpt lat="59.8573548" lon="17.6041051">
        <ele>31.8607</ele>
        <time>2012-05-01T10:17:28Z</time>
      </trkpt>
      <trkpt lat="59.8572514" lon="17.6043172">
        <ele>33.7834</ele>
        <time>2012-05-01T10:17:32Z</time>
      </trkpt>
      <trkpt lat="59.8571518" lon="17.6045518">
        <ele>34.7449</ele>
        <time>2012-05-01T10:17:35Z</time>
      </trkpt>
      <trkpt lat="59.8570131" lon="17.6050049">
        <ele>37.1481</ele>
        <time>2012-05-01T10:17:40Z</time>
      </trkpt>
      <trkpt lat="59.8568857" lon="17.604987">
        <ele>36.6675</ele>
        <time>2012-05-01T10:17:43Z</time>
      </trkpt>
      <trkpt lat="59.8566843" lon="17.6048373">
        <ele>35.2255</ele>
        <time>2012-05-01T10:17:46Z</time>
      </trkpt>
      <trkpt lat="59.8563677" lon="17.6048007">
        <ele>34.2642</ele>
        <time>2012-05-01T10:17:51Z</time>
      </trkpt>
      <trkpt lat="59.8561683" lon="17.6048074">
        <ele>33.7834</ele>
        <time>2012-05-01T10:17:55Z</time>
      </trkpt>
      <trkpt lat="59.8560474" lon="17.6046058">
        <ele>32.8223</ele>
        <time>2012-05-01T10:17:59Z</time>
      </trkpt>
      <trkpt lat="59.8558696" lon="17.6038249">
        <ele>28.0155</ele>
        <time>2012-05-01T10:18:07Z</time>
      </trkpt>
      <trkpt lat="59.8557113" lon="17.6030258">
        <ele>25.6123</ele>
        <time>2012-05-01T10:18:14Z</time>
      </trkpt>
      <trkpt lat="59.8556367" lon="17.6024556">
        <ele>25.1317</ele>
        <time>2012-05-01T10:18:19Z</time>
      </trkpt>
      <trkpt lat="59.8556115" lon="17.6014347">
        <ele>25.1317</ele>
        <time>2012-05-01T10:18:28Z</time>
      </trkpt>
      <trkpt lat="59.8555445" lon="17.6005792">
        <ele>23.209</ele>
        <time>2012-05-01T10:18:35Z</time>
      </trkpt>
      <trkpt lat="59.8554076" lon="17.5998797">
        <ele>20.8057</ele>
        <time>2012-05-01T10:18:40Z</time>
      </trkpt>
      <trkpt lat="59.8552493" lon="17.5991803">
        <ele>19.8444</ele>
        <time>2012-05-01T10:18:45Z</time>
      </trkpt>
      <trkpt lat="59.8550766" lon="17.5987596">
        <ele>19.3638</ele>
        <time>2012-05-01T10:18:49Z</time>
      </trkpt>
      <trkpt lat="59.855016" lon="17.5983428">
        <ele>18.8831</ele>
        <time>2012-05-01T10:18:52Z</time>
      </trkpt>
      <trkpt lat="59.8547918" lon="17.5971734">
        <ele>17.4412</ele>
        <time>2012-05-01T10:19:01Z</time>
      </trkpt>
      <trkpt lat="59.8547038" lon="17.5966833">
        <ele>16.9604</ele>
        <time>2012-05-01T10:19:05Z</time>
      </trkpt>
      <trkpt lat="59.8545886" lon="17.5965528">
        <ele>16.4797</ele>
        <time>2012-05-01T10:19:08Z</time>
      </trkpt>
      <trkpt lat="59.8544752" lon="17.5966245">
        <ele>16.4797</ele>
        <time>2012-05-01T10:19:10Z</time>
      </trkpt>
      <trkpt lat="59.854126" lon="17.596935">
        <ele>15.999</ele>
        <time>2012-05-01T10:19:16Z</time>
      </trkpt>
      <trkpt lat="59.8538821" lon="17.5972101">
        <ele>16.9604</ele>
        <time>2012-05-01T10:19:20Z</time>
      </trkpt>
      <trkpt lat="59.8537801" lon="17.5975903">
        <ele>19.3638</ele>
        <time>2012-05-01T10:19:24Z</time>
      </trkpt>
      <trkpt lat="59.853734" lon="17.5982125">
        <ele>22.2476</ele>
        <time>2012-05-01T10:19:31Z</time>
      </trkpt>
      <trkpt lat="59.8536407" lon="17.5985613">
        <ele>24.1703</ele>
        <time>2012-05-01T10:19:36Z</time>
      </trkpt>
      <trkpt lat="59.8534782" lon="17.5986907">
        <ele>24.651</ele>
        <time>2012-05-01T10:19:40Z</time>
      </trkpt>
      <trkpt lat="59.8532637" lon="17.5988037">
        <ele>25.1317</ele>
        <time>2012-05-01T10:19:45Z</time>
      </trkpt>
      <trkpt lat="59.8529149" lon="17.5991003">
        <ele>23.6896</ele>
        <time>2012-05-01T10:19:53Z</time>
      </trkpt>
      <trkpt lat="59.8527881" lon="17.5992106">
        <ele>23.209</ele>
        <time>2012-05-01T10:19:56Z</time>
      </trkpt>
      <trkpt lat="59.852614" lon="17.59925">
        <ele>23.209</ele>
        <time>2012-05-01T10:20:00Z</time>
      </trkpt>
      <trkpt lat="59.8522712" lon="17.5992067">
        <ele>23.209</ele>
        <time>2012-05-01T10:20:07Z</time>
      </trkpt>
      <trkpt lat="59.8520623" lon="17.599245">
        <ele>24.651</ele>
        <time>2012-05-01T10:20:11Z</time>
      </trkpt>
      <trkpt lat="59.8517696" lon="17.5990488">
        <ele>25.1317</ele>
        <time>2012-05-01T10:20:17Z</time>
      </trkpt>
      <trkpt lat="59.8516383" lon="17.5989202">
        <ele>25.1317</ele>
        <time>2012-05-01T10:20:20Z</time>
      </trkpt>
      <trkpt lat="59.8512342" lon="17.598799">
        <ele>26.0929</ele>
        <time>2012-05-01T10:20:28Z</time>
      </trkpt>
      <trkpt lat="59.8510553" lon="17.5986017">
        <ele>27.0543</ele>
        <time>2012-05-01T10:20:32Z</time>
      </trkpt>
      <trkpt lat="59.8509855" lon="17.5984622">
        <ele>27.5349</ele>
        <time>2012-05-01T10:20:34Z</time>
      </trkpt>
      <trkpt lat="59.8508421" lon="17.5982337">
        <ele>28.4962</ele>
        <time>2012-05-01T10:20:39Z</time>
      </trkpt>
      <trkpt lat="59.8507144" lon="17.5980793">
        <ele>28.0155</ele>
        <time>2012-05-01T10:20:44Z</time>
      </trkpt>
      <trkpt lat="59.8504542" lon="17.5978669">
        <ele>26.5736</ele>
        <time>2012-05-01T10:20:50Z</time>
      </trkpt>
      <trkpt lat="59.8501463" lon="17.5977681">
        <ele>28.0155</ele>
        <time>2012-05-01T10:20:56Z</time>
      </trkpt>
      <trkpt lat="59.8500101" lon="17.5977682">
        <ele>28.4962</ele>
        <time>2012-05-01T10:20:59Z</time>
      </trkpt>
      <trkpt lat="59.8497744" lon="17.5978505">
        <ele>29.4575</ele>
        <time>2012-05-01T10:21:04Z</time>
      </trkpt>
      <trkpt lat="59.8494976" lon="17.5977557">
        <ele>28.4962</ele>
        <time>2012-05-01T10:21:09Z</time>
      </trkpt>
      <trkpt lat="59.8493836" lon="17.5976682">
        <ele>28.4962</ele>
        <time>2012-05-01T10:21:11Z</time>
      </trkpt>
      <trkpt lat="59.8489103" lon="17.5975289">
        <ele>29.4575</ele>
        <time>2012-05-01T10:21:19Z</time>
      </trkpt>
      <trkpt lat="59.8488615" lon="17.5975221">
        <ele>29.4575</ele>
        <time>2012-05-01T10:21:20Z</time>
      </trkpt>
      <trkpt lat="59.8487025" lon="17.5977013">
        <ele>28.9769</ele>
        <time>2012-05-01T10:21:24Z</time>
      </trkpt>
      <trkpt lat="59.8485681" lon="17.5980094">
        <ele>28.4962</ele>
        <time>2012-05-01T10:21:28Z</time>
      </trkpt>
      <trkpt lat="59.8485178" lon="17.5981646">
        <ele>28.4962</ele>
        <time>2012-05-01T10:21:30Z</time>
      </trkpt>
      <trkpt lat="59.8483759" lon="17.598179">
        <ele>27.5349</ele>
        <time>2012-05-01T10:21:34Z</time>
      </trkpt>
      <trkpt lat="59.8481297" lon="17.5980884">
        <ele>26.5736</ele>
        <time>2012-05-01T10:21:39Z</time>
      </trkpt>
      <trkpt lat="59.847964" lon="17.5982448">
        <ele>24.1703</ele>
        <time>2012-05-01T10:21:42Z</time>
      </trkpt>
      <trkpt lat="59.8478674" lon="17.5982634">
        <ele>24.1703</ele>
        <time>2012-05-01T10:21:43Z</time>
      </trkpt>
      <trkpt lat="59.8472573" lon="17.5983618">
        <ele>24.651</ele>
        <time>2012-05-01T10:21:49Z</time>
      </trkpt>
      <trkpt lat="59.8469943" lon="17.5984647">
        <ele>23.209</ele>
        <time>2012-05-01T10:21:53Z</time>
      </trkpt>
      <trkpt lat="59.8469346" lon="17.5986446">
        <ele>22.7283</ele>
        <time>2012-05-01T10:21:55Z</time>
      </trkpt>
      <trkpt lat="59.8467668" lon="17.5991596">
        <ele>21.767</ele>
        <time>2012-05-01T10:22:01Z</time>
      </trkpt>
      <trkpt lat="59.8466164" lon="17.599284">
        <ele>20.8057</ele>
        <time>2012-05-01T10:22:05Z</time>
      </trkpt>
      <trkpt lat="59.8465512" lon="17.5990739">
        <ele>19.8444</ele>
        <time>2012-05-01T10:22:08Z</time>
      </trkpt>
      <trkpt lat="59.8464631" lon="17.5983628">
        <ele>17.4412</ele>
        <time>2012-05-01T10:22:15Z</time>
      </trkpt>
      <trkpt lat="59.8463472" lon="17.5975064">
        <ele>15.5184</ele>
        <time>2012-05-01T10:22:23Z</time>
      </trkpt>
      <trkpt lat="59.8462033" lon="17.5964724">
        <ele>14.0764</ele>
        <time>2012-05-01T10:22:32Z</time>
      </trkpt>
      <trkpt lat="59.8460758" lon="17.5955144">
        <ele>13.1151</ele>
        <time>2012-05-01T10:22:40Z</time>
      </trkpt>
      <trkpt lat="59.846022" lon="17.5951316">
        <ele>12.6344</ele>
        <time>2012-05-01T10:22:43Z</time>
      </trkpt>
      <trkpt lat="59.8459915" lon="17.5947508">
        <ele>12.6344</ele>
        <time>2012-05-01T10:22:46Z</time>
      </trkpt>
      <trkpt lat="59.8459228" lon="17.5942865">
        <ele>12.6344</ele>
        <time>2012-05-01T10:22:50Z</time>
      </trkpt>
      <trkpt lat="59.8458184" lon="17.5933961">
        <ele>12.6344</ele>
        <time>2012-05-01T10:22:58Z</time>
      </trkpt>
      <trkpt lat="59.8456655" lon="17.5922786">
        <ele>12.1538</ele>
        <time>2012-05-01T10:23:07Z</time>
      </trkpt>
      <trkpt lat="59.8455625" lon="17.5914899">
        <ele>11.6732</ele>
        <time>2012-05-01T10:23:14Z</time>
      </trkpt>
      <trkpt lat="59.8455273" lon="17.5912128">
        <ele>11.6732</ele>
        <time>2012-05-01T10:23:18Z</time>
      </trkpt>
      <trkpt lat="59.8454633" lon="17.5909368">
        <ele>12.1538</ele>
        <time>2012-05-01T10:23:22Z</time>
      </trkpt>
      <trkpt lat="59.845354" lon="17.5902104">
        <ele>12.1538</ele>
        <time>2012-05-01T10:23:29Z</time>
      </trkpt>
      <trkpt lat="59.8452236" lon="17.5894122">
        <ele>12.1538</ele>
        <time>2012-05-01T10:23:36Z</time>
      </trkpt>
      <trkpt lat="59.8450925" lon="17.5886946">
        <ele>11.6732</ele>
        <time>2012-05-01T10:23:43Z</time>
      </trkpt>
      <trkpt lat="59.844899" lon="17.5876536">
        <ele>10.7118</ele>
        <time>2012-05-01T10:23:53Z</time>
      </trkpt>
      <trkpt lat="59.844727" lon="17.5867641">
        <ele>10.7118</ele>
        <time>2012-05-01T10:24:02Z</time>
      </trkpt>
      <trkpt lat="59.8445771" lon="17.5859715">
        <ele>10.2312</ele>
        <time>2012-05-01T10:24:10Z</time>
      </trkpt>
      <trkpt lat="59.8444555" lon="17.5853027">
        <ele>9.75061</ele>
        <time>2012-05-01T10:24:17Z</time>
      </trkpt>
      <trkpt lat="59.8443255" lon="17.5846513">
        <ele>10.2312</ele>
        <time>2012-05-01T10:24:24Z</time>
      </trkpt>
      <trkpt lat="59.844194" lon="17.5840037">
        <ele>11.1925</ele>
        <time>2012-05-01T10:24:31Z</time>
      </trkpt>
      <trkpt lat="59.8440187" lon="17.5831857">
        <ele>12.6344</ele>
        <time>2012-05-01T10:24:40Z</time>
      </trkpt>
      <trkpt lat="59.8439485" lon="17.5829137">
        <ele>13.1151</ele>
        <time>2012-05-01T10:24:43Z</time>
      </trkpt>
      <trkpt lat="59.843908" lon="17.5827164">
        <ele>13.1151</ele>
        <time>2012-05-01T10:24:45Z</time>
      </trkpt>
      <trkpt lat="59.8437294" lon="17.5820181">
        <ele>13.5958</ele>
        <time>2012-05-01T10:24:53Z</time>
      </trkpt>
      <trkpt lat="59.8435079" lon="17.5812378">
        <ele>14.557</ele>
        <time>2012-05-01T10:25:02Z</time>
      </trkpt>
      <trkpt lat="59.8433024" lon="17.5806286">
        <ele>14.557</ele>
        <time>2012-05-01T10:25:09Z</time>
      </trkpt>
      <trkpt lat="59.8430698" lon="17.5799251">
        <ele>15.5184</ele>
        <time>2012-05-01T10:25:17Z</time>
      </trkpt>
      <trkpt lat="59.8428117" lon="17.5791317">
        <ele>15.999</ele>
        <time>2012-05-01T10:25:26Z</time>
      </trkpt>
      <trkpt lat="59.8425415" lon="17.5781813">
        <ele>15.5184</ele>
        <time>2012-05-01T10:25:36Z</time>
      </trkpt>
      <trkpt lat="59.8423203" lon="17.577265">
        <ele>14.557</ele>
        <time>2012-05-01T10:25:45Z</time>
      </trkpt>
      <trkpt lat="59.8421545" lon="17.5762868">
        <ele>14.0764</ele>
        <time>2012-05-01T10:25:54Z</time>
      </trkpt>
      <trkpt lat="59.8420396" lon="17.5755378">
        <ele>14.0764</ele>
        <time>2012-05-01T10:26:01Z</time>
      </trkpt>
      <trkpt lat="59.8419143" lon="17.5746629">
        <ele>14.557</ele>
        <time>2012-05-01T10:26:09Z</time>
      </trkpt>
      <trkpt lat="59.8417427" lon="17.5736624">
        <ele>15.999</ele>
        <time>2012-05-01T10:26:19Z</time>
      </trkpt>
      <trkpt lat="59.8415967" lon="17.5729018">
        <ele>16.4797</ele>
        <time>2012-05-01T10:26:27Z</time>
      </trkpt>
      <trkpt lat="59.8414022" lon="17.5719095">
        <ele>15.999</ele>
        <time>2012-05-01T10:26:38Z</time>
      </trkpt>
      <trkpt lat="59.8412695" lon="17.5712566">
        <ele>16.9604</ele>
        <time>2012-05-01T10:26:45Z</time>
      </trkpt>
      <trkpt lat="59.8411175" lon="17.5705083">
        <ele>17.4412</ele>
        <time>2012-05-01T10:26:53Z</time>
      </trkpt>
      <trkpt lat="59.8409518" lon="17.5696906">
        <ele>19.3638</ele>
        <time>2012-05-01T10:27:02Z</time>
      </trkpt>
      <trkpt lat="59.8407911" lon="17.5688715">
        <ele>18.4023</ele>
        <time>2012-05-01T10:27:11Z</time>
      </trkpt>
      <trkpt lat="59.8406534" lon="17.5682671">
        <ele>16.9604</ele>
        <time>2012-05-01T10:27:18Z</time>
      </trkpt>
      <trkpt lat="59.840545" lon="17.5677122">
        <ele>17.4412</ele>
        <time>2012-05-01T10:27:24Z</time>
      </trkpt>
      <trkpt lat="59.8403763" lon="17.566857">
        <ele>17.9218</ele>
        <time>2012-05-01T10:27:33Z</time>
      </trkpt>
      <trkpt lat="59.8402502" lon="17.5662091">
        <ele>18.4023</ele>
        <time>2012-05-01T10:27:40Z</time>
      </trkpt>
      <trkpt lat="59.8400608" lon="17.5652368">
        <ele>17.4412</ele>
        <time>2012-05-01T10:27:50Z</time>
      </trkpt>
      <trkpt lat="59.8398704" lon="17.5642802">
        <ele>17.4412</ele>
        <time>2012-05-01T10:28:00Z</time>
      </trkpt>
      <trkpt lat="59.8397032" lon="17.5632904">
        <ele>16.9604</ele>
        <time>2012-05-01T10:28:11Z</time>
      </trkpt>
      <trkpt lat="59.8396443" lon="17.5628242">
        <ele>16.9604</ele>
        <time>2012-05-01T10:28:16Z</time>
      </trkpt>
      <trkpt lat="59.8395386" lon="17.5619873">
        <ele>17.4412</ele>
        <time>2012-05-01T10:28:25Z</time>
      </trkpt>
      <trkpt lat="59.8394953" lon="17.561541">
        <ele>18.4023</ele>
        <time>2012-05-01T10:28:30Z</time>
      </trkpt>
      <trkpt lat="59.8394266" lon="17.5607377">
        <ele>19.8444</ele>
        <time>2012-05-01T10:28:39Z</time>
      </trkpt>
      <trkpt lat="59.8394001" lon="17.560127">
        <ele>20.8057</ele>
        <time>2012-05-01T10:28:46Z</time>
      </trkpt>
      <trkpt lat="59.8393546" lon="17.5593353">
        <ele>22.7283</ele>
        <time>2012-05-01T10:28:55Z</time>
      </trkpt>
      <trkpt lat="59.8393431" lon="17.5584994">
        <ele>22.7283</ele>
        <time>2012-05-01T10:29:04Z</time>
      </trkpt>
      <trkpt lat="59.8393458" lon="17.5573944">
        <ele>22.7283</ele>
        <time>2012-05-01T10:29:15Z</time>
      </trkpt>
      <trkpt lat="59.8393534" lon="17.556441">
        <ele>22.2476</ele>
        <time>2012-05-01T10:29:24Z</time>
      </trkpt>
      <trkpt lat="59.8393617" lon="17.5555212">
        <ele>22.7283</ele>
        <time>2012-05-01T10:29:33Z</time>
      </trkpt>
      <trkpt lat="59.8393366" lon="17.5544335">
        <ele>23.209</ele>
        <time>2012-05-01T10:29:44Z</time>
      </trkpt>
      <trkpt lat="59.8392848" lon="17.5536591">
        <ele>24.1703</ele>
        <time>2012-05-01T10:29:52Z</time>
      </trkpt>
      <trkpt lat="59.8392091" lon="17.5529902">
        <ele>23.209</ele>
        <time>2012-05-01T10:29:59Z</time>
      </trkpt>
      <trkpt lat="59.8390802" lon="17.552089">
        <ele>22.2476</ele>
        <time>2012-05-01T10:30:08Z</time>
      </trkpt>
      <trkpt lat="59.8389501" lon="17.5514059">
        <ele>20.325</ele>
        <time>2012-05-01T10:30:15Z</time>
      </trkpt>
      <trkpt lat="59.8387399" lon="17.5505173">
        <ele>21.2864</ele>
        <time>2012-05-01T10:30:24Z</time>
      </trkpt>
      <trkpt lat="59.8386878" lon="17.550326">
        <ele>21.2864</ele>
        <time>2012-05-01T10:30:26Z</time>
      </trkpt>
      <trkpt lat="59.8386476" lon="17.5501408">
        <ele>21.767</ele>
        <time>2012-05-01T10:30:28Z</time>
      </trkpt>
      <trkpt lat="59.8384273" lon="17.5494021">
        <ele>26.0929</ele>
        <time>2012-05-01T10:30:36Z</time>
      </trkpt>
      <trkpt lat="59.8382974" lon="17.5490502">
        <ele>28.4962</ele>
        <time>2012-05-01T10:30:40Z</time>
      </trkpt>
      <trkpt lat="59.8380278" lon="17.5483718">
        <ele>29.4575</ele>
        <time>2012-05-01T10:30:48Z</time>
      </trkpt>
      <trkpt lat="59.8377359" lon="17.5476699">
        <ele>29.4575</ele>
        <time>2012-05-01T10:30:56Z</time>
      </trkpt>
      <trkpt lat="59.8374344" lon="17.5469705">
        <ele>28.9769</ele>
        <time>2012-05-01T10:31:04Z</time>
      </trkpt>
      <trkpt lat="59.8371193" lon="17.546231">
        <ele>30.4188</ele>
        <time>2012-05-01T10:31:12Z</time>
      </trkpt>
      <trkpt lat="59.8367623" lon="17.545398">
        <ele>30.4188</ele>
        <time>2012-05-01T10:31:21Z</time>
      </trkpt>
      <trkpt lat="59.836474" lon="17.5447177">
        <ele>30.4188</ele>
        <time>2012-05-01T10:31:28Z</time>
      </trkpt>
      <trkpt lat="59.8362008" lon="17.5440651">
        <ele>29.4575</ele>
        <time>2012-05-01T10:31:35Z</time>
      </trkpt>
      <trkpt lat="59.8359279" lon="17.5434108">
        <ele>27.5349</ele>
        <time>2012-05-01T10:31:42Z</time>
      </trkpt>
      <trkpt lat="59.8356753" lon="17.5426629">
        <ele>26.5736</ele>
        <time>2012-05-01T10:31:49Z</time>
      </trkpt>
      <trkpt lat="59.8354017" lon="17.541758">
        <ele>27.5349</ele>
        <time>2012-05-01T10:31:57Z</time>
      </trkpt>
      <trkpt lat="59.8351853" lon="17.5407819">
        <ele>28.9769</ele>
        <time>2012-05-01T10:32:06Z</time>
      </trkpt>
      <trkpt lat="59.8350312" lon="17.5398301">
        <ele>28.9769</ele>
        <time>2012-05-01T10:32:15Z</time>
      </trkpt>
      <trkpt lat="59.8349195" lon="17.5388834">
        <ele>29.4575</ele>
        <time>2012-05-01T10:32:24Z</time>
      </trkpt>
      <trkpt lat="59.8348011" lon="17.5377322">
        <ele>30.4188</ele>
        <time>2012-05-01T10:32:35Z</time>
      </trkpt>
      <trkpt lat="59.8346944" lon="17.5367512">
        <ele>28.9769</ele>
        <time>2012-05-01T10:32:44Z</time>
      </trkpt>
      <trkpt lat="59.8345842" lon="17.5357019">
        <ele>27.0543</ele>
        <time>2012-05-01T10:32:53Z</time>
      </trkpt>
      <trkpt lat="59.8345" lon="17.5349068">
        <ele>25.6123</ele>
        <time>2012-05-01T10:33:00Z</time>
      </trkpt>
      <trkpt lat="59.8343957" lon="17.5338891">
        <ele>23.6896</ele>
        <time>2012-05-01T10:33:09Z</time>
      </trkpt>
      <trkpt lat="59.8342984" lon="17.5331102">
        <ele>22.2476</ele>
        <time>2012-05-01T10:33:16Z</time>
      </trkpt>
      <trkpt lat="59.8341906" lon="17.5320856">
        <ele>21.767</ele>
        <time>2012-05-01T10:33:24Z</time>
      </trkpt>
      <trkpt lat="59.8341114" lon="17.5311111">
        <ele>22.2476</ele>
        <time>2012-05-01T10:33:31Z</time>
      </trkpt>
      <trkpt lat="59.8340376" lon="17.5301559">
        <ele>24.1703</ele>
        <time>2012-05-01T10:33:38Z</time>
      </trkpt>
      <trkpt lat="59.8339807" lon="17.5286133">
        <ele>24.651</ele>
        <time>2012-05-01T10:33:49Z</time>
      </trkpt>
      <trkpt lat="59.8339732" lon="17.5273425">
        <ele>23.6896</ele>
        <time>2012-05-01T10:33:58Z</time>
      </trkpt>
      <trkpt lat="59.8339679" lon="17.526117">
        <ele>22.7283</ele>
        <time>2012-05-01T10:34:07Z</time>
      </trkpt>
      <trkpt lat="59.8339628" lon="17.5248076">
        <ele>22.7283</ele>
        <time>2012-05-01T10:34:17Z</time>
      </trkpt>
      <trkpt lat="59.8339544" lon="17.523681">
        <ele>21.2864</ele>
        <time>2012-05-01T10:34:26Z</time>
      </trkpt>
      <trkpt lat="59.833945" lon="17.522534">
        <ele>17.9218</ele>
        <time>2012-05-01T10:34:35Z</time>
      </trkpt>
      <trkpt lat="59.833943" lon="17.5214423">
        <ele>15.999</ele>
        <time>2012-05-01T10:34:43Z</time>
      </trkpt>
      <trkpt lat="59.8339415" lon="17.5211758">
        <ele>15.5184</ele>
        <time>2012-05-01T10:34:45Z</time>
      </trkpt>
      <trkpt lat="59.8339012" lon="17.5200473">
        <ele>14.0764</ele>
        <time>2012-05-01T10:34:54Z</time>
      </trkpt>
      <trkpt lat="59.8338937" lon="17.5199179">
        <ele>14.0764</ele>
        <time>2012-05-01T10:34:55Z</time>
      </trkpt>
      <trkpt lat="59.8338073" lon="17.519154">
        <ele>13.1151</ele>
        <time>2012-05-01T10:35:01Z</time>
      </trkpt>
      <trkpt lat="59.8336845" lon="17.5182603">
        <ele>11.1925</ele>
        <time>2012-05-01T10:35:08Z</time>
      </trkpt>
      <trkpt lat="59.8335061" lon="17.5173811">
        <ele>6.86646</ele>
        <time>2012-05-01T10:35:16Z</time>
      </trkpt>
      <trkpt lat="59.8333642" lon="17.5167069">
        <ele>7.34717</ele>
        <time>2012-05-01T10:35:23Z</time>
      </trkpt>
      <trkpt lat="59.8332369" lon="17.5161857">
        <ele>9.75061</ele>
        <time>2012-05-01T10:35:29Z</time>
      </trkpt>
      <trkpt lat="59.8330018" lon="17.5154657">
        <ele>7.82788</ele>
        <time>2012-05-01T10:35:37Z</time>
      </trkpt>
      <trkpt lat="59.8327182" lon="17.5147351">
        <ele>5.90527</ele>
        <time>2012-05-01T10:35:45Z</time>
      </trkpt>
      <trkpt lat="59.8324113" lon="17.5140779">
        <ele>4.94385</ele>
        <time>2012-05-01T10:35:52Z</time>
      </trkpt>
      <trkpt lat="59.832055" lon="17.5133259">
        <ele>4.46326</ele>
        <time>2012-05-01T10:36:00Z</time>
      </trkpt>
      <trkpt lat="59.831743" lon="17.5126322">
        <ele>3.98267</ele>
        <time>2012-05-01T10:36:07Z</time>
      </trkpt>
      <trkpt lat="59.8314113" lon="17.5118147">
        <ele>4.94385</ele>
        <time>2012-05-01T10:36:15Z</time>
      </trkpt>
      <trkpt lat="59.8311288" lon="17.5110585">
        <ele>12.1538</ele>
        <time>2012-05-01T10:36:22Z</time>
      </trkpt>
      <trkpt lat="59.8307956" lon="17.5102407">
        <ele>17.4412</ele>
        <time>2012-05-01T10:36:30Z</time>
      </trkpt>
      <trkpt lat="59.8304471" lon="17.5093569">
        <ele>20.325</ele>
        <time>2012-05-01T10:36:39Z</time>
      </trkpt>
      <trkpt lat="59.8301014" lon="17.5084959">
        <ele>22.7283</ele>
        <time>2012-05-01T10:36:48Z</time>
      </trkpt>
      <trkpt lat="59.8296573" lon="17.5074993">
        <ele>25.6123</ele>
        <time>2012-05-01T10:36:59Z</time>
      </trkpt>
      <trkpt lat="59.8293263" lon="17.5068954">
        <ele>27.5349</ele>
        <time>2012-05-01T10:37:07Z</time>
      </trkpt>
      <trkpt lat="59.8289637" lon="17.5063392">
        <ele>26.0929</ele>
        <time>2012-05-01T10:37:16Z</time>
      </trkpt>
      <trkpt lat="59.8285857" lon="17.5058744">
        <ele>26.0929</ele>
        <time>2012-05-01T10:37:25Z</time>
      </trkpt>
      <trkpt lat="59.8281832" lon="17.5054546">
        <ele>25.1317</ele>
        <time>2012-05-01T10:37:34Z</time>
      </trkpt>
      <trkpt lat="59.827784" lon="17.5050309">
        <ele>25.6123</ele>
        <time>2012-05-01T10:37:43Z</time>
      </trkpt>
      <trkpt lat="59.8274618" lon="17.5046935">
        <ele>26.0929</ele>
        <time>2012-05-01T10:37:50Z</time>
      </trkpt>
      <trkpt lat="59.8270751" lon="17.5043243">
        <ele>27.0543</ele>
        <time>2012-05-01T10:37:58Z</time>
      </trkpt>
      <trkpt lat="59.8266948" lon="17.503964">
        <ele>26.5736</ele>
        <time>2012-05-01T10:38:06Z</time>
      </trkpt>
      <trkpt lat="59.826253" lon="17.5035163">
        <ele>25.6123</ele>
        <time>2012-05-01T10:38:15Z</time>
      </trkpt>
      <trkpt lat="59.8258644" lon="17.503147">
        <ele>27.0543</ele>
        <time>2012-05-01T10:38:22Z</time>
      </trkpt>
      <trkpt lat="59.8253336" lon="17.502616">
        <ele>25.6123</ele>
        <time>2012-05-01T10:38:32Z</time>
      </trkpt>
      <trkpt lat="59.825067" lon="17.5023599">
        <ele>24.651</ele>
        <time>2012-05-01T10:38:37Z</time>
      </trkpt>
      <trkpt lat="59.8246254" lon="17.5019233">
        <ele>22.7283</ele>
        <time>2012-05-01T10:38:45Z</time>
      </trkpt>
      <trkpt lat="59.8242371" lon="17.5015204">
        <ele>20.325</ele>
        <time>2012-05-01T10:38:52Z</time>
      </trkpt>
      <trkpt lat="59.8238245" lon="17.5011306">
        <ele>20.325</ele>
        <time>2012-05-01T10:38:59Z</time>
      </trkpt>
      <trkpt lat="59.8234658" lon="17.5007826">
        <ele>19.3638</ele>
        <time>2012-05-01T10:39:05Z</time>
      </trkpt>
      <trkpt lat="59.8229568" lon="17.5003341">
        <ele>17.4412</ele>
        <time>2012-05-01T10:39:13Z</time>
      </trkpt>
      <trkpt lat="59.822544" lon="17.4999761">
        <ele>17.9218</ele>
        <time>2012-05-01T10:39:19Z</time>
      </trkpt>
      <trkpt lat="59.8219225" lon="17.4994318">
        <ele>18.8831</ele>
        <time>2012-05-01T10:39:28Z</time>
      </trkpt>
      <trkpt lat="59.8212646" lon="17.498868">
        <ele>19.8444</ele>
        <time>2012-05-01T10:39:38Z</time>
      </trkpt>
      <trkpt lat="59.8206074" lon="17.4983117">
        <ele>20.325</ele>
        <time>2012-05-01T10:39:48Z</time>
      </trkpt>
      <trkpt lat="59.8201062" lon="17.4978524">
        <ele>19.8444</ele>
        <time>2012-05-01T10:39:56Z</time>
      </trkpt>
      <trkpt lat="59.8196752" lon="17.4975011">
        <ele>20.325</ele>
        <time>2012-05-01T10:40:03Z</time>
      </trkpt>
      <trkpt lat="59.8191458" lon="17.4970736">
        <ele>20.325</ele>
        <time>2012-05-01T10:40:12Z</time>
      </trkpt>
      <trkpt lat="59.8189299" lon="17.4968928">
        <ele>20.8057</ele>
        <time>2012-05-01T10:40:16Z</time>
      </trkpt>
      <trkpt lat="59.8183901" lon="17.4964452">
        <ele>19.8444</ele>
        <time>2012-05-01T10:40:26Z</time>
      </trkpt>
      <trkpt lat="59.8181207" lon="17.4961766">
        <ele>18.8831</ele>
        <time>2012-05-01T10:40:32Z</time>
      </trkpt>
      <trkpt lat="59.8176651" lon="17.495775">
        <ele>17.9218</ele>
        <time>2012-05-01T10:40:40Z</time>
      </trkpt>
      <trkpt lat="59.8171619" lon="17.4953373">
        <ele>16.4797</ele>
        <time>2012-05-01T10:40:48Z</time>
      </trkpt>
      <trkpt lat="59.8165772" lon="17.4948239">
        <ele>15.999</ele>
        <time>2012-05-01T10:40:57Z</time>
      </trkpt>
      <trkpt lat="59.816077" lon="17.4943921">
        <ele>15.5184</ele>
        <time>2012-05-01T10:41:05Z</time>
      </trkpt>
      <trkpt lat="59.8153232" lon="17.4937281">
        <ele>15.0377</ele>
        <time>2012-05-01T10:41:17Z</time>
      </trkpt>
      <trkpt lat="59.8147387" lon="17.4931321">
        <ele>15.5184</ele>
        <time>2012-05-01T10:41:27Z</time>
      </trkpt>
      <trkpt lat="59.8142021" lon="17.4924895">
        <ele>16.4797</ele>
        <time>2012-05-01T10:41:37Z</time>
      </trkpt>
      <trkpt lat="59.813681" lon="17.4918553">
        <ele>17.4412</ele>
        <time>2012-05-01T10:41:47Z</time>
      </trkpt>
      <trkpt lat="59.8132871" lon="17.491359">
        <ele>17.4412</ele>
        <time>2012-05-01T10:41:55Z</time>
      </trkpt>
      <trkpt lat="59.8128968" lon="17.4909052">
        <ele>21.2864</ele>
        <time>2012-05-01T10:42:03Z</time>
      </trkpt>
      <trkpt lat="59.8127021" lon="17.4906754">
        <ele>21.767</ele>
        <time>2012-05-01T10:42:08Z</time>
      </trkpt>
      <trkpt lat="59.8124078" lon="17.4903303">
        <ele>21.2864</ele>
        <time>2012-05-01T10:42:15Z</time>
      </trkpt>
      <trkpt lat="59.8119183" lon="17.4897347">
        <ele>20.325</ele>
        <time>2012-05-01T10:42:25Z</time>
      </trkpt>
      <trkpt lat="59.8114089" lon="17.4891053">
        <ele>19.3638</ele>
        <time>2012-05-01T10:42:35Z</time>
      </trkpt>
      <trkpt lat="59.8108972" lon="17.4884795">
        <ele>18.4023</ele>
        <time>2012-05-01T10:42:45Z</time>
      </trkpt>
      <trkpt lat="59.8103504" lon="17.4878235">
        <ele>18.4023</ele>
        <time>2012-05-01T10:42:55Z</time>
      </trkpt>
      <trkpt lat="59.8099673" lon="17.4873163">
        <ele>16.9604</ele>
        <time>2012-05-01T10:43:02Z</time>
      </trkpt>
      <trkpt lat="59.8095314" lon="17.4866975">
        <ele>16.9604</ele>
        <time>2012-05-01T10:43:10Z</time>
      </trkpt>
      <trkpt lat="59.8091175" lon="17.4860193">
        <ele>16.9604</ele>
        <time>2012-05-01T10:43:18Z</time>
      </trkpt>
      <trkpt lat="59.8086838" lon="17.4851861">
        <ele>16.4797</ele>
        <time>2012-05-01T10:43:27Z</time>
      </trkpt>
      <trkpt lat="59.8083538" lon="17.4844975">
        <ele>17.4412</ele>
        <time>2012-05-01T10:43:34Z</time>
      </trkpt>
      <trkpt lat="59.8080428" lon="17.4838205">
        <ele>17.4412</ele>
        <time>2012-05-01T10:43:41Z</time>
      </trkpt>
      <trkpt lat="59.8075292" lon="17.4826981">
        <ele>18.4023</ele>
        <time>2012-05-01T10:43:53Z</time>
      </trkpt>
      <trkpt lat="59.8071366" lon="17.4818614">
        <ele>19.3638</ele>
        <time>2012-05-01T10:44:02Z</time>
      </trkpt>
      <trkpt lat="59.8067371" lon="17.4809969">
        <ele>19.8444</ele>
        <time>2012-05-01T10:44:11Z</time>
      </trkpt>
      <trkpt lat="59.8063367" lon="17.4801545">
        <ele>20.8057</ele>
        <time>2012-05-01T10:44:20Z</time>
      </trkpt>
      <trkpt lat="59.8059436" lon="17.4793089">
        <ele>21.2864</ele>
        <time>2012-05-01T10:44:29Z</time>
      </trkpt>
      <trkpt lat="59.8055222" lon="17.4783771">
        <ele>21.767</ele>
        <time>2012-05-01T10:44:39Z</time>
      </trkpt>
      <trkpt lat="59.8051458" lon="17.4774884">
        <ele>21.2864</ele>
        <time>2012-05-01T10:44:48Z</time>
      </trkpt>
      <trkpt lat="59.8047417" lon="17.4764574">
        <ele>20.8057</ele>
        <time>2012-05-01T10:44:58Z</time>
      </trkpt>
      <trkpt lat="59.8043671" lon="17.4754444">
        <ele>20.8057</ele>
        <time>2012-05-01T10:45:08Z</time>
      </trkpt>
      <trkpt lat="59.8041264" lon="17.4748475">
        <ele>20.325</ele>
        <time>2012-05-01T10:45:14Z</time>
      </trkpt>
      <trkpt lat="59.8039073" lon="17.4742543">
        <ele>17.9218</ele>
        <time>2012-05-01T10:45:20Z</time>
      </trkpt>
      <trkpt lat="59.8036791" lon="17.4736509">
        <ele>16.4797</ele>
        <time>2012-05-01T10:45:26Z</time>
      </trkpt>
      <trkpt lat="59.8034104" lon="17.4729437">
        <ele>13.5958</ele>
        <time>2012-05-01T10:45:33Z</time>
      </trkpt>
      <trkpt lat="59.8030599" lon="17.4719612">
        <ele>11.1925</ele>
        <time>2012-05-01T10:45:43Z</time>
      </trkpt>
      <trkpt lat="59.8027767" lon="17.4711898">
        <ele>11.6732</ele>
        <time>2012-05-01T10:45:51Z</time>
      </trkpt>
      <trkpt lat="59.8025257" lon="17.4705149">
        <ele>10.7118</ele>
        <time>2012-05-01T10:45:58Z</time>
      </trkpt>
      <trkpt lat="59.8022418" lon="17.4696936">
        <ele>9.75061</ele>
        <time>2012-05-01T10:46:06Z</time>
      </trkpt>
      <trkpt lat="59.8018741" lon="17.4685836">
        <ele>9.75061</ele>
        <time>2012-05-01T10:46:16Z</time>
      </trkpt>
      <trkpt lat="59.8015631" lon="17.4676009">
        <ele>10.2312</ele>
        <time>2012-05-01T10:46:25Z</time>
      </trkpt>
      <trkpt lat="59.8011271" lon="17.4662381">
        <ele>10.2312</ele>
        <time>2012-05-01T10:46:37Z</time>
      </trkpt>
      <trkpt lat="59.8008143" lon="17.4652483">
        <ele>11.1925</ele>
        <time>2012-05-01T10:46:46Z</time>
      </trkpt>
      <trkpt lat="59.8004988" lon="17.4642527">
        <ele>12.1538</ele>
        <time>2012-05-01T10:46:55Z</time>
      </trkpt>
      <trkpt lat="59.8000969" lon="17.4629882">
        <ele>12.1538</ele>
        <time>2012-05-01T10:47:06Z</time>
      </trkpt>
      <trkpt lat="59.7998118" lon="17.4621058">
        <ele>12.6344</ele>
        <time>2012-05-01T10:47:14Z</time>
      </trkpt>
      <trkpt lat="59.7994179" lon="17.4610353">
        <ele>12.1538</ele>
        <time>2012-05-01T10:47:24Z</time>
      </trkpt>
      <trkpt lat="59.7990307" lon="17.460103">
        <ele>13.1151</ele>
        <time>2012-05-01T10:47:33Z</time>
      </trkpt>
      <trkpt lat="59.7985856" lon="17.4590864">
        <ele>13.1151</ele>
        <time>2012-05-01T10:47:43Z</time>
      </trkpt>
      <trkpt lat="59.7980191" lon="17.457831">
        <ele>13.5958</ele>
        <time>2012-05-01T10:47:55Z</time>
      </trkpt>
      <trkpt lat="59.7976811" lon="17.4570932">
        <ele>15.0377</ele>
        <time>2012-05-01T10:48:02Z</time>
      </trkpt>
      <trkpt lat="59.7972969" lon="17.456252">
        <ele>16.9604</ele>
        <time>2012-05-01T10:48:10Z</time>
      </trkpt>
      <trkpt lat="59.7969101" lon="17.4554033">
        <ele>16.4797</ele>
        <time>2012-05-01T10:48:18Z</time>
      </trkpt>
      <trkpt lat="59.7965831" lon="17.4546833">
        <ele>15.999</ele>
        <time>2012-05-01T10:48:25Z</time>
      </trkpt>
      <trkpt lat="59.7961173" lon="17.4536325">
        <ele>15.999</ele>
        <time>2012-05-01T10:48:35Z</time>
      </trkpt>
      <trkpt lat="59.7957302" lon="17.4527793">
        <ele>14.557</ele>
        <time>2012-05-01T10:48:43Z</time>
      </trkpt>
      <trkpt lat="59.7952485" lon="17.4517066">
        <ele>14.557</ele>
        <time>2012-05-01T10:48:53Z</time>
      </trkpt>
      <trkpt lat="59.794813" lon="17.4507408">
        <ele>13.1151</ele>
        <time>2012-05-01T10:49:02Z</time>
      </trkpt>
      <trkpt lat="59.7944691" lon="17.4500214">
        <ele>15.0377</ele>
        <time>2012-05-01T10:49:09Z</time>
      </trkpt>
      <trkpt lat="59.7942329" lon="17.4494925">
        <ele>14.557</ele>
        <time>2012-05-01T10:49:15Z</time>
      </trkpt>
      <trkpt lat="59.7938558" lon="17.4486544">
        <ele>13.5958</ele>
        <time>2012-05-01T10:49:23Z</time>
      </trkpt>
      <trkpt lat="59.7934886" lon="17.4478452">
        <ele>13.5958</ele>
        <time>2012-05-01T10:49:31Z</time>
      </trkpt>
      <trkpt lat="59.793014" lon="17.4467978">
        <ele>13.5958</ele>
        <time>2012-05-01T10:49:42Z</time>
      </trkpt>
      <trkpt lat="59.7925181" lon="17.4457142">
        <ele>12.6344</ele>
        <time>2012-05-01T10:49:53Z</time>
      </trkpt>
      <trkpt lat="59.7920171" lon="17.4446109">
        <ele>12.6344</ele>
        <time>2012-05-01T10:50:04Z</time>
      </trkpt>
      <trkpt lat="59.7915206" lon="17.4434753">
        <ele>12.6344</ele>
        <time>2012-05-01T10:50:15Z</time>
      </trkpt>
      <trkpt lat="59.7910001" lon="17.4421926">
        <ele>13.1151</ele>
        <time>2012-05-01T10:50:27Z</time>
      </trkpt>
      <trkpt lat="59.7906261" lon="17.44125">
        <ele>12.6344</ele>
        <time>2012-05-01T10:50:36Z</time>
      </trkpt>
      <trkpt lat="59.7902043" lon="17.4401953">
        <ele>12.1538</ele>
        <time>2012-05-01T10:50:46Z</time>
      </trkpt>
      <trkpt lat="59.7898271" lon="17.4392547">
        <ele>12.6344</ele>
        <time>2012-05-01T10:50:55Z</time>
      </trkpt>
      <trkpt lat="59.7894511" lon="17.4383152">
        <ele>12.1538</ele>
        <time>2012-05-01T10:51:04Z</time>
      </trkpt>
      <trkpt lat="59.7891534" lon="17.437584">
        <ele>12.1538</ele>
        <time>2012-05-01T10:51:11Z</time>
      </trkpt>
      <trkpt lat="59.7888583" lon="17.4368611">
        <ele>12.6344</ele>
        <time>2012-05-01T10:51:19Z</time>
      </trkpt>
      <trkpt lat="59.7884704" lon="17.4358819">
        <ele>13.5958</ele>
        <time>2012-05-01T10:51:29Z</time>
      </trkpt>
      <trkpt lat="59.7881196" lon="17.4349784">
        <ele>13.5958</ele>
        <time>2012-05-01T10:51:38Z</time>
      </trkpt>
      <trkpt lat="59.787837" lon="17.4342655">
        <ele>13.1151</ele>
        <time>2012-05-01T10:51:45Z</time>
      </trkpt>
      <trkpt lat="59.7874133" lon="17.4332214">
        <ele>12.1538</ele>
        <time>2012-05-01T10:51:55Z</time>
      </trkpt>
      <trkpt lat="59.7870095" lon="17.4322146">
        <ele>12.1538</ele>
        <time>2012-05-01T10:52:05Z</time>
      </trkpt>
      <trkpt lat="59.786528" lon="17.4310187">
        <ele>13.1151</ele>
        <time>2012-05-01T10:52:17Z</time>
      </trkpt>
      <trkpt lat="59.7861751" lon="17.4301302">
        <ele>12.1538</ele>
        <time>2012-05-01T10:52:26Z</time>
      </trkpt>
      <trkpt lat="59.785736" lon="17.4290327">
        <ele>11.6732</ele>
        <time>2012-05-01T10:52:37Z</time>
      </trkpt>
      <trkpt lat="59.7853014" lon="17.4279365">
        <ele>11.1925</ele>
        <time>2012-05-01T10:52:48Z</time>
      </trkpt>
      <trkpt lat="59.7849357" lon="17.4270197">
        <ele>10.7118</ele>
        <time>2012-05-01T10:52:57Z</time>
      </trkpt>
      <trkpt lat="59.7845135" lon="17.4259591">
        <ele>9.75061</ele>
        <time>2012-05-01T10:53:07Z</time>
      </trkpt>
      <trkpt lat="59.7841539" lon="17.4250424">
        <ele>9.75061</ele>
        <time>2012-05-01T10:53:16Z</time>
      </trkpt>
      <trkpt lat="59.7838343" lon="17.4242669">
        <ele>11.6732</ele>
        <time>2012-05-01T10:53:24Z</time>
      </trkpt>
      <trkpt lat="59.7836314" lon="17.4237429">
        <ele>27.0543</ele>
        <time>2012-05-01T10:55:01Z</time>
      </trkpt>
      <trkpt lat="59.7836133" lon="17.4237074">
        <ele>26.5736</ele>
        <time>2012-05-01T10:55:02Z</time>
      </trkpt>
      <trkpt lat="59.7834862" lon="17.423418">
        <ele>23.209</ele>
        <time>2012-05-01T10:55:06Z</time>
      </trkpt>
      <trkpt lat="59.7832609" lon="17.4228604">
        <ele>21.767</ele>
        <time>2012-05-01T10:55:13Z</time>
      </trkpt>
      <trkpt lat="59.7829149" lon="17.4219938">
        <ele>19.3638</ele>
        <time>2012-05-01T10:55:23Z</time>
      </trkpt>
      <trkpt lat="59.7825809" lon="17.4211521">
        <ele>16.9604</ele>
        <time>2012-05-01T10:55:32Z</time>
      </trkpt>
      <trkpt lat="59.7822393" lon="17.4202855">
        <ele>14.557</ele>
        <time>2012-05-01T10:55:41Z</time>
      </trkpt>
      <trkpt lat="59.7818873" lon="17.4194076">
        <ele>13.5958</ele>
        <time>2012-05-01T10:55:50Z</time>
      </trkpt>
      <trkpt lat="59.7816052" lon="17.4186881">
        <ele>13.5958</ele>
        <time>2012-05-01T10:55:58Z</time>
      </trkpt>
      <trkpt lat="59.7814187" lon="17.4181969">
        <ele>13.1151</ele>
        <time>2012-05-01T10:56:05Z</time>
      </trkpt>
      <trkpt lat="59.7814128" lon="17.4181789">
        <ele>13.1151</ele>
        <time>2012-05-01T10:56:06Z</time>
      </trkpt>
      <trkpt lat="59.7813571" lon="17.4181042">
        <ele>13.5958</ele>
        <time>2012-05-01T10:56:11Z</time>
      </trkpt>
      <trkpt lat="59.7812029" lon="17.4180976">
        <ele>14.0764</ele>
        <time>2012-05-01T10:56:15Z</time>
      </trkpt>
      <trkpt lat="59.7807874" lon="17.4182161">
        <ele>17.4412</ele>
        <time>2012-05-01T10:56:23Z</time>
      </trkpt>
      <trkpt lat="59.7803041" lon="17.4183483">
        <ele>19.8444</ele>
        <time>2012-05-01T10:56:32Z</time>
      </trkpt>
      <trkpt lat="59.7799774" lon="17.4183642">
        <ele>21.2864</ele>
        <time>2012-05-01T10:56:38Z</time>
      </trkpt>
      <trkpt lat="59.7794847" lon="17.4181374">
        <ele>23.6896</ele>
        <time>2012-05-01T10:56:47Z</time>
      </trkpt>
      <trkpt lat="59.7790244" lon="17.4177643">
        <ele>24.651</ele>
        <time>2012-05-01T10:56:56Z</time>
      </trkpt>
      <trkpt lat="59.778611" lon="17.4173382">
        <ele>23.6896</ele>
        <time>2012-05-01T10:57:05Z</time>
      </trkpt>
      <trkpt lat="59.7782288" lon="17.4167916">
        <ele>23.6896</ele>
        <time>2012-05-01T10:57:13Z</time>
      </trkpt>
      <trkpt lat="59.777803" lon="17.4159783">
        <ele>24.1703</ele>
        <time>2012-05-01T10:57:23Z</time>
      </trkpt>
      <trkpt lat="59.7775348" lon="17.415297">
        <ele>23.6896</ele>
        <time>2012-05-01T10:57:30Z</time>
      </trkpt>
      <trkpt lat="59.7772148" lon="17.4144026">
        <ele>21.767</ele>
        <time>2012-05-01T10:57:38Z</time>
      </trkpt>
      <trkpt lat="59.7768398" lon="17.4133397">
        <ele>19.8444</ele>
        <time>2012-05-01T10:57:46Z</time>
      </trkpt>
      <trkpt lat="59.7763299" lon="17.4119208">
        <ele>20.8057</ele>
        <time>2012-05-01T10:57:57Z</time>
      </trkpt>
      <trkpt lat="59.7759145" lon="17.4110148">
        <ele>19.8444</ele>
        <time>2012-05-01T10:58:05Z</time>
      </trkpt>
      <trkpt lat="59.775365" lon="17.4100005">
        <ele>17.9218</ele>
        <time>2012-05-01T10:58:14Z</time>
      </trkpt>
      <trkpt lat="59.7748277" lon="17.4090062">
        <ele>17.9218</ele>
        <time>2012-05-01T10:58:23Z</time>
      </trkpt>
      <trkpt lat="59.7743911" lon="17.4080609">
        <ele>16.4797</ele>
        <time>2012-05-01T10:58:31Z</time>
      </trkpt>
      <trkpt lat="59.7739912" lon="17.4069094">
        <ele>15.5184</ele>
        <time>2012-05-01T10:58:40Z</time>
      </trkpt>
      <trkpt lat="59.7737471" lon="17.406115">
        <ele>14.0764</ele>
        <time>2012-05-01T10:58:46Z</time>
      </trkpt>
      <trkpt lat="59.7735196" lon="17.4058408">
        <ele>13.1151</ele>
        <time>2012-05-01T10:58:50Z</time>
      </trkpt>
      <trkpt lat="59.7733339" lon="17.4059977">
        <ele>11.6732</ele>
        <time>2012-05-01T10:58:53Z</time>
      </trkpt>
      <trkpt lat="59.7728182" lon="17.4067063">
        <ele>12.6344</ele>
        <time>2012-05-01T10:59:02Z</time>
      </trkpt>
      <trkpt lat="59.7723804" lon="17.4072994">
        <ele>13.1151</ele>
        <time>2012-05-01T10:59:10Z</time>
      </trkpt>
      <trkpt lat="59.7719637" lon="17.407858">
        <ele>14.0764</ele>
        <time>2012-05-01T10:59:18Z</time>
      </trkpt>
      <trkpt lat="59.7715198" lon="17.4084449">
        <ele>16.4797</ele>
        <time>2012-05-01T10:59:27Z</time>
      </trkpt>
      <trkpt lat="59.7710779" lon="17.4090219">
        <ele>16.4797</ele>
        <time>2012-05-01T10:59:36Z</time>
      </trkpt>
      <trkpt lat="59.7704578" lon="17.4098418">
        <ele>16.4797</ele>
        <time>2012-05-01T10:59:48Z</time>
      </trkpt>
      <trkpt lat="59.7699668" lon="17.4105034">
        <ele>17.4412</ele>
        <time>2012-05-01T10:59:58Z</time>
      </trkpt>
      <trkpt lat="59.7695269" lon="17.4110888">
        <ele>18.4023</ele>
        <time>2012-05-01T11:00:07Z</time>
      </trkpt>
      <trkpt lat="59.7691499" lon="17.4116031">
        <ele>18.8831</ele>
        <time>2012-05-01T11:00:15Z</time>
      </trkpt>
      <trkpt lat="59.7687428" lon="17.41218">
        <ele>18.8831</ele>
        <time>2012-05-01T11:00:24Z</time>
      </trkpt>
      <trkpt lat="59.7683798" lon="17.4127836">
        <ele>18.4023</ele>
        <time>2012-05-01T11:00:32Z</time>
      </trkpt>
      <trkpt lat="59.767962" lon="17.4135168">
        <ele>17.4412</ele>
        <time>2012-05-01T11:00:41Z</time>
      </trkpt>
      <trkpt lat="59.7675713" lon="17.4141995">
        <ele>16.9604</ele>
        <time>2012-05-01T11:00:50Z</time>
      </trkpt>
      <trkpt lat="59.7671581" lon="17.4149235">
        <ele>16.9604</ele>
        <time>2012-05-01T11:01:00Z</time>
      </trkpt>
      <trkpt lat="59.7667699" lon="17.4155987">
        <ele>15.999</ele>
        <time>2012-05-01T11:01:09Z</time>
      </trkpt>
      <trkpt lat="59.766324" lon="17.4163932">
        <ele>15.5184</ele>
        <time>2012-05-01T11:01:19Z</time>
      </trkpt>
      <trkpt lat="59.7659712" lon="17.4170089">
        <ele>15.5184</ele>
        <time>2012-05-01T11:01:27Z</time>
      </trkpt>
      <trkpt lat="59.7655879" lon="17.4176835">
        <ele>15.5184</ele>
        <time>2012-05-01T11:01:36Z</time>
      </trkpt>
      <trkpt lat="59.7651822" lon="17.4184176">
        <ele>15.0377</ele>
        <time>2012-05-01T11:01:46Z</time>
      </trkpt>
      <trkpt lat="59.7648933" lon="17.4189874">
        <ele>15.0377</ele>
        <time>2012-05-01T11:01:53Z</time>
      </trkpt>
      <trkpt lat="59.764464" lon="17.4199197">
        <ele>14.0764</ele>
        <time>2012-05-01T11:02:03Z</time>
      </trkpt>
      <trkpt lat="59.7640506" lon="17.420821">
        <ele>13.5958</ele>
        <time>2012-05-01T11:02:13Z</time>
      </trkpt>
      <trkpt lat="59.7636856" lon="17.4216081">
        <ele>13.1151</ele>
        <time>2012-05-01T11:02:22Z</time>
      </trkpt>
      <trkpt lat="59.7633336" lon="17.4224473">
        <ele>14.0764</ele>
        <time>2012-05-01T11:02:31Z</time>
      </trkpt>
      <trkpt lat="59.7630377" lon="17.4233">
        <ele>13.5958</ele>
        <time>2012-05-01T11:02:39Z</time>
      </trkpt>
      <trkpt lat="59.7628119" lon="17.4241545">
        <ele>13.1151</ele>
        <time>2012-05-01T11:02:46Z</time>
      </trkpt>
      <trkpt lat="59.762619" lon="17.4251213">
        <ele>14.0764</ele>
        <time>2012-05-01T11:02:53Z</time>
      </trkpt>
      <trkpt lat="59.7624642" lon="17.4259609">
        <ele>14.0764</ele>
        <time>2012-05-01T11:02:59Z</time>
      </trkpt>
      <trkpt lat="59.7621998" lon="17.4271611">
        <ele>12.1538</ele>
        <time>2012-05-01T11:03:08Z</time>
      </trkpt>
      <trkpt lat="59.7618848" lon="17.428079">
        <ele>12.1538</ele>
        <time>2012-05-01T11:03:16Z</time>
      </trkpt>
      <trkpt lat="59.7614808" lon="17.4289682">
        <ele>11.6732</ele>
        <time>2012-05-01T11:03:25Z</time>
      </trkpt>
      <trkpt lat="59.7611642" lon="17.4295787">
        <ele>10.2312</ele>
        <time>2012-05-01T11:03:32Z</time>
      </trkpt>
      <trkpt lat="59.7608798" lon="17.4301154">
        <ele>8.30859</ele>
        <time>2012-05-01T11:03:38Z</time>
      </trkpt>
      <trkpt lat="59.7604071" lon="17.4310533">
        <ele>6.38586</ele>
        <time>2012-05-01T11:03:48Z</time>
      </trkpt>
      <trkpt lat="59.7600847" lon="17.4317455">
        <ele>4.94385</ele>
        <time>2012-05-01T11:03:55Z</time>
      </trkpt>
      <trkpt lat="59.7598847" lon="17.4322426">
        <ele>3.98267</ele>
        <time>2012-05-01T11:04:00Z</time>
      </trkpt>
      <trkpt lat="59.7595547" lon="17.4330942">
        <ele>3.02124</ele>
        <time>2012-05-01T11:04:08Z</time>
      </trkpt>
      <trkpt lat="59.7592862" lon="17.4337907">
        <ele>2.54065</ele>
        <time>2012-05-01T11:04:15Z</time>
      </trkpt>
      <trkpt lat="59.7589358" lon="17.4346671">
        <ele>3.02124</ele>
        <time>2012-05-01T11:04:24Z</time>
      </trkpt>
      <trkpt lat="59.7585789" lon="17.4355315">
        <ele>3.02124</ele>
        <time>2012-05-01T11:04:33Z</time>
      </trkpt>
      <trkpt lat="59.7582035" lon="17.4364302">
        <ele>2.54065</ele>
        <time>2012-05-01T11:04:42Z</time>
      </trkpt>
      <trkpt lat="59.757867" lon="17.4372063">
        <ele>2.54065</ele>
        <time>2012-05-01T11:04:50Z</time>
      </trkpt>
      <trkpt lat="59.7576148" lon="17.4378143">
        <ele>2.06006</ele>
        <time>2012-05-01T11:04:56Z</time>
      </trkpt>
      <trkpt lat="59.757194" lon="17.4387972">
        <ele>1.57935</ele>
        <time>2012-05-01T11:05:06Z</time>
      </trkpt>
      <trkpt lat="59.756816" lon="17.4396907">
        <ele>1.57935</ele>
        <time>2012-05-01T11:05:15Z</time>
      </trkpt>
      <trkpt lat="59.7567334" lon="17.4398911">
        <ele>1.57935</ele>
        <time>2012-05-01T11:05:17Z</time>
      </trkpt>
      <trkpt lat="59.7565188" lon="17.440734">
        <ele>2.54065</ele>
        <time>2012-05-01T11:05:24Z</time>
      </trkpt>
      <trkpt lat="59.7562898" lon="17.4418012">
        <ele>3.98267</ele>
        <time>2012-05-01T11:05:33Z</time>
      </trkpt>
      <trkpt lat="59.7560924" lon="17.4428239">
        <ele>5.90527</ele>
        <time>2012-05-01T11:05:42Z</time>
      </trkpt>
      <trkpt lat="59.7558627" lon="17.4439962">
        <ele>7.82788</ele>
        <time>2012-05-01T11:05:52Z</time>
      </trkpt>
      <trkpt lat="59.7556052" lon="17.4452985">
        <ele>9.2699</ele>
        <time>2012-05-01T11:06:03Z</time>
      </trkpt>
      <trkpt lat="59.7554705" lon="17.4460135">
        <ele>9.75061</ele>
        <time>2012-05-01T11:06:09Z</time>
      </trkpt>
      <trkpt lat="59.7552749" lon="17.4469937">
        <ele>10.2312</ele>
        <time>2012-05-01T11:06:17Z</time>
      </trkpt>
      <trkpt lat="59.7549624" lon="17.4485497">
        <ele>11.6732</ele>
        <time>2012-05-01T11:06:30Z</time>
      </trkpt>
      <trkpt lat="59.7547474" lon="17.4496023">
        <ele>12.6344</ele>
        <time>2012-05-01T11:06:39Z</time>
      </trkpt>
      <trkpt lat="59.7545409" lon="17.4503637">
        <ele>13.5958</ele>
        <time>2012-05-01T11:06:46Z</time>
      </trkpt>
      <trkpt lat="59.7542471" lon="17.4509962">
        <ele>14.0764</ele>
        <time>2012-05-01T11:06:53Z</time>
      </trkpt>
      <trkpt lat="59.7541409" lon="17.4513076">
        <ele>14.0764</ele>
        <time>2012-05-01T11:06:56Z</time>
      </trkpt>
      <trkpt lat="59.7540316" lon="17.4520295">
        <ele>14.557</ele>
        <time>2012-05-01T11:07:02Z</time>
      </trkpt>
      <trkpt lat="59.7539317" lon="17.4530705">
        <ele>14.557</ele>
        <time>2012-05-01T11:07:10Z</time>
      </trkpt>
      <trkpt lat="59.7539621" lon="17.4537255">
        <ele>15.5184</ele>
        <time>2012-05-01T11:07:15Z</time>
      </trkpt>
      <trkpt lat="59.754103" lon="17.4547962">
        <ele>18.4023</ele>
        <time>2012-05-01T11:07:24Z</time>
      </trkpt>
      <trkpt lat="59.7542449" lon="17.4556501">
        <ele>20.325</ele>
        <time>2012-05-01T11:07:32Z</time>
      </trkpt>
      <trkpt lat="59.7544429" lon="17.4565965">
        <ele>22.2476</ele>
        <time>2012-05-01T11:07:42Z</time>
      </trkpt>
      <trkpt lat="59.7546037" lon="17.4574039">
        <ele>22.2476</ele>
        <time>2012-05-01T11:07:50Z</time>
      </trkpt>
      <trkpt lat="59.7546936" lon="17.458237">
        <ele>22.7283</ele>
        <time>2012-05-01T11:07:58Z</time>
      </trkpt>
      <trkpt lat="59.7546388" lon="17.4588903">
        <ele>23.6896</ele>
        <time>2012-05-01T11:08:04Z</time>
      </trkpt>
      <trkpt lat="59.7544464" lon="17.4599925">
        <ele>24.1703</ele>
        <time>2012-05-01T11:08:14Z</time>
      </trkpt>
      <trkpt lat="59.7544094" lon="17.4602309">
        <ele>23.209</ele>
        <time>2012-05-01T11:08:16Z</time>
      </trkpt>
      <trkpt lat="59.7543673" lon="17.461129">
        <ele>20.8057</ele>
        <time>2012-05-01T11:08:22Z</time>
      </trkpt>
      <trkpt lat="59.7543656" lon="17.4620592">
        <ele>19.3638</ele>
        <time>2012-05-01T11:08:28Z</time>
      </trkpt>
      <trkpt lat="59.7544233" lon="17.463069">
        <ele>19.8444</ele>
        <time>2012-05-01T11:08:35Z</time>
      </trkpt>
      <trkpt lat="59.7543627" lon="17.4641499">
        <ele>19.8444</ele>
        <time>2012-05-01T11:08:43Z</time>
      </trkpt>
      <trkpt lat="59.7541985" lon="17.4654684">
        <ele>20.8057</ele>
        <time>2012-05-01T11:08:53Z</time>
      </trkpt>
      <trkpt lat="59.7540507" lon="17.4664848">
        <ele>22.7283</ele>
        <time>2012-05-01T11:09:01Z</time>
      </trkpt>
      <trkpt lat="59.7538214" lon="17.4676083">
        <ele>23.6896</ele>
        <time>2012-05-01T11:09:10Z</time>
      </trkpt>
      <trkpt lat="59.7536176" lon="17.4685615">
        <ele>22.2476</ele>
        <time>2012-05-01T11:09:17Z</time>
      </trkpt>
      <trkpt lat="59.7534908" lon="17.4694747">
        <ele>20.8057</ele>
        <time>2012-05-01T11:09:23Z</time>
      </trkpt>
      <trkpt lat="59.7534908" lon="17.4702968">
        <ele>20.8057</ele>
        <time>2012-05-01T11:09:28Z</time>
      </trkpt>
      <trkpt lat="59.7536046" lon="17.4715545">
        <ele>21.767</ele>
        <time>2012-05-01T11:09:36Z</time>
      </trkpt>
      <trkpt lat="59.7537432" lon="17.4726906">
        <ele>22.2476</ele>
        <time>2012-05-01T11:09:44Z</time>
      </trkpt>
      <trkpt lat="59.7539156" lon="17.473481">
        <ele>22.7283</ele>
        <time>2012-05-01T11:09:50Z</time>
      </trkpt>
      <trkpt lat="59.7541416" lon="17.4741651">
        <ele>22.7283</ele>
        <time>2012-05-01T11:09:56Z</time>
      </trkpt>
      <trkpt lat="59.7545163" lon="17.4746906">
        <ele>21.767</ele>
        <time>2012-05-01T11:10:03Z</time>
      </trkpt>
      <trkpt lat="59.7549397" lon="17.4749605">
        <ele>22.2476</ele>
        <time>2012-05-01T11:10:10Z</time>
      </trkpt>
      <trkpt lat="59.7553438" lon="17.4751304">
        <ele>21.767</ele>
        <time>2012-05-01T11:10:17Z</time>
      </trkpt>
      <trkpt lat="59.7558541" lon="17.4753552">
        <ele>20.325</ele>
        <time>2012-05-01T11:10:25Z</time>
      </trkpt>
      <trkpt lat="59.7561621" lon="17.4756502">
        <ele>19.8444</ele>
        <time>2012-05-01T11:10:30Z</time>
      </trkpt>
      <trkpt lat="59.7563991" lon="17.4761356">
        <ele>19.3638</ele>
        <time>2012-05-01T11:10:35Z</time>
      </trkpt>
      <trkpt lat="59.7566424" lon="17.4770014">
        <ele>18.4023</ele>
        <time>2012-05-01T11:10:42Z</time>
      </trkpt>
      <trkpt lat="59.7567699" lon="17.4778116">
        <ele>18.4023</ele>
        <time>2012-05-01T11:10:48Z</time>
      </trkpt>
      <trkpt lat="59.7568862" lon="17.4791562">
        <ele>19.3638</ele>
        <time>2012-05-01T11:10:58Z</time>
      </trkpt>
      <trkpt lat="59.7570434" lon="17.4803242">
        <ele>19.8444</ele>
        <time>2012-05-01T11:11:07Z</time>
      </trkpt>
      <trkpt lat="59.7572656" lon="17.4810469">
        <ele>19.3638</ele>
        <time>2012-05-01T11:11:13Z</time>
      </trkpt>
      <trkpt lat="59.7575496" lon="17.4816697">
        <ele>19.3638</ele>
        <time>2012-05-01T11:11:19Z</time>
      </trkpt>
      <trkpt lat="59.7578106" lon="17.4821391">
        <ele>20.8057</ele>
        <time>2012-05-01T11:11:25Z</time>
      </trkpt>
      <trkpt lat="59.7581176" lon="17.4826006">
        <ele>20.8057</ele>
        <time>2012-05-01T11:11:33Z</time>
      </trkpt>
      <trkpt lat="59.7583435" lon="17.4830782">
        <ele>20.8057</ele>
        <time>2012-05-01T11:11:39Z</time>
      </trkpt>
      <trkpt lat="59.7585544" lon="17.4837525">
        <ele>20.8057</ele>
        <time>2012-05-01T11:11:46Z</time>
      </trkpt>
      <trkpt lat="59.7587915" lon="17.4845939">
        <ele>21.767</ele>
        <time>2012-05-01T11:11:54Z</time>
      </trkpt>
      <trkpt lat="59.7590735" lon="17.4854035">
        <ele>22.2476</ele>
        <time>2012-05-01T11:12:02Z</time>
      </trkpt>
      <trkpt lat="59.7593594" lon="17.4861096">
        <ele>22.7283</ele>
        <time>2012-05-01T11:12:10Z</time>
      </trkpt>
      <trkpt lat="59.7595252" lon="17.4866837">
        <ele>20.325</ele>
        <time>2012-05-01T11:12:15Z</time>
      </trkpt>
      <trkpt lat="59.7597707" lon="17.4874869">
        <ele>19.8444</ele>
        <time>2012-05-01T11:12:21Z</time>
      </trkpt>
      <trkpt lat="59.7600674" lon="17.4883163">
        <ele>18.8831</ele>
        <time>2012-05-01T11:12:28Z</time>
      </trkpt>
      <trkpt lat="59.7603758" lon="17.4893146">
        <ele>18.4023</ele>
        <time>2012-05-01T11:12:37Z</time>
      </trkpt>
      <trkpt lat="59.7605343" lon="17.4899732">
        <ele>18.4023</ele>
        <time>2012-05-01T11:12:43Z</time>
      </trkpt>
      <trkpt lat="59.7608371" lon="17.4912133">
        <ele>17.9218</ele>
        <time>2012-05-01T11:12:54Z</time>
      </trkpt>
      <trkpt lat="59.7611288" lon="17.4925227">
        <ele>16.9604</ele>
        <time>2012-05-01T11:13:05Z</time>
      </trkpt>
      <trkpt lat="59.7614097" lon="17.4938129">
        <ele>15.999</ele>
        <time>2012-05-01T11:13:16Z</time>
      </trkpt>
      <trkpt lat="59.7617505" lon="17.4950655">
        <ele>16.4797</ele>
        <time>2012-05-01T11:13:28Z</time>
      </trkpt>
      <trkpt lat="59.7619166" lon="17.4956926">
        <ele>17.4412</ele>
        <time>2012-05-01T11:13:34Z</time>
      </trkpt>
      <trkpt lat="59.7619547" lon="17.4960316">
        <ele>17.9218</ele>
        <time>2012-05-01T11:13:37Z</time>
      </trkpt>
      <trkpt lat="59.7619148" lon="17.4968309">
        <ele>19.8444</ele>
        <time>2012-05-01T11:13:44Z</time>
      </trkpt>
      <trkpt lat="59.7618712" lon="17.4976709">
        <ele>21.2864</ele>
        <time>2012-05-01T11:13:51Z</time>
      </trkpt>
      <trkpt lat="59.7619679" lon="17.4983667">
        <ele>22.7283</ele>
        <time>2012-05-01T11:13:57Z</time>
      </trkpt>
      <trkpt lat="59.7621607" lon="17.4993718">
        <ele>20.325</ele>
        <time>2012-05-01T11:14:05Z</time>
      </trkpt>
      <trkpt lat="59.7623908" lon="17.5005197">
        <ele>18.8831</ele>
        <time>2012-05-01T11:14:13Z</time>
      </trkpt>
      <trkpt lat="59.7625752" lon="17.5009905">
        <ele>18.4023</ele>
        <time>2012-05-01T11:14:17Z</time>
      </trkpt>
      <trkpt lat="59.7628808" lon="17.5013706">
        <ele>17.4412</ele>
        <time>2012-05-01T11:14:22Z</time>
      </trkpt>
      <trkpt lat="59.763205" lon="17.501597">
        <ele>16.9604</ele>
        <time>2012-05-01T11:14:27Z</time>
      </trkpt>
      <trkpt lat="59.7635131" lon="17.5020701">
        <ele>16.9604</ele>
        <time>2012-05-01T11:14:33Z</time>
      </trkpt>
      <trkpt lat="59.7639569" lon="17.5029298">
        <ele>18.8831</ele>
        <time>2012-05-01T11:14:43Z</time>
      </trkpt>
      <trkpt lat="59.7640013" lon="17.503008">
        <ele>18.4023</ele>
        <time>2012-05-01T11:14:44Z</time>
      </trkpt>
      <trkpt lat="59.7642808" lon="17.503159">
        <ele>21.767</ele>
        <time>2012-05-01T11:14:49Z</time>
      </trkpt>
      <trkpt lat="59.7643291" lon="17.5031469">
        <ele>21.767</ele>
        <time>2012-05-01T11:14:50Z</time>
      </trkpt>
      <trkpt lat="59.7646762" lon="17.5029603">
        <ele>22.2476</ele>
        <time>2012-05-01T11:14:57Z</time>
      </trkpt>
      <trkpt lat="59.7648016" lon="17.5028506">
        <ele>22.2476</ele>
        <time>2012-05-01T11:14:59Z</time>
      </trkpt>
      <trkpt lat="59.7650788" lon="17.5028168">
        <ele>21.2864</ele>
        <time>2012-05-01T11:15:03Z</time>
      </trkpt>
      <trkpt lat="59.7652624" lon="17.5029937">
        <ele>20.8057</ele>
        <time>2012-05-01T11:15:06Z</time>
      </trkpt>
      <trkpt lat="59.7655443" lon="17.5033407">
        <ele>17.9218</ele>
        <time>2012-05-01T11:15:11Z</time>
      </trkpt>
      <trkpt lat="59.7658003" lon="17.5039151">
        <ele>16.4797</ele>
        <time>2012-05-01T11:15:16Z</time>
      </trkpt>
      <trkpt lat="59.7660975" lon="17.5043446">
        <ele>16.9604</ele>
        <time>2012-05-01T11:15:21Z</time>
      </trkpt>
      <trkpt lat="59.7662231" lon="17.5044269">
        <ele>18.4023</ele>
        <time>2012-05-01T11:15:23Z</time>
      </trkpt>
      <trkpt lat="59.7667781" lon="17.504746">
        <ele>17.9218</ele>
        <time>2012-05-01T11:15:32Z</time>
      </trkpt>
      <trkpt lat="59.767399" lon="17.5051729">
        <ele>16.9604</ele>
        <time>2012-05-01T11:15:42Z</time>
      </trkpt>
      <trkpt lat="59.7679671" lon="17.5056059">
        <ele>15.5184</ele>
        <time>2012-05-01T11:15:51Z</time>
      </trkpt>
      <trkpt lat="59.7681526" lon="17.505726">
        <ele>15.999</ele>
        <time>2012-05-01T11:15:54Z</time>
      </trkpt>
      <trkpt lat="59.7686277" lon="17.5058898">
        <ele>15.5184</ele>
        <time>2012-05-01T11:16:01Z</time>
      </trkpt>
      <trkpt lat="59.7689514" lon="17.5061497">
        <ele>16.4797</ele>
        <time>2012-05-01T11:16:06Z</time>
      </trkpt>
      <trkpt lat="59.769014" lon="17.5062022">
        <ele>16.9604</ele>
        <time>2012-05-01T11:16:07Z</time>
      </trkpt>
      <trkpt lat="59.7692656" lon="17.5062685">
        <ele>18.4023</ele>
        <time>2012-05-01T11:16:11Z</time>
      </trkpt>
      <trkpt lat="59.7694529" lon="17.5061926">
        <ele>18.4023</ele>
        <time>2012-05-01T11:16:14Z</time>
      </trkpt>
      <trkpt lat="59.7695833" lon="17.5061524">
        <ele>19.3638</ele>
        <time>2012-05-01T11:16:16Z</time>
      </trkpt>
      <trkpt lat="59.7697817" lon="17.5061705">
        <ele>19.3638</ele>
        <time>2012-05-01T11:16:19Z</time>
      </trkpt>
      <trkpt lat="59.7702344" lon="17.5064674">
        <ele>18.8831</ele>
        <time>2012-05-01T11:16:26Z</time>
      </trkpt>
      <trkpt lat="59.7704123" lon="17.5065942">
        <ele>19.8444</ele>
        <time>2012-05-01T11:16:29Z</time>
      </trkpt>
      <trkpt lat="59.7707862" lon="17.506971">
        <ele>19.3638</ele>
        <time>2012-05-01T11:16:36Z</time>
      </trkpt>
      <trkpt lat="59.7710814" lon="17.5072646">
        <ele>17.4412</ele>
        <time>2012-05-01T11:16:42Z</time>
      </trkpt>
      <trkpt lat="59.7713586" lon="17.5074049">
        <ele>15.0377</ele>
        <time>2012-05-01T11:16:46Z</time>
      </trkpt>
      <trkpt lat="59.7720085" lon="17.5076172">
        <ele>13.1151</ele>
        <time>2012-05-01T11:16:54Z</time>
      </trkpt>
      <trkpt lat="59.7727575" lon="17.5078799">
        <ele>11.6732</ele>
        <time>2012-05-01T11:17:04Z</time>
      </trkpt>
      <trkpt lat="59.7733182" lon="17.5081147">
        <ele>11.6732</ele>
        <time>2012-05-01T11:17:12Z</time>
      </trkpt>
      <trkpt lat="59.7738373" lon="17.5083493">
        <ele>11.1925</ele>
        <time>2012-05-01T11:17:20Z</time>
      </trkpt>
      <trkpt lat="59.7743211" lon="17.5086684">
        <ele>10.2312</ele>
        <time>2012-05-01T11:17:28Z</time>
      </trkpt>
      <trkpt lat="59.7747215" lon="17.5091402">
        <ele>8.78918</ele>
        <time>2012-05-01T11:17:35Z</time>
      </trkpt>
      <trkpt lat="59.7751858" lon="17.5097369">
        <ele>7.82788</ele>
        <time>2012-05-01T11:17:43Z</time>
      </trkpt>
      <trkpt lat="59.7756612" lon="17.5101787">
        <ele>6.86646</ele>
        <time>2012-05-01T11:17:50Z</time>
      </trkpt>
      <trkpt lat="59.7759555" lon="17.5105677">
        <ele>7.34717</ele>
        <time>2012-05-01T11:17:55Z</time>
      </trkpt>
      <trkpt lat="59.776202" lon="17.5110985">
        <ele>6.38586</ele>
        <time>2012-05-01T11:18:00Z</time>
      </trkpt>
      <trkpt lat="59.776488" lon="17.5119878">
        <ele>4.46326</ele>
        <time>2012-05-01T11:18:07Z</time>
      </trkpt>
      <trkpt lat="59.7768727" lon="17.5129679">
        <ele>2.06006</ele>
        <time>2012-05-01T11:18:15Z</time>
      </trkpt>
      <trkpt lat="59.7772787" lon="17.5139308">
        <ele>1.09863</ele>
        <time>2012-05-01T11:18:23Z</time>
      </trkpt>
      <trkpt lat="59.7776448" lon="17.5148339">
        <ele>1.09863</ele>
        <time>2012-05-01T11:18:31Z</time>
      </trkpt>
      <trkpt lat="59.7780414" lon="17.5157795">
        <ele>1.09863</ele>
        <time>2012-05-01T11:18:39Z</time>
      </trkpt>
      <trkpt lat="59.7783682" lon="17.5164696">
        <ele>0.137451</ele>
        <time>2012-05-01T11:18:45Z</time>
      </trkpt>
      <trkpt lat="59.7787688" lon="17.5171617">
        <ele>0</ele>
        <time>2012-05-01T11:18:52Z</time>
      </trkpt>
      <trkpt lat="59.7792002" lon="17.5178138">
        <ele>0</ele>
        <time>2012-05-01T11:18:59Z</time>
      </trkpt>
      <trkpt lat="59.7795643" lon="17.5184918">
        <ele>0</ele>
        <time>2012-05-01T11:19:06Z</time>
      </trkpt>
      <trkpt lat="59.7798068" lon="17.5191595">
        <ele>0</ele>
        <time>2012-05-01T11:19:12Z</time>
      </trkpt>
      <trkpt lat="59.7799244" lon="17.5199155">
        <ele>0</ele>
        <time>2012-05-01T11:19:18Z</time>
      </trkpt>
      <trkpt lat="59.7799533" lon="17.520848">
        <ele>0.137451</ele>
        <time>2012-05-01T11:19:25Z</time>
      </trkpt>
      <trkpt lat="59.77988" lon="17.5215174">
        <ele>1.57935</ele>
        <time>2012-05-01T11:19:30Z</time>
      </trkpt>
      <trkpt lat="59.7796841" lon="17.5225641">
        <ele>3.02124</ele>
        <time>2012-05-01T11:19:38Z</time>
      </trkpt>
      <trkpt lat="59.7796623" lon="17.5226949">
        <ele>3.02124</ele>
        <time>2012-05-01T11:19:39Z</time>
      </trkpt>
      <trkpt lat="59.779654" lon="17.5233653">
        <ele>3.98267</ele>
        <time>2012-05-01T11:19:44Z</time>
      </trkpt>
      <trkpt lat="59.7796705" lon="17.5234907">
        <ele>4.46326</ele>
        <time>2012-05-01T11:19:45Z</time>
      </trkpt>
      <trkpt lat="59.7798465" lon="17.5245931">
        <ele>6.86646</ele>
        <time>2012-05-01T11:19:55Z</time>
      </trkpt>
      <trkpt lat="59.7799773" lon="17.5254326">
        <ele>8.78918</ele>
        <time>2012-05-01T11:20:04Z</time>
      </trkpt>
      <trkpt lat="59.7801294" lon="17.526371">
        <ele>13.1151</ele>
        <time>2012-05-01T11:20:15Z</time>
      </trkpt>
      <trkpt lat="59.7802885" lon="17.5273691">
        <ele>16.4797</ele>
        <time>2012-05-01T11:20:27Z</time>
      </trkpt>
      <trkpt lat="59.7804252" lon="17.5282739">
        <ele>17.9218</ele>
        <time>2012-05-01T11:20:37Z</time>
      </trkpt>
      <trkpt lat="59.7805781" lon="17.5292614">
        <ele>18.4023</ele>
        <time>2012-05-01T11:20:47Z</time>
      </trkpt>
      <trkpt lat="59.7806273" lon="17.5295702">
        <ele>18.4023</ele>
        <time>2012-05-01T11:20:50Z</time>
      </trkpt>
      <trkpt lat="59.7805751" lon="17.5297948">
        <ele>18.4023</ele>
        <time>2012-05-01T11:20:53Z</time>
      </trkpt>
      <trkpt lat="59.7804942" lon="17.5297468">
        <ele>18.4023</ele>
        <time>2012-05-01T11:20:55Z</time>
      </trkpt>
      <trkpt lat="59.7804614" lon="17.5296793">
        <ele>18.8831</ele>
        <time>2012-05-01T11:20:56Z</time>
      </trkpt>
      <trkpt lat="59.7803987" lon="17.5295339">
        <ele>18.8831</ele>
        <time>2012-05-01T11:20:58Z</time>
      </trkpt>
      <trkpt lat="59.7800802" lon="17.5289987">
        <ele>19.3638</ele>
        <time>2012-05-01T11:21:07Z</time>
      </trkpt>
      <trkpt lat="59.7798124" lon="17.5288365">
        <ele>19.3638</ele>
        <time>2012-05-01T11:21:12Z</time>
      </trkpt>
      <trkpt lat="59.7796363" lon="17.5288326">
        <ele>18.8831</ele>
        <time>2012-05-01T11:21:15Z</time>
      </trkpt>
      <trkpt lat="59.7793597" lon="17.528964">
        <ele>18.8831</ele>
        <time>2012-05-01T11:21:20Z</time>
      </trkpt>
      <trkpt lat="59.7792614" lon="17.5290961">
        <ele>19.3638</ele>
        <time>2012-05-01T11:21:22Z</time>
      </trkpt>
      <trkpt lat="59.7790753" lon="17.5295385">
        <ele>19.8444</ele>
        <time>2012-05-01T11:21:27Z</time>
      </trkpt>
      <trkpt lat="59.7789443" lon="17.5302413">
        <ele>23.209</ele>
        <time>2012-05-01T11:21:33Z</time>
      </trkpt>
      <trkpt lat="59.7788245" lon="17.5312039">
        <ele>26.0929</ele>
        <time>2012-05-01T11:21:42Z</time>
      </trkpt>
      <trkpt lat="59.7786799" lon="17.5320914">
        <ele>27.0543</ele>
        <time>2012-05-01T11:21:51Z</time>
      </trkpt>
      <trkpt lat="59.7785569" lon="17.5328241">
        <ele>23.6896</ele>
        <time>2012-05-01T11:21:57Z</time>
      </trkpt>
      <trkpt lat="59.7785" lon="17.5333779">
        <ele>22.2476</ele>
        <time>2012-05-01T11:22:01Z</time>
      </trkpt>
      <trkpt lat="59.7783751" lon="17.5339207">
        <ele>20.8057</ele>
        <time>2012-05-01T11:22:05Z</time>
      </trkpt>
      <trkpt lat="59.777972" lon="17.534823">
        <ele>20.8057</ele>
        <time>2012-05-01T11:22:13Z</time>
      </trkpt>
      <trkpt lat="59.7776316" lon="17.5355273">
        <ele>22.7283</ele>
        <time>2012-05-01T11:22:20Z</time>
      </trkpt>
      <trkpt lat="59.7774894" lon="17.5359851">
        <ele>21.767</ele>
        <time>2012-05-01T11:22:24Z</time>
      </trkpt>
      <trkpt lat="59.7773447" lon="17.5368181">
        <ele>21.767</ele>
        <time>2012-05-01T11:22:30Z</time>
      </trkpt>
      <trkpt lat="59.777213" lon="17.5377935">
        <ele>22.2476</ele>
        <time>2012-05-01T11:22:37Z</time>
      </trkpt>
      <trkpt lat="59.7770188" lon="17.538555">
        <ele>23.6896</ele>
        <time>2012-05-01T11:22:44Z</time>
      </trkpt>
      <trkpt lat="59.776748" lon="17.539433">
        <ele>22.7283</ele>
        <time>2012-05-01T11:22:53Z</time>
      </trkpt>
      <trkpt lat="59.7765149" lon="17.5401904">
        <ele>20.325</ele>
        <time>2012-05-01T11:23:00Z</time>
      </trkpt>
      <trkpt lat="59.776155" lon="17.540913">
        <ele>17.4412</ele>
        <time>2012-05-01T11:23:06Z</time>
      </trkpt>
      <trkpt lat="59.7755229" lon="17.542123">
        <ele>13.5958</ele>
        <time>2012-05-01T11:23:15Z</time>
      </trkpt>
      <trkpt lat="59.7749842" lon="17.542985">
        <ele>12.1538</ele>
        <time>2012-05-01T11:23:22Z</time>
      </trkpt>
      <trkpt lat="59.7745319" lon="17.54336">
        <ele>10.7118</ele>
        <time>2012-05-01T11:23:27Z</time>
      </trkpt>
      <trkpt lat="59.7740259" lon="17.5438179">
        <ele>9.75061</ele>
        <time>2012-05-01T11:23:33Z</time>
      </trkpt>
      <trkpt lat="59.7737591" lon="17.5443059">
        <ele>9.75061</ele>
        <time>2012-05-01T11:23:37Z</time>
      </trkpt>
      <trkpt lat="59.7734545" lon="17.5451642">
        <ele>8.30859</ele>
        <time>2012-05-01T11:23:43Z</time>
      </trkpt>
      <trkpt lat="59.7729965" lon="17.5466612">
        <ele>6.38586</ele>
        <time>2012-05-01T11:23:54Z</time>
      </trkpt>
      <trkpt lat="59.7725401" lon="17.5481098">
        <ele>5.90527</ele>
        <time>2012-05-01T11:24:05Z</time>
      </trkpt>
      <trkpt lat="59.7721448" lon="17.5492058">
        <ele>6.86646</ele>
        <time>2012-05-01T11:24:14Z</time>
      </trkpt>
      <trkpt lat="59.7720448" lon="17.5494452">
        <ele>6.38586</ele>
        <time>2012-05-01T11:24:16Z</time>
      </trkpt>
      <trkpt lat="59.7719194" lon="17.5500335">
        <ele>4.94385</ele>
        <time>2012-05-01T11:24:20Z</time>
      </trkpt>
      <trkpt lat="59.771914" lon="17.5503691">
        <ele>4.94385</ele>
        <time>2012-05-01T11:24:22Z</time>
      </trkpt>
      <trkpt lat="59.7719611" lon="17.5510044">
        <ele>5.42456</ele>
        <time>2012-05-01T11:24:26Z</time>
      </trkpt>
      <trkpt lat="59.7719254" lon="17.5517115">
        <ele>4.46326</ele>
        <time>2012-05-01T11:24:31Z</time>
      </trkpt>
      <trkpt lat="59.771787" lon="17.5523963">
        <ele>3.50195</ele>
        <time>2012-05-01T11:24:36Z</time>
      </trkpt>
      <trkpt lat="59.7715972" lon="17.5533684">
        <ele>3.98267</ele>
        <time>2012-05-01T11:24:42Z</time>
      </trkpt>
      <trkpt lat="59.7714525" lon="17.554434">
        <ele>3.02124</ele>
        <time>2012-05-01T11:24:48Z</time>
      </trkpt>
      <trkpt lat="59.771338" lon="17.5556562">
        <ele>4.46326</ele>
        <time>2012-05-01T11:24:55Z</time>
      </trkpt>
      <trkpt lat="59.771228" lon="17.5567615">
        <ele>4.46326</ele>
        <time>2012-05-01T11:25:02Z</time>
      </trkpt>
      <trkpt lat="59.7711234" lon="17.5575254">
        <ele>5.42456</ele>
        <time>2012-05-01T11:25:08Z</time>
      </trkpt>
      <trkpt lat="59.7710327" lon="17.5579722">
        <ele>6.86646</ele>
        <time>2012-05-01T11:25:13Z</time>
      </trkpt>
      <trkpt lat="59.7708992" lon="17.5583742">
        <ele>9.75061</ele>
        <time>2012-05-01T11:25:19Z</time>
      </trkpt>
      <trkpt lat="59.7707152" lon="17.5588442">
        <ele>13.1151</ele>
        <time>2012-05-01T11:25:27Z</time>
      </trkpt>
      <trkpt lat="59.7705431" lon="17.5593544">
        <ele>14.557</ele>
        <time>2012-05-01T11:25:35Z</time>
      </trkpt>
      <trkpt lat="59.7704755" lon="17.5598799">
        <ele>15.5184</ele>
        <time>2012-05-01T11:25:43Z</time>
      </trkpt>
      <trkpt lat="59.7703973" lon="17.5604155">
        <ele>15.999</ele>
        <time>2012-05-01T11:25:51Z</time>
      </trkpt>
      <trkpt lat="59.7702387" lon="17.5610543">
        <ele>15.999</ele>
        <time>2012-05-01T11:26:00Z</time>
      </trkpt>
      <trkpt lat="59.770135" lon="17.5615448">
        <ele>16.9604</ele>
        <time>2012-05-01T11:26:06Z</time>
      </trkpt>
      <trkpt lat="59.7699966" lon="17.5622275">
        <ele>15.5184</ele>
        <time>2012-05-01T11:26:14Z</time>
      </trkpt>
      <trkpt lat="59.769917" lon="17.5623115">
        <ele>13.5958</ele>
        <time>2012-05-01T11:26:17Z</time>
      </trkpt>
      <trkpt lat="59.769945" lon="17.5625223">
        <ele>16.4797</ele>
        <time>2012-05-01T11:46:40Z</time>
      </trkpt>
      <trkpt lat="59.7699413" lon="17.5625641">
        <ele>16.9604</ele>
        <time>2012-05-01T11:46:41Z</time>
      </trkpt>
      <trkpt lat="59.7698816" lon="17.5629502">
        <ele>17.4412</ele>
        <time>2012-05-01T11:46:46Z</time>
      </trkpt>
      <trkpt lat="59.7697997" lon="17.563446">
        <ele>17.9218</ele>
        <time>2012-05-01T11:46:52Z</time>
      </trkpt>
      <trkpt lat="59.7696601" lon="17.5642244">
        <ele>17.4412</ele>
        <time>2012-05-01T11:47:00Z</time>
      </trkpt>
      <trkpt lat="59.7696735" lon="17.5646788">
        <ele>17.4412</ele>
        <time>2012-05-01T11:47:04Z</time>
      </trkpt>
      <trkpt lat="59.7697584" lon="17.5649559">
        <ele>15.999</ele>
        <time>2012-05-01T11:47:07Z</time>
      </trkpt>
      <trkpt lat="59.7699139" lon="17.5652346">
        <ele>14.557</ele>
        <time>2012-05-01T11:47:11Z</time>
      </trkpt>
      <trkpt lat="59.7700465" lon="17.565379">
        <ele>15.0377</ele>
        <time>2012-05-01T11:47:14Z</time>
      </trkpt>
      <trkpt lat="59.7703531" lon="17.5655796">
        <ele>17.4412</ele>
        <time>2012-05-01T11:47:21Z</time>
      </trkpt>
      <trkpt lat="59.7703918" lon="17.5656012">
        <ele>16.9604</ele>
        <time>2012-05-01T11:47:22Z</time>
      </trkpt>
      <trkpt lat="59.7706995" lon="17.5658147">
        <ele>15.999</ele>
        <time>2012-05-01T11:47:29Z</time>
      </trkpt>
      <trkpt lat="59.7710452" lon="17.5660495">
        <ele>16.9604</ele>
        <time>2012-05-01T11:47:35Z</time>
      </trkpt>
      <trkpt lat="59.7714404" lon="17.5663197">
        <ele>14.0764</ele>
        <time>2012-05-01T11:47:42Z</time>
      </trkpt>
      <trkpt lat="59.7717051" lon="17.5665172">
        <ele>14.0764</ele>
        <time>2012-05-01T11:47:48Z</time>
      </trkpt>
      <trkpt lat="59.7718373" lon="17.5668052">
        <ele>15.0377</ele>
        <time>2012-05-01T11:47:53Z</time>
      </trkpt>
      <trkpt lat="59.7718384" lon="17.5670467">
        <ele>17.4412</ele>
        <time>2012-05-01T11:47:56Z</time>
      </trkpt>
      <trkpt lat="59.7717885" lon="17.5675967">
        <ele>21.2864</ele>
        <time>2012-05-01T11:48:03Z</time>
      </trkpt>
      <trkpt lat="59.771757" lon="17.5677574">
        <ele>22.2476</ele>
        <time>2012-05-01T11:48:05Z</time>
      </trkpt>
      <trkpt lat="59.7717051" lon="17.5681858">
        <ele>27.0543</ele>
        <time>2012-05-01T11:48:11Z</time>
      </trkpt>
      <trkpt lat="59.7716272" lon="17.5686379">
        <ele>29.9381</ele>
        <time>2012-05-01T11:48:16Z</time>
      </trkpt>
      <trkpt lat="59.7715703" lon="17.5690133">
        <ele>32.8223</ele>
        <time>2012-05-01T11:48:21Z</time>
      </trkpt>
      <trkpt lat="59.7715467" lon="17.5691585">
        <ele>33.3029</ele>
        <time>2012-05-01T11:48:23Z</time>
      </trkpt>
      <trkpt lat="59.7715605" lon="17.569546">
        <ele>33.3029</ele>
        <time>2012-05-01T11:48:30Z</time>
      </trkpt>
      <trkpt lat="59.7715466" lon="17.5697752">
        <ele>32.3416</ele>
        <time>2012-05-01T11:48:35Z</time>
      </trkpt>
      <trkpt lat="59.7714864" lon="17.5702031">
        <ele>32.3416</ele>
        <time>2012-05-01T11:48:41Z</time>
      </trkpt>
      <trkpt lat="59.7714497" lon="17.5706514">
        <ele>30.8995</ele>
        <time>2012-05-01T11:48:46Z</time>
      </trkpt>
      <trkpt lat="59.7713834" lon="17.5713035">
        <ele>30.8995</ele>
        <time>2012-05-01T11:48:52Z</time>
      </trkpt>
      <trkpt lat="59.7712368" lon="17.5721184">
        <ele>34.2642</ele>
        <time>2012-05-01T11:48:58Z</time>
      </trkpt>
      <trkpt lat="59.771184" lon="17.5723986">
        <ele>33.7834</ele>
        <time>2012-05-01T11:49:00Z</time>
      </trkpt>
      <trkpt lat="59.771085" lon="17.5731373">
        <ele>30.8995</ele>
        <time>2012-05-01T11:49:05Z</time>
      </trkpt>
      <trkpt lat="59.7711063" lon="17.573862">
        <ele>30.8995</ele>
        <time>2012-05-01T11:49:10Z</time>
      </trkpt>
      <trkpt lat="59.7711269" lon="17.5739873">
        <ele>31.3801</ele>
        <time>2012-05-01T11:49:11Z</time>
      </trkpt>
      <trkpt lat="59.7711896" lon="17.5743138">
        <ele>33.3029</ele>
        <time>2012-05-01T11:49:14Z</time>
      </trkpt>
      <trkpt lat="59.7713814" lon="17.5747126">
        <ele>32.8223</ele>
        <time>2012-05-01T11:49:20Z</time>
      </trkpt>
      <trkpt lat="59.7716777" lon="17.5750408">
        <ele>33.3029</ele>
        <time>2012-05-01T11:49:28Z</time>
      </trkpt>
      <trkpt lat="59.7718839" lon="17.5754756">
        <ele>31.8607</ele>
        <time>2012-05-01T11:49:35Z</time>
      </trkpt>
      <trkpt lat="59.7721035" lon="17.5759989">
        <ele>31.8607</ele>
        <time>2012-05-01T11:49:42Z</time>
      </trkpt>
      <trkpt lat="59.7721376" lon="17.5760684">
        <ele>31.8607</ele>
        <time>2012-05-01T11:49:43Z</time>
      </trkpt>
      <trkpt lat="59.7723189" lon="17.5763291">
        <ele>33.3029</ele>
        <time>2012-05-01T11:49:48Z</time>
      </trkpt>
      <trkpt lat="59.7724319" lon="17.5764453">
        <ele>33.3029</ele>
        <time>2012-05-01T11:49:51Z</time>
      </trkpt>
      <trkpt lat="59.772748" lon="17.5766869">
        <ele>30.4188</ele>
        <time>2012-05-01T11:49:59Z</time>
      </trkpt>
      <trkpt lat="59.7730207" lon="17.5769255">
        <ele>26.5736</ele>
        <time>2012-05-01T11:50:06Z</time>
      </trkpt>
      <trkpt lat="59.7730954" lon="17.5770053">
        <ele>26.5736</ele>
        <time>2012-05-01T11:50:08Z</time>
      </trkpt>
      <trkpt lat="59.7732727" lon="17.5771644">
        <ele>25.6123</ele>
        <time>2012-05-01T11:50:13Z</time>
      </trkpt>
      <trkpt lat="59.7734928" lon="17.5773209">
        <ele>24.651</ele>
        <time>2012-05-01T11:50:19Z</time>
      </trkpt>
      <trkpt lat="59.7737662" lon="17.5774191">
        <ele>24.1703</ele>
        <time>2012-05-01T11:50:25Z</time>
      </trkpt>
      <trkpt lat="59.7738606" lon="17.5774547">
        <ele>24.651</ele>
        <time>2012-05-01T11:50:27Z</time>
      </trkpt>
      <trkpt lat="59.7739875" lon="17.5775466">
        <ele>23.6896</ele>
        <time>2012-05-01T11:50:30Z</time>
      </trkpt>
      <trkpt lat="59.7742162" lon="17.577875">
        <ele>25.6123</ele>
        <time>2012-05-01T11:50:36Z</time>
      </trkpt>
      <trkpt lat="59.7742745" lon="17.5780165">
        <ele>28.4962</ele>
        <time>2012-05-01T11:50:38Z</time>
      </trkpt>
      <trkpt lat="59.7743925" lon="17.5785188">
        <ele>37.1481</ele>
        <time>2012-05-01T11:50:44Z</time>
      </trkpt>
      <trkpt lat="59.7744708" lon="17.5789236">
        <ele>39.5513</ele>
        <time>2012-05-01T11:50:49Z</time>
      </trkpt>
      <trkpt lat="59.7746302" lon="17.579516">
        <ele>38.5901</ele>
        <time>2012-05-01T11:50:56Z</time>
      </trkpt>
      <trkpt lat="59.7747143" lon="17.58006">
        <ele>33.3029</ele>
        <time>2012-05-01T11:51:02Z</time>
      </trkpt>
      <trkpt lat="59.7747391" lon="17.5804551">
        <ele>29.4575</ele>
        <time>2012-05-01T11:51:06Z</time>
      </trkpt>
      <trkpt lat="59.7747602" lon="17.5811808">
        <ele>30.8995</ele>
        <time>2012-05-01T11:51:13Z</time>
      </trkpt>
      <trkpt lat="59.7747446" lon="17.5816659">
        <ele>29.4575</ele>
        <time>2012-05-01T11:51:18Z</time>
      </trkpt>
      <trkpt lat="59.774818" lon="17.5824145">
        <ele>30.8995</ele>
        <time>2012-05-01T11:51:25Z</time>
      </trkpt>
      <trkpt lat="59.7749811" lon="17.5830712">
        <ele>30.4188</ele>
        <time>2012-05-01T11:51:31Z</time>
      </trkpt>
      <trkpt lat="59.7752027" lon="17.5838052">
        <ele>26.5736</ele>
        <time>2012-05-01T11:51:38Z</time>
      </trkpt>
      <trkpt lat="59.7754494" lon="17.5844179">
        <ele>20.325</ele>
        <time>2012-05-01T11:51:45Z</time>
      </trkpt>
      <trkpt lat="59.7756662" lon="17.584691">
        <ele>17.4412</ele>
        <time>2012-05-01T11:51:49Z</time>
      </trkpt>
      <trkpt lat="59.7761543" lon="17.5851853">
        <ele>22.7283</ele>
        <time>2012-05-01T11:51:56Z</time>
      </trkpt>
      <trkpt lat="59.7764272" lon="17.5854228">
        <ele>23.6896</ele>
        <time>2012-05-01T11:52:01Z</time>
      </trkpt>
      <trkpt lat="59.7767687" lon="17.5857553">
        <ele>24.651</ele>
        <time>2012-05-01T11:52:08Z</time>
      </trkpt>
      <trkpt lat="59.7768136" lon="17.5858163">
        <ele>24.651</ele>
        <time>2012-05-01T11:52:09Z</time>
      </trkpt>
      <trkpt lat="59.7769853" lon="17.5862563">
        <ele>25.6123</ele>
        <time>2012-05-01T11:52:14Z</time>
      </trkpt>
      <trkpt lat="59.7771821" lon="17.5870647">
        <ele>25.6123</ele>
        <time>2012-05-01T11:52:22Z</time>
      </trkpt>
      <trkpt lat="59.7772437" lon="17.5872343">
        <ele>26.5736</ele>
        <time>2012-05-01T11:52:24Z</time>
      </trkpt>
      <trkpt lat="59.7775233" lon="17.5880466">
        <ele>28.0155</ele>
        <time>2012-05-01T11:52:34Z</time>
      </trkpt>
      <trkpt lat="59.7776916" lon="17.5887429">
        <ele>31.3801</ele>
        <time>2012-05-01T11:52:43Z</time>
      </trkpt>
      <trkpt lat="59.7778332" lon="17.589405">
        <ele>33.3029</ele>
        <time>2012-05-01T11:52:52Z</time>
      </trkpt>
      <trkpt lat="59.7778658" lon="17.5896437">
        <ele>33.3029</ele>
        <time>2012-05-01T11:52:55Z</time>
      </trkpt>
      <trkpt lat="59.777832" lon="17.5900966">
        <ele>32.8223</ele>
        <time>2012-05-01T11:53:00Z</time>
      </trkpt>
      <trkpt lat="59.7776747" lon="17.5905939">
        <ele>28.4962</ele>
        <time>2012-05-01T11:53:06Z</time>
      </trkpt>
      <trkpt lat="59.7776282" lon="17.5908854">
        <ele>25.6123</ele>
        <time>2012-05-01T11:53:09Z</time>
      </trkpt>
      <trkpt lat="59.7776694" lon="17.5914282">
        <ele>24.1703</ele>
        <time>2012-05-01T11:53:14Z</time>
      </trkpt>
      <trkpt lat="59.7777349" lon="17.5916182">
        <ele>25.1317</ele>
        <time>2012-05-01T11:53:16Z</time>
      </trkpt>
      <trkpt lat="59.7779815" lon="17.5921938">
        <ele>21.767</ele>
        <time>2012-05-01T11:53:23Z</time>
      </trkpt>
      <trkpt lat="59.7782122" lon="17.5926772">
        <ele>23.209</ele>
        <time>2012-05-01T11:53:29Z</time>
      </trkpt>
      <trkpt lat="59.7782793" lon="17.5928616">
        <ele>24.1703</ele>
        <time>2012-05-01T11:53:31Z</time>
      </trkpt>
      <trkpt lat="59.7784779" lon="17.5935717">
        <ele>31.8607</ele>
        <time>2012-05-01T11:53:38Z</time>
      </trkpt>
      <trkpt lat="59.7785611" lon="17.5943794">
        <ele>35.7061</ele>
        <time>2012-05-01T11:53:46Z</time>
      </trkpt>
      <trkpt lat="59.7785831" lon="17.5950451">
        <ele>37.6287</ele>
        <time>2012-05-01T11:53:52Z</time>
      </trkpt>
      <trkpt lat="59.7786204" lon="17.595662">
        <ele>38.1094</ele>
        <time>2012-05-01T11:53:58Z</time>
      </trkpt>
      <trkpt lat="59.7786277" lon="17.5957671">
        <ele>38.1094</ele>
        <time>2012-05-01T11:53:59Z</time>
      </trkpt>
      <trkpt lat="59.7787543" lon="17.596254">
        <ele>37.1481</ele>
        <time>2012-05-01T11:54:04Z</time>
      </trkpt>
      <trkpt lat="59.7789339" lon="17.5966219">
        <ele>35.2255</ele>
        <time>2012-05-01T11:54:09Z</time>
      </trkpt>
      <trkpt lat="59.7789858" lon="17.5967621">
        <ele>33.3029</ele>
        <time>2012-05-01T11:54:11Z</time>
      </trkpt>
      <trkpt lat="59.7790341" lon="17.5967875">
        <ele>31.8607</ele>
        <time>2012-05-01T11:54:14Z</time>
      </trkpt>
      <trkpt lat="59.7789998" lon="17.5967115">
        <ele>30.8995</ele>
        <time>2012-05-01T11:54:16Z</time>
      </trkpt>
      <trkpt lat="59.7787812" lon="17.5963665">
        <ele>28.0155</ele>
        <time>2012-05-01T11:54:23Z</time>
      </trkpt>
      <trkpt lat="59.7785139" lon="17.5960955">
        <ele>24.1703</ele>
        <time>2012-05-01T11:54:29Z</time>
      </trkpt>
      <trkpt lat="59.7781762" lon="17.5959706">
        <ele>23.6896</ele>
        <time>2012-05-01T11:54:35Z</time>
      </trkpt>
      <trkpt lat="59.7779342" lon="17.5960391">
        <ele>23.6896</ele>
        <time>2012-05-01T11:54:39Z</time>
      </trkpt>
      <trkpt lat="59.7775818" lon="17.5963541">
        <ele>25.6123</ele>
        <time>2012-05-01T11:54:46Z</time>
      </trkpt>
      <trkpt lat="59.7773452" lon="17.596642">
        <ele>26.5736</ele>
        <time>2012-05-01T11:54:51Z</time>
      </trkpt>
      <trkpt lat="59.7770292" lon="17.597015">
        <ele>26.5736</ele>
        <time>2012-05-01T11:54:57Z</time>
      </trkpt>
      <trkpt lat="59.7765999" lon="17.597361">
        <ele>27.0543</ele>
        <time>2012-05-01T11:55:04Z</time>
      </trkpt>
      <trkpt lat="59.7762337" lon="17.5975867">
        <ele>27.0543</ele>
        <time>2012-05-01T11:55:10Z</time>
      </trkpt>
      <trkpt lat="59.7761715" lon="17.5976212">
        <ele>27.0543</ele>
        <time>2012-05-01T11:55:11Z</time>
      </trkpt>
      <trkpt lat="59.7759153" lon="17.597825">
        <ele>26.0929</ele>
        <time>2012-05-01T11:55:15Z</time>
      </trkpt>
      <trkpt lat="59.7755392" lon="17.5983477">
        <ele>25.1317</ele>
        <time>2012-05-01T11:55:22Z</time>
      </trkpt>
      <trkpt lat="59.7751462" lon="17.5989636">
        <ele>25.6123</ele>
        <time>2012-05-01T11:55:30Z</time>
      </trkpt>
      <trkpt lat="59.7750708" lon="17.5993837">
        <ele>25.6123</ele>
        <time>2012-05-01T11:55:34Z</time>
      </trkpt>
      <trkpt lat="59.7750664" lon="17.6003328">
        <ele>24.1703</ele>
        <time>2012-05-01T11:55:42Z</time>
      </trkpt>
      <trkpt lat="59.7749458" lon="17.6007873">
        <ele>25.1317</ele>
        <time>2012-05-01T11:55:46Z</time>
      </trkpt>
      <trkpt lat="59.7749066" lon="17.6008831">
        <ele>25.1317</ele>
        <time>2012-05-01T11:55:47Z</time>
      </trkpt>
      <trkpt lat="59.7748216" lon="17.6010564">
        <ele>26.5736</ele>
        <time>2012-05-01T11:55:49Z</time>
      </trkpt>
      <trkpt lat="59.7747249" lon="17.601227">
        <ele>28.9769</ele>
        <time>2012-05-01T11:55:51Z</time>
      </trkpt>
      <trkpt lat="59.7745445" lon="17.6017207">
        <ele>29.9381</ele>
        <time>2012-05-01T11:55:56Z</time>
      </trkpt>
      <trkpt lat="59.7743204" lon="17.6027974">
        <ele>27.0543</ele>
        <time>2012-05-01T11:56:04Z</time>
      </trkpt>
      <trkpt lat="59.7741895" lon="17.6033741">
        <ele>23.209</ele>
        <time>2012-05-01T11:56:09Z</time>
      </trkpt>
      <trkpt lat="59.7740459" lon="17.6041693">
        <ele>23.6896</ele>
        <time>2012-05-01T11:56:17Z</time>
      </trkpt>
      <trkpt lat="59.7739142" lon="17.6048792">
        <ele>23.6896</ele>
        <time>2012-05-01T11:56:24Z</time>
      </trkpt>
      <trkpt lat="59.7738081" lon="17.6054689">
        <ele>24.1703</ele>
        <time>2012-05-01T11:56:30Z</time>
      </trkpt>
      <trkpt lat="59.7736829" lon="17.6061473">
        <ele>24.651</ele>
        <time>2012-05-01T11:56:37Z</time>
      </trkpt>
      <trkpt lat="59.773642" lon="17.6063356">
        <ele>24.651</ele>
        <time>2012-05-01T11:56:39Z</time>
      </trkpt>
      <trkpt lat="59.7736679" lon="17.6066183">
        <ele>22.7283</ele>
        <time>2012-05-01T11:56:43Z</time>
      </trkpt>
      <trkpt lat="59.7737927" lon="17.6066376">
        <ele>19.8444</ele>
        <time>2012-05-01T11:56:46Z</time>
      </trkpt>
      <trkpt lat="59.7742162" lon="17.6064977">
        <ele>17.4412</ele>
        <time>2012-05-01T11:56:54Z</time>
      </trkpt>
      <trkpt lat="59.7746511" lon="17.6063453">
        <ele>17.9218</ele>
        <time>2012-05-01T11:57:03Z</time>
      </trkpt>
      <trkpt lat="59.7749729" lon="17.6062266">
        <ele>18.8831</ele>
        <time>2012-05-01T11:57:10Z</time>
      </trkpt>
      <trkpt lat="59.7753507" lon="17.6060289">
        <ele>19.8444</ele>
        <time>2012-05-01T11:57:19Z</time>
      </trkpt>
      <trkpt lat="59.7756375" lon="17.6058367">
        <ele>24.1703</ele>
        <time>2012-05-01T11:57:26Z</time>
      </trkpt>
      <trkpt lat="59.7759658" lon="17.6056248">
        <ele>26.0929</ele>
        <time>2012-05-01T11:57:34Z</time>
      </trkpt>
      <trkpt lat="59.7762025" lon="17.6054483">
        <ele>26.0929</ele>
        <time>2012-05-01T11:57:40Z</time>
      </trkpt>
      <trkpt lat="59.7764424" lon="17.6052793">
        <ele>26.0929</ele>
        <time>2012-05-01T11:57:46Z</time>
      </trkpt>
      <trkpt lat="59.7766877" lon="17.6051">
        <ele>27.0543</ele>
        <time>2012-05-01T11:57:52Z</time>
      </trkpt>
      <trkpt lat="59.777009" lon="17.6048363">
        <ele>28.0155</ele>
        <time>2012-05-01T11:58:00Z</time>
      </trkpt>
      <trkpt lat="59.7773442" lon="17.6045655">
        <ele>28.4962</ele>
        <time>2012-05-01T11:58:08Z</time>
      </trkpt>
      <trkpt lat="59.777758" lon="17.604268">
        <ele>28.0155</ele>
        <time>2012-05-01T11:58:17Z</time>
      </trkpt>
      <trkpt lat="59.778078" lon="17.6040383">
        <ele>28.0155</ele>
        <time>2012-05-01T11:58:23Z</time>
      </trkpt>
      <trkpt lat="59.7784906" lon="17.6037912">
        <ele>26.0929</ele>
        <time>2012-05-01T11:58:30Z</time>
      </trkpt>
      <trkpt lat="59.7789151" lon="17.6037329">
        <ele>24.1703</ele>
        <time>2012-05-01T11:58:36Z</time>
      </trkpt>
      <trkpt lat="59.7793924" lon="17.6037521">
        <ele>22.2476</ele>
        <time>2012-05-01T11:58:42Z</time>
      </trkpt>
      <trkpt lat="59.7798429" lon="17.603904">
        <ele>19.3638</ele>
        <time>2012-05-01T11:58:47Z</time>
      </trkpt>
      <trkpt lat="59.7802882" lon="17.6040734">
        <ele>17.4412</ele>
        <time>2012-05-01T11:58:52Z</time>
      </trkpt>
      <trkpt lat="59.7806116" lon="17.6039934">
        <ele>16.4797</ele>
        <time>2012-05-01T11:58:56Z</time>
      </trkpt>
      <trkpt lat="59.7807732" lon="17.6036968">
        <ele>15.999</ele>
        <time>2012-05-01T11:58:59Z</time>
      </trkpt>
      <trkpt lat="59.7811138" lon="17.6027545">
        <ele>15.5184</ele>
        <time>2012-05-01T11:59:08Z</time>
      </trkpt>
      <trkpt lat="59.7813893" lon="17.6019978">
        <ele>15.999</ele>
        <time>2012-05-01T11:59:16Z</time>
      </trkpt>
      <trkpt lat="59.7817275" lon="17.6011157">
        <ele>15.999</ele>
        <time>2012-05-01T11:59:25Z</time>
      </trkpt>
      <trkpt lat="59.7819973" lon="17.6004716">
        <ele>15.5184</ele>
        <time>2012-05-01T11:59:32Z</time>
      </trkpt>
      <trkpt lat="59.7820888" lon="17.6000195">
        <ele>15.0377</ele>
        <time>2012-05-01T11:59:36Z</time>
      </trkpt>
      <trkpt lat="59.7821902" lon="17.5986674">
        <ele>17.4412</ele>
        <time>2012-05-01T11:59:47Z</time>
      </trkpt>
      <trkpt lat="59.7823187" lon="17.5982669">
        <ele>16.9604</ele>
        <time>2012-05-01T11:59:51Z</time>
      </trkpt>
      <trkpt lat="59.7825113" lon="17.5981438">
        <ele>16.4797</ele>
        <time>2012-05-01T11:59:54Z</time>
      </trkpt>
      <trkpt lat="59.7829144" lon="17.5981116">
        <ele>15.0377</ele>
        <time>2012-05-01T11:59:59Z</time>
      </trkpt>
      <trkpt lat="59.7833302" lon="17.5980619">
        <ele>11.1925</ele>
        <time>2012-05-01T12:00:03Z</time>
      </trkpt>
      <trkpt lat="59.7839369" lon="17.5978603">
        <ele>5.90527</ele>
        <time>2012-05-01T12:00:08Z</time>
      </trkpt>
      <trkpt lat="59.784472" lon="17.5978412">
        <ele>1.57935</ele>
        <time>2012-05-01T12:00:12Z</time>
      </trkpt>
      <trkpt lat="59.7850883" lon="17.5979315">
        <ele>0</ele>
        <time>2012-05-01T12:00:17Z</time>
      </trkpt>
      <trkpt lat="59.7856013" lon="17.5980008">
        <ele>0</ele>
        <time>2012-05-01T12:00:22Z</time>
      </trkpt>
      <trkpt lat="59.7860142" lon="17.5980581">
        <ele>0</ele>
        <time>2012-05-01T12:00:27Z</time>
      </trkpt>
      <trkpt lat="59.786143" lon="17.598076">
        <ele>0.137451</ele>
        <time>2012-05-01T12:00:29Z</time>
      </trkpt>
      <trkpt lat="59.7863284" lon="17.5979417">
        <ele>1.09863</ele>
        <time>2012-05-01T12:00:33Z</time>
      </trkpt>
      <trkpt lat="59.7863725" lon="17.5977665">
        <ele>0.618042</ele>
        <time>2012-05-01T12:00:35Z</time>
      </trkpt>
      <trkpt lat="59.7865744" lon="17.5968494">
        <ele>1.57935</ele>
        <time>2012-05-01T12:00:45Z</time>
      </trkpt>
      <trkpt lat="59.7867382" lon="17.5962083">
        <ele>1.09863</ele>
        <time>2012-05-01T12:00:52Z</time>
      </trkpt>
      <trkpt lat="59.7869746" lon="17.5953102">
        <ele>1.09863</ele>
        <time>2012-05-01T12:01:01Z</time>
      </trkpt>
      <trkpt lat="59.7872145" lon="17.5942421">
        <ele>0.618042</ele>
        <time>2012-05-01T12:01:11Z</time>
      </trkpt>
      <trkpt lat="59.7874118" lon="17.5930942">
        <ele>1.09863</ele>
        <time>2012-05-01T12:01:21Z</time>
      </trkpt>
      <trkpt lat="59.7874841" lon="17.5927689">
        <ele>1.57935</ele>
        <time>2012-05-01T12:01:24Z</time>
      </trkpt>
      <trkpt lat="59.7877187" lon="17.5922215">
        <ele>1.09863</ele>
        <time>2012-05-01T12:01:31Z</time>
      </trkpt>
      <trkpt lat="59.7880269" lon="17.5916332">
        <ele>0.137451</ele>
        <time>2012-05-01T12:01:39Z</time>
      </trkpt>
      <trkpt lat="59.7883882" lon="17.590889">
        <ele>0</ele>
        <time>2012-05-01T12:01:48Z</time>
      </trkpt>
      <trkpt lat="59.788915" lon="17.5898157">
        <ele>0</ele>
        <time>2012-05-01T12:02:01Z</time>
      </trkpt>
      <trkpt lat="59.7893105" lon="17.5889993">
        <ele>0</ele>
        <time>2012-05-01T12:02:11Z</time>
      </trkpt>
      <trkpt lat="59.789662" lon="17.5882684">
        <ele>0</ele>
        <time>2012-05-01T12:02:20Z</time>
      </trkpt>
      <trkpt lat="59.7900749" lon="17.5874075">
        <ele>0</ele>
        <time>2012-05-01T12:02:31Z</time>
      </trkpt>
      <trkpt lat="59.7904494" lon="17.5866222">
        <ele>0</ele>
        <time>2012-05-01T12:02:41Z</time>
      </trkpt>
      <trkpt lat="59.7909648" lon="17.5855455">
        <ele>0</ele>
        <time>2012-05-01T12:02:55Z</time>
      </trkpt>
      <trkpt lat="59.7913148" lon="17.5847931">
        <ele>1.09863</ele>
        <time>2012-05-01T12:03:05Z</time>
      </trkpt>
      <trkpt lat="59.7914598" lon="17.5842721">
        <ele>1.09863</ele>
        <time>2012-05-01T12:03:11Z</time>
      </trkpt>
      <trkpt lat="59.7916205" lon="17.5832831">
        <ele>2.06006</ele>
        <time>2012-05-01T12:03:21Z</time>
      </trkpt>
      <trkpt lat="59.791778" lon="17.5830987">
        <ele>2.06006</ele>
        <time>2012-05-01T12:03:25Z</time>
      </trkpt>
      <trkpt lat="59.7918853" lon="17.5832763">
        <ele>2.54065</ele>
        <time>2012-05-01T12:03:28Z</time>
      </trkpt>
      <trkpt lat="59.791917" lon="17.5833286">
        <ele>2.54065</ele>
        <time>2012-05-01T12:03:29Z</time>
      </trkpt>
      <trkpt lat="59.7919837" lon="17.5834229">
        <ele>3.02124</ele>
        <time>2012-05-01T12:03:31Z</time>
      </trkpt>
      <trkpt lat="59.7924022" lon="17.5838006">
        <ele>3.98267</ele>
        <time>2012-05-01T12:03:42Z</time>
      </trkpt>
      <trkpt lat="59.7928648" lon="17.5842392">
        <ele>5.42456</ele>
        <time>2012-05-01T12:03:54Z</time>
      </trkpt>
      <trkpt lat="59.7932041" lon="17.5846693">
        <ele>5.90527</ele>
        <time>2012-05-01T12:04:03Z</time>
      </trkpt>
      <trkpt lat="59.7936243" lon="17.5853303">
        <ele>7.34717</ele>
        <time>2012-05-01T12:04:15Z</time>
      </trkpt>
      <trkpt lat="59.7940681" lon="17.5860475">
        <ele>9.75061</ele>
        <time>2012-05-01T12:04:28Z</time>
      </trkpt>
      <trkpt lat="59.7944723" lon="17.5865446">
        <ele>12.1538</ele>
        <time>2012-05-01T12:04:39Z</time>
      </trkpt>
      <trkpt lat="59.7949228" lon="17.5870168">
        <ele>15.999</ele>
        <time>2012-05-01T12:04:50Z</time>
      </trkpt>
      <trkpt lat="59.7953305" lon="17.5874126">
        <ele>18.8831</ele>
        <time>2012-05-01T12:05:00Z</time>
      </trkpt>
      <trkpt lat="59.7956672" lon="17.5876073">
        <ele>21.2864</ele>
        <time>2012-05-01T12:05:08Z</time>
      </trkpt>
      <trkpt lat="59.7961303" lon="17.5877315">
        <ele>24.1703</ele>
        <time>2012-05-01T12:05:18Z</time>
      </trkpt>
      <trkpt lat="59.7966401" lon="17.587939">
        <ele>25.1317</ele>
        <time>2012-05-01T12:05:28Z</time>
      </trkpt>
      <trkpt lat="59.7970534" lon="17.5882521">
        <ele>26.5736</ele>
        <time>2012-05-01T12:05:36Z</time>
      </trkpt>
      <trkpt lat="59.7973915" lon="17.5883861">
        <ele>27.0543</ele>
        <time>2012-05-01T12:05:42Z</time>
      </trkpt>
      <trkpt lat="59.7977924" lon="17.5883104">
        <ele>28.4962</ele>
        <time>2012-05-01T12:05:49Z</time>
      </trkpt>
      <trkpt lat="59.7983153" lon="17.5882149">
        <ele>28.4962</ele>
        <time>2012-05-01T12:05:58Z</time>
      </trkpt>
      <trkpt lat="59.7988334" lon="17.5882327">
        <ele>28.4962</ele>
        <time>2012-05-01T12:06:07Z</time>
      </trkpt>
      <trkpt lat="59.7992911" lon="17.5882413">
        <ele>29.4575</ele>
        <time>2012-05-01T12:06:15Z</time>
      </trkpt>
      <trkpt lat="59.7996761" lon="17.5883415">
        <ele>28.9769</ele>
        <time>2012-05-01T12:06:22Z</time>
      </trkpt>
      <trkpt lat="59.8000978" lon="17.5886019">
        <ele>27.5349</ele>
        <time>2012-05-01T12:06:29Z</time>
      </trkpt>
      <trkpt lat="59.800635" lon="17.5888284">
        <ele>25.1317</ele>
        <time>2012-05-01T12:06:37Z</time>
      </trkpt>
      <trkpt lat="59.8010038" lon="17.5891269">
        <ele>24.651</ele>
        <time>2012-05-01T12:06:43Z</time>
      </trkpt>
      <trkpt lat="59.801427" lon="17.5896359">
        <ele>25.1317</ele>
        <time>2012-05-01T12:06:51Z</time>
      </trkpt>
      <trkpt lat="59.8018393" lon="17.5901809">
        <ele>26.0929</ele>
        <time>2012-05-01T12:07:00Z</time>
      </trkpt>
      <trkpt lat="59.802163" lon="17.5907668">
        <ele>27.5349</ele>
        <time>2012-05-01T12:07:09Z</time>
      </trkpt>
      <trkpt lat="59.8024707" lon="17.591465">
        <ele>26.0929</ele>
        <time>2012-05-01T12:07:19Z</time>
      </trkpt>
      <trkpt lat="59.8026447" lon="17.5920623">
        <ele>26.0929</ele>
        <time>2012-05-01T12:07:26Z</time>
      </trkpt>
      <trkpt lat="59.8027601" lon="17.5927782">
        <ele>28.4962</ele>
        <time>2012-05-01T12:07:33Z</time>
      </trkpt>
      <trkpt lat="59.8028163" lon="17.5936284">
        <ele>31.8607</ele>
        <time>2012-05-01T12:07:41Z</time>
      </trkpt>
      <trkpt lat="59.802848" lon="17.5943557">
        <ele>33.3029</ele>
        <time>2012-05-01T12:07:48Z</time>
      </trkpt>
      <trkpt lat="59.8028091" lon="17.5951688">
        <ele>34.7449</ele>
        <time>2012-05-01T12:07:55Z</time>
      </trkpt>
      <trkpt lat="59.8027306" lon="17.5958718">
        <ele>34.2642</ele>
        <time>2012-05-01T12:08:01Z</time>
      </trkpt>
      <trkpt lat="59.8025795" lon="17.5969956">
        <ele>33.3029</ele>
        <time>2012-05-01T12:08:10Z</time>
      </trkpt>
      <trkpt lat="59.8024186" lon="17.5981132">
        <ele>33.3029</ele>
        <time>2012-05-01T12:08:19Z</time>
      </trkpt>
      <trkpt lat="59.8022584" lon="17.5992106">
        <ele>33.3029</ele>
        <time>2012-05-01T12:08:28Z</time>
      </trkpt>
      <trkpt lat="59.8021009" lon="17.6002785">
        <ele>32.3416</ele>
        <time>2012-05-01T12:08:37Z</time>
      </trkpt>
      <trkpt lat="59.8019327" lon="17.6013274">
        <ele>28.4962</ele>
        <time>2012-05-01T12:08:45Z</time>
      </trkpt>
      <trkpt lat="59.8018203" lon="17.6022583">
        <ele>26.0929</ele>
        <time>2012-05-01T12:08:51Z</time>
      </trkpt>
      <trkpt lat="59.8018568" lon="17.6031569">
        <ele>24.1703</ele>
        <time>2012-05-01T12:08:56Z</time>
      </trkpt>
      <trkpt lat="59.8020218" lon="17.6038574">
        <ele>22.2476</ele>
        <time>2012-05-01T12:09:00Z</time>
      </trkpt>
      <trkpt lat="59.8022254" lon="17.6042761">
        <ele>20.325</ele>
        <time>2012-05-01T12:09:03Z</time>
      </trkpt>
      <trkpt lat="59.8026938" lon="17.6046172">
        <ele>15.999</ele>
        <time>2012-05-01T12:09:08Z</time>
      </trkpt>
      <trkpt lat="59.8034821" lon="17.6044557">
        <ele>10.2312</ele>
        <time>2012-05-01T12:09:16Z</time>
      </trkpt>
      <trkpt lat="59.8038384" lon="17.6043484">
        <ele>9.75061</ele>
        <time>2012-05-01T12:09:20Z</time>
      </trkpt>
      <trkpt lat="59.8041461" lon="17.6044676">
        <ele>8.78918</ele>
        <time>2012-05-01T12:09:24Z</time>
      </trkpt>
      <trkpt lat="59.8042791" lon="17.604791">
        <ele>7.82788</ele>
        <time>2012-05-01T12:09:27Z</time>
      </trkpt>
      <trkpt lat="59.8042893" lon="17.6051311">
        <ele>7.34717</ele>
        <time>2012-05-01T12:09:30Z</time>
      </trkpt>
      <trkpt lat="59.8041467" lon="17.6052922">
        <ele>6.38586</ele>
        <time>2012-05-01T12:09:33Z</time>
      </trkpt>
      <trkpt lat="59.804089" lon="17.6053154">
        <ele>5.90527</ele>
        <time>2012-05-01T12:09:34Z</time>
      </trkpt>
      <trkpt lat="59.8037937" lon="17.6054131">
        <ele>5.90527</ele>
        <time>2012-05-01T12:09:39Z</time>
      </trkpt>
      <trkpt lat="59.8034162" lon="17.6056336">
        <ele>8.30859</ele>
        <time>2012-05-01T12:09:45Z</time>
      </trkpt>
      <trkpt lat="59.8033531" lon="17.605683">
        <ele>8.78918</ele>
        <time>2012-05-01T12:09:46Z</time>
      </trkpt>
      <trkpt lat="59.8029708" lon="17.606115">
        <ele>9.2699</ele>
        <time>2012-05-01T12:09:51Z</time>
      </trkpt>
      <trkpt lat="59.8026484" lon="17.6065858">
        <ele>11.1925</ele>
        <time>2012-05-01T12:09:56Z</time>
      </trkpt>
      <trkpt lat="59.8025366" lon="17.606764">
        <ele>11.6732</ele>
        <time>2012-05-01T12:09:58Z</time>
      </trkpt>
      <trkpt lat="59.8023527" lon="17.6071951">
        <ele>13.5958</ele>
        <time>2012-05-01T12:10:03Z</time>
      </trkpt>
      <trkpt lat="59.8019876" lon="17.6077829">
        <ele>15.0377</ele>
        <time>2012-05-01T12:10:12Z</time>
      </trkpt>
      <trkpt lat="59.8017646" lon="17.6081233">
        <ele>17.4412</ele>
        <time>2012-05-01T12:10:18Z</time>
      </trkpt>
      <trkpt lat="59.8014939" lon="17.6086298">
        <ele>19.3638</ele>
        <time>2012-05-01T12:10:24Z</time>
      </trkpt>
      <trkpt lat="59.801446" lon="17.6087267">
        <ele>18.8831</ele>
        <time>2012-05-01T12:10:25Z</time>
      </trkpt>
      <trkpt lat="59.8012959" lon="17.6091296">
        <ele>20.325</ele>
        <time>2012-05-01T12:10:29Z</time>
      </trkpt>
      <trkpt lat="59.8011999" lon="17.6095004">
        <ele>19.3638</ele>
        <time>2012-05-01T12:10:32Z</time>
      </trkpt>
      <trkpt lat="59.8009799" lon="17.6104373">
        <ele>15.999</ele>
        <time>2012-05-01T12:10:39Z</time>
      </trkpt>
      <trkpt lat="59.8008768" lon="17.6109194">
        <ele>15.5184</ele>
        <time>2012-05-01T12:10:43Z</time>
      </trkpt>
      <trkpt lat="59.8007349" lon="17.6117219">
        <ele>16.9604</ele>
        <time>2012-05-01T12:10:51Z</time>
      </trkpt>
      <trkpt lat="59.8006143" lon="17.6123476">
        <ele>20.325</ele>
        <time>2012-05-01T12:10:58Z</time>
      </trkpt>
      <trkpt lat="59.8005692" lon="17.6125844">
        <ele>22.2476</ele>
        <time>2012-05-01T12:11:01Z</time>
      </trkpt>
      <trkpt lat="59.8005334" lon="17.6127443">
        <ele>22.7283</ele>
        <time>2012-05-01T12:11:03Z</time>
      </trkpt>
      <trkpt lat="59.8004838" lon="17.6130359">
        <ele>23.6896</ele>
        <time>2012-05-01T12:11:07Z</time>
      </trkpt>
      <trkpt lat="59.8004407" lon="17.6132457">
        <ele>25.6123</ele>
        <time>2012-05-01T12:11:10Z</time>
      </trkpt>
      <trkpt lat="59.80034" lon="17.6137778">
        <ele>28.4962</ele>
        <time>2012-05-01T12:11:17Z</time>
      </trkpt>
      <trkpt lat="59.8002185" lon="17.6142316">
        <ele>27.5349</ele>
        <time>2012-05-01T12:11:23Z</time>
      </trkpt>
      <trkpt lat="59.8000334" lon="17.6147983">
        <ele>27.5349</ele>
        <time>2012-05-01T12:11:31Z</time>
      </trkpt>
      <trkpt lat="59.7998847" lon="17.6151418">
        <ele>28.9769</ele>
        <time>2012-05-01T12:11:37Z</time>
      </trkpt>
      <trkpt lat="59.7997697" lon="17.6154893">
        <ele>30.8995</ele>
        <time>2012-05-01T12:11:42Z</time>
      </trkpt>
      <trkpt lat="59.7996217" lon="17.6159277">
        <ele>27.0543</ele>
        <time>2012-05-01T12:11:47Z</time>
      </trkpt>
      <trkpt lat="59.7994564" lon="17.6161648">
        <ele>25.1317</ele>
        <time>2012-05-01T12:11:50Z</time>
      </trkpt>
      <trkpt lat="59.7989904" lon="17.6166533">
        <ele>21.2864</ele>
        <time>2012-05-01T12:11:58Z</time>
      </trkpt>
      <trkpt lat="59.7984697" lon="17.617175">
        <ele>21.2864</ele>
        <time>2012-05-01T12:12:07Z</time>
      </trkpt>
      <trkpt lat="59.7979848" lon="17.6176582">
        <ele>22.7283</ele>
        <time>2012-05-01T12:12:15Z</time>
      </trkpt>
      <trkpt lat="59.7975806" lon="17.6180325">
        <ele>22.7283</ele>
        <time>2012-05-01T12:12:22Z</time>
      </trkpt>
      <trkpt lat="59.7971449" lon="17.6184217">
        <ele>21.767</ele>
        <time>2012-05-01T12:12:29Z</time>
      </trkpt>
      <trkpt lat="59.7966266" lon="17.6188284">
        <ele>21.2864</ele>
        <time>2012-05-01T12:12:37Z</time>
      </trkpt>
      <trkpt lat="59.7962008" lon="17.6191942">
        <ele>21.767</ele>
        <time>2012-05-01T12:12:44Z</time>
      </trkpt>
      <trkpt lat="59.7960753" lon="17.619248">
        <ele>21.2864</ele>
        <time>2012-05-01T12:12:46Z</time>
      </trkpt>
      <trkpt lat="59.7955838" lon="17.6196594">
        <ele>22.7283</ele>
        <time>2012-05-01T12:12:54Z</time>
      </trkpt>
      <trkpt lat="59.7950823" lon="17.6201437">
        <ele>19.8444</ele>
        <time>2012-05-01T12:13:02Z</time>
      </trkpt>
      <trkpt lat="59.7946934" lon="17.6204921">
        <ele>18.8831</ele>
        <time>2012-05-01T12:13:08Z</time>
      </trkpt>
      <trkpt lat="59.7940837" lon="17.6210646">
        <ele>15.5184</ele>
        <time>2012-05-01T12:13:17Z</time>
      </trkpt>
      <trkpt lat="59.793576" lon="17.6215645">
        <ele>15.5184</ele>
        <time>2012-05-01T12:13:24Z</time>
      </trkpt>
      <trkpt lat="59.7929461" lon="17.6222287">
        <ele>12.6344</ele>
        <time>2012-05-01T12:13:32Z</time>
      </trkpt>
      <trkpt lat="59.7922835" lon="17.6229481">
        <ele>9.2699</ele>
        <time>2012-05-01T12:13:41Z</time>
      </trkpt>
      <trkpt lat="59.7918644" lon="17.6234084">
        <ele>9.2699</ele>
        <time>2012-05-01T12:13:47Z</time>
      </trkpt>
      <trkpt lat="59.7915361" lon="17.6237656">
        <ele>8.78918</ele>
        <time>2012-05-01T12:13:52Z</time>
      </trkpt>
      <trkpt lat="59.7912919" lon="17.6241453">
        <ele>8.78918</ele>
        <time>2012-05-01T12:13:56Z</time>
      </trkpt>
      <trkpt lat="59.7908274" lon="17.6246483">
        <ele>8.78918</ele>
        <time>2012-05-01T12:14:03Z</time>
      </trkpt>
      <trkpt lat="59.7902248" lon="17.6252823">
        <ele>10.2312</ele>
        <time>2012-05-01T12:14:12Z</time>
      </trkpt>
      <trkpt lat="59.789736" lon="17.6257868">
        <ele>10.2312</ele>
        <time>2012-05-01T12:14:20Z</time>
      </trkpt>
      <trkpt lat="59.789303" lon="17.62625">
        <ele>7.82788</ele>
        <time>2012-05-01T12:14:27Z</time>
      </trkpt>
      <trkpt lat="59.78882" lon="17.6267866">
        <ele>6.86646</ele>
        <time>2012-05-01T12:14:35Z</time>
      </trkpt>
      <trkpt lat="59.7884213" lon="17.6272615">
        <ele>5.90527</ele>
        <time>2012-05-01T12:14:41Z</time>
      </trkpt>
      <trkpt lat="59.7878857" lon="17.6278321">
        <ele>3.50195</ele>
        <time>2012-05-01T12:14:49Z</time>
      </trkpt>
      <trkpt lat="59.7874636" lon="17.6282644">
        <ele>3.02124</ele>
        <time>2012-05-01T12:14:55Z</time>
      </trkpt>
      <trkpt lat="59.7871641" lon="17.628587">
        <ele>2.54065</ele>
        <time>2012-05-01T12:15:00Z</time>
      </trkpt>
      <trkpt lat="59.7870574" lon="17.6287498">
        <ele>3.50195</ele>
        <time>2012-05-01T12:15:02Z</time>
      </trkpt>
      <trkpt lat="59.7867979" lon="17.6293319">
        <ele>4.94385</ele>
        <time>2012-05-01T12:15:07Z</time>
      </trkpt>
      <trkpt lat="59.7865959" lon="17.6301257">
        <ele>5.42456</ele>
        <time>2012-05-01T12:15:13Z</time>
      </trkpt>
      <trkpt lat="59.7864912" lon="17.6308188">
        <ele>5.90527</ele>
        <time>2012-05-01T12:15:19Z</time>
      </trkpt>
      <trkpt lat="59.7864301" lon="17.6314725">
        <ele>7.34717</ele>
        <time>2012-05-01T12:15:25Z</time>
      </trkpt>
      <trkpt lat="59.7864171" lon="17.6317704">
        <ele>8.78918</ele>
        <time>2012-05-01T12:15:28Z</time>
      </trkpt>
      <trkpt lat="59.7864213" lon="17.6324716">
        <ele>11.1925</ele>
        <time>2012-05-01T12:15:36Z</time>
      </trkpt>
      <trkpt lat="59.7864202" lon="17.6325572">
        <ele>11.1925</ele>
        <time>2012-05-01T12:15:37Z</time>
      </trkpt>
      <trkpt lat="59.7864425" lon="17.6329038">
        <ele>13.5958</ele>
        <time>2012-05-01T12:15:41Z</time>
      </trkpt>
      <trkpt lat="59.786506" lon="17.6336009">
        <ele>17.4412</ele>
        <time>2012-05-01T12:15:49Z</time>
      </trkpt>
      <trkpt lat="59.7866071" lon="17.6342714">
        <ele>16.9604</ele>
        <time>2012-05-01T12:15:57Z</time>
      </trkpt>
      <trkpt lat="59.7866761" lon="17.6346431">
        <ele>17.4412</ele>
        <time>2012-05-01T12:16:02Z</time>
      </trkpt>
      <trkpt lat="59.7868212" lon="17.6353312">
        <ele>15.999</ele>
        <time>2012-05-01T12:16:11Z</time>
      </trkpt>
      <trkpt lat="59.7870205" lon="17.6359355">
        <ele>18.4023</ele>
        <time>2012-05-01T12:16:19Z</time>
      </trkpt>
      <trkpt lat="59.7872563" lon="17.6364941">
        <ele>24.1703</ele>
        <time>2012-05-01T12:16:27Z</time>
      </trkpt>
      <trkpt lat="59.7873138" lon="17.6366073">
        <ele>25.1317</ele>
        <time>2012-05-01T12:16:29Z</time>
      </trkpt>
      <trkpt lat="59.787627" lon="17.6372823">
        <ele>26.0929</ele>
        <time>2012-05-01T12:16:40Z</time>
      </trkpt>
      <trkpt lat="59.7878122" lon="17.6376136">
        <ele>26.5736</ele>
        <time>2012-05-01T12:16:46Z</time>
      </trkpt>
      <trkpt lat="59.7880125" lon="17.6380435">
        <ele>26.5736</ele>
        <time>2012-05-01T12:16:53Z</time>
      </trkpt>
      <trkpt lat="59.78817" lon="17.638395">
        <ele>27.0543</ele>
        <time>2012-05-01T12:16:59Z</time>
      </trkpt>
      <trkpt lat="59.7884431" lon="17.6389317">
        <ele>33.3029</ele>
        <time>2012-05-01T12:17:07Z</time>
      </trkpt>
      <trkpt lat="59.7887415" lon="17.6395198">
        <ele>34.7449</ele>
        <time>2012-05-01T12:17:16Z</time>
      </trkpt>
      <trkpt lat="59.7889464" lon="17.6400378">
        <ele>35.2255</ele>
        <time>2012-05-01T12:17:23Z</time>
      </trkpt>
      <trkpt lat="59.78903" lon="17.640453">
        <ele>35.7061</ele>
        <time>2012-05-01T12:17:28Z</time>
      </trkpt>
      <trkpt lat="59.7890932" lon="17.641221">
        <ele>34.7449</ele>
        <time>2012-05-01T12:17:36Z</time>
      </trkpt>
      <trkpt lat="59.789086" lon="17.6419843">
        <ele>31.3801</ele>
        <time>2012-05-01T12:17:43Z</time>
      </trkpt>
      <trkpt lat="59.789032" lon="17.642839">
        <ele>28.4962</ele>
        <time>2012-05-01T12:17:51Z</time>
      </trkpt>
      <trkpt lat="59.7889507" lon="17.6437023">
        <ele>26.0929</ele>
        <time>2012-05-01T12:17:58Z</time>
      </trkpt>
      <trkpt lat="59.7889103" lon="17.6440727">
        <ele>25.6123</ele>
        <time>2012-05-01T12:18:01Z</time>
      </trkpt>
      <trkpt lat="59.7888203" lon="17.6451564">
        <ele>24.1703</ele>
        <time>2012-05-01T12:18:10Z</time>
      </trkpt>
      <trkpt lat="59.7887509" lon="17.6462076">
        <ele>25.6123</ele>
        <time>2012-05-01T12:18:18Z</time>
      </trkpt>
      <trkpt lat="59.7887145" lon="17.6469077">
        <ele>25.6123</ele>
        <time>2012-05-01T12:18:23Z</time>
      </trkpt>
      <trkpt lat="59.7886597" lon="17.6477332">
        <ele>21.767</ele>
        <time>2012-05-01T12:18:28Z</time>
      </trkpt>
      <trkpt lat="59.7886385" lon="17.6489273">
        <ele>23.209</ele>
        <time>2012-05-01T12:18:34Z</time>
      </trkpt>
      <trkpt lat="59.7886513" lon="17.6500642">
        <ele>24.651</ele>
        <time>2012-05-01T12:18:39Z</time>
      </trkpt>
      <trkpt lat="59.7887042" lon="17.6514796">
        <ele>17.9218</ele>
        <time>2012-05-01T12:18:45Z</time>
      </trkpt>
      <trkpt lat="59.7888426" lon="17.6532497">
        <ele>14.0764</ele>
        <time>2012-05-01T12:18:53Z</time>
      </trkpt>
      <trkpt lat="59.788961" lon="17.6544254">
        <ele>13.1151</ele>
        <time>2012-05-01T12:18:59Z</time>
      </trkpt>
      <trkpt lat="59.7891011" lon="17.6552036">
        <ele>13.1151</ele>
        <time>2012-05-01T12:19:04Z</time>
      </trkpt>
      <trkpt lat="59.7893821" lon="17.6560771">
        <ele>15.0377</ele>
        <time>2012-05-01T12:19:11Z</time>
      </trkpt>
      <trkpt lat="59.7895718" lon="17.6565949">
        <ele>12.1538</ele>
        <time>2012-05-01T12:19:16Z</time>
      </trkpt>
      <trkpt lat="59.7897177" lon="17.65707">
        <ele>11.6732</ele>
        <time>2012-05-01T12:19:21Z</time>
      </trkpt>
      <trkpt lat="59.7898189" lon="17.6575852">
        <ele>13.1151</ele>
        <time>2012-05-01T12:19:27Z</time>
      </trkpt>
      <trkpt lat="59.7898323" lon="17.6576677">
        <ele>13.1151</ele>
        <time>2012-05-01T12:19:28Z</time>
      </trkpt>
      <trkpt lat="59.7899012" lon="17.6580188">
        <ele>14.557</ele>
        <time>2012-05-01T12:19:33Z</time>
      </trkpt>
      <trkpt lat="59.7899132" lon="17.6581448">
        <ele>15.5184</ele>
        <time>2012-05-01T12:19:35Z</time>
      </trkpt>
      <trkpt lat="59.7900173" lon="17.658233">
        <ele>17.4412</ele>
        <time>2012-05-01T12:19:39Z</time>
      </trkpt>
      <trkpt lat="59.7901338" lon="17.6583323">
        <ele>17.9218</ele>
        <time>2012-05-01T12:19:44Z</time>
      </trkpt>
      <trkpt lat="59.7901415" lon="17.6583765">
        <ele>17.9218</ele>
        <time>2012-05-01T12:19:45Z</time>
      </trkpt>
      <trkpt lat="59.7902196" lon="17.6584376">
        <ele>16.9604</ele>
        <time>2012-05-01T12:19:49Z</time>
      </trkpt>
      <trkpt lat="59.7903686" lon="17.6584594">
        <ele>17.4412</ele>
        <time>2012-05-01T12:19:55Z</time>
      </trkpt>
      <trkpt lat="59.7905444" lon="17.6584099">
        <ele>18.4023</ele>
        <time>2012-05-01T12:20:01Z</time>
      </trkpt>
      <trkpt lat="59.790631" lon="17.6586241">
        <ele>18.4023</ele>
        <time>2012-05-01T12:20:05Z</time>
      </trkpt>
      <trkpt lat="59.7906747" lon="17.6590597">
        <ele>19.3638</ele>
        <time>2012-05-01T12:20:11Z</time>
      </trkpt>
      <trkpt lat="59.7908113" lon="17.6591206">
        <ele>17.9218</ele>
        <time>2012-05-01T12:20:15Z</time>
      </trkpt>
      <trkpt lat="59.7908825" lon="17.6590991">
        <ele>18.4023</ele>
        <time>2012-05-01T12:20:17Z</time>
      </trkpt>
      <trkpt lat="59.7911536" lon="17.6590468">
        <ele>18.8831</ele>
        <time>2012-05-01T12:20:24Z</time>
      </trkpt>
      <trkpt lat="59.7913344" lon="17.6589964">
        <ele>20.8057</ele>
        <time>2012-05-01T12:20:30Z</time>
      </trkpt>
      <trkpt lat="59.7914905" lon="17.6589561">
        <ele>22.2476</ele>
        <time>2012-05-01T12:20:35Z</time>
      </trkpt>
      <trkpt lat="59.7916652" lon="17.6590617">
        <ele>20.8057</ele>
        <time>2012-05-01T12:20:39Z</time>
      </trkpt>
      <trkpt lat="59.7918382" lon="17.6590216">
        <ele>20.8057</ele>
        <time>2012-05-01T12:20:42Z</time>
      </trkpt>
      <trkpt lat="59.7921473" lon="17.6589348">
        <ele>20.8057</ele>
        <time>2012-05-01T12:20:46Z</time>
      </trkpt>
      <trkpt lat="59.7926404" lon="17.6589358">
        <ele>17.4412</ele>
        <time>2012-05-01T12:20:53Z</time>
      </trkpt>
      <trkpt lat="59.7929772" lon="17.6588944">
        <ele>16.9604</ele>
        <time>2012-05-01T12:20:58Z</time>
      </trkpt>
      <trkpt lat="59.7932948" lon="17.6589382">
        <ele>10.7118</ele>
        <time>2012-05-01T12:21:03Z</time>
      </trkpt>
      <trkpt lat="59.7934745" lon="17.6589771">
        <ele>7.82788</ele>
        <time>2012-05-01T12:21:06Z</time>
      </trkpt>
      <trkpt lat="59.7937703" lon="17.659117">
        <ele>7.34717</ele>
        <time>2012-05-01T12:21:11Z</time>
      </trkpt>
      <trkpt lat="59.7940472" lon="17.6591747">
        <ele>10.2312</ele>
        <time>2012-05-01T12:21:16Z</time>
      </trkpt>
      <trkpt lat="59.7941529" lon="17.6591767">
        <ele>10.7118</ele>
        <time>2012-05-01T12:21:18Z</time>
      </trkpt>
      <trkpt lat="59.7945222" lon="17.659119">
        <ele>15.999</ele>
        <time>2012-05-01T12:21:24Z</time>
      </trkpt>
      <trkpt lat="59.7947452" lon="17.6591191">
        <ele>15.0377</ele>
        <time>2012-05-01T12:21:28Z</time>
      </trkpt>
      <trkpt lat="59.7952405" lon="17.6593372">
        <ele>13.1151</ele>
        <time>2012-05-01T12:21:36Z</time>
      </trkpt>
      <trkpt lat="59.7955738" lon="17.6594317">
        <ele>12.1538</ele>
        <time>2012-05-01T12:21:41Z</time>
      </trkpt>
      <trkpt lat="59.7960562" lon="17.6596917">
        <ele>11.1925</ele>
        <time>2012-05-01T12:21:48Z</time>
      </trkpt>
      <trkpt lat="59.7963083" lon="17.6597358">
        <ele>13.1151</ele>
        <time>2012-05-01T12:21:53Z</time>
      </trkpt>
      <trkpt lat="59.7964575" lon="17.6597169">
        <ele>11.1925</ele>
        <time>2012-05-01T12:21:57Z</time>
      </trkpt>
      <trkpt lat="59.7965795" lon="17.6597869">
        <ele>11.1925</ele>
        <time>2012-05-01T12:22:03Z</time>
      </trkpt>
      <trkpt lat="59.7966685" lon="17.659861">
        <ele>10.2312</ele>
        <time>2012-05-01T12:22:08Z</time>
      </trkpt>
      <trkpt lat="59.7968027" lon="17.6599563">
        <ele>12.1538</ele>
        <time>2012-05-01T12:22:13Z</time>
      </trkpt>
      <trkpt lat="59.797019" lon="17.6601263">
        <ele>7.82788</ele>
        <time>2012-05-01T12:22:19Z</time>
      </trkpt>
      <trkpt lat="59.7972213" lon="17.6602763">
        <ele>8.78918</ele>
        <time>2012-05-01T12:22:26Z</time>
      </trkpt>
      <trkpt lat="59.7973663" lon="17.6603508">
        <ele>11.1925</ele>
        <time>2012-05-01T12:22:32Z</time>
      </trkpt>
      <trkpt lat="59.7975669" lon="17.6603433">
        <ele>11.1925</ele>
        <time>2012-05-01T12:22:40Z</time>
      </trkpt>
      <trkpt lat="59.7976731" lon="17.6603478">
        <ele>12.1538</ele>
        <time>2012-05-01T12:22:45Z</time>
      </trkpt>
      <trkpt lat="59.7977807" lon="17.6603232">
        <ele>25.1317</ele>
        <time>2012-05-01T12:22:53Z</time>
      </trkpt>
      <trkpt lat="59.7978521" lon="17.6603614">
        <ele>30.4188</ele>
        <time>2012-05-01T12:23:02Z</time>
      </trkpt>
      <trkpt lat="59.7979119" lon="17.6603542">
        <ele>35.2255</ele>
        <time>2012-05-01T12:23:08Z</time>
      </trkpt>
      <trkpt lat="59.7980361" lon="17.6603395">
        <ele>37.1481</ele>
        <time>2012-05-01T12:23:14Z</time>
      </trkpt>
      <trkpt lat="59.7981794" lon="17.660216">
        <ele>39.0707</ele>
        <time>2012-05-01T12:23:19Z</time>
      </trkpt>
      <trkpt lat="59.798345" lon="17.6598828">
        <ele>38.1094</ele>
        <time>2012-05-01T12:23:24Z</time>
      </trkpt>
      <trkpt lat="59.7985784" lon="17.6594828">
        <ele>36.6675</ele>
        <time>2012-05-01T12:23:29Z</time>
      </trkpt>
      <trkpt lat="59.7986366" lon="17.6593827">
        <ele>36.1868</ele>
        <time>2012-05-01T12:23:30Z</time>
      </trkpt>
      <trkpt lat="59.7988305" lon="17.658797">
        <ele>36.1868</ele>
        <time>2012-05-01T12:23:35Z</time>
      </trkpt>
      <trkpt lat="59.7988498" lon="17.6587228">
        <ele>35.2255</ele>
        <time>2012-05-01T12:23:36Z</time>
      </trkpt>
      <trkpt lat="59.7989403" lon="17.6586503">
        <ele>32.3416</ele>
        <time>2012-05-01T12:23:40Z</time>
      </trkpt>
      <trkpt lat="59.7989799" lon="17.658886">
        <ele>28.0155</ele>
        <time>2012-05-01T12:23:44Z</time>
      </trkpt>
      <trkpt lat="59.7990165" lon="17.659563">
        <ele>21.767</ele>
        <time>2012-05-01T12:23:50Z</time>
      </trkpt>
      <trkpt lat="59.799025" lon="17.6596958">
        <ele>20.8057</ele>
        <time>2012-05-01T12:23:51Z</time>
      </trkpt>
      <trkpt lat="59.7991095" lon="17.6604964">
        <ele>14.0764</ele>
        <time>2012-05-01T12:23:57Z</time>
      </trkpt>
      <trkpt lat="59.799283" lon="17.6608607">
        <ele>11.6732</ele>
        <time>2012-05-01T12:24:02Z</time>
      </trkpt>
      <trkpt lat="59.7994341" lon="17.6607847">
        <ele>11.6732</ele>
        <time>2012-05-01T12:24:05Z</time>
      </trkpt>
      <trkpt lat="59.7996933" lon="17.6603773">
        <ele>8.30859</ele>
        <time>2012-05-01T12:24:10Z</time>
      </trkpt>
      <trkpt lat="59.8000165" lon="17.6601945">
        <ele>5.42456</ele>
        <time>2012-05-01T12:24:15Z</time>
      </trkpt>
      <trkpt lat="59.8002117" lon="17.6602961">
        <ele>4.46326</ele>
        <time>2012-05-01T12:24:18Z</time>
      </trkpt>
      <trkpt lat="59.8007216" lon="17.6607328">
        <ele>3.98267</ele>
        <time>2012-05-01T12:24:27Z</time>
      </trkpt>
      <trkpt lat="59.8009172" lon="17.660894">
        <ele>4.94385</ele>
        <time>2012-05-01T12:24:31Z</time>
      </trkpt>
      <trkpt lat="59.8010472" lon="17.6610632">
        <ele>4.46326</ele>
        <time>2012-05-01T12:24:34Z</time>
      </trkpt>
      <trkpt lat="59.8013142" lon="17.6614084">
        <ele>3.50195</ele>
        <time>2012-05-01T12:24:39Z</time>
      </trkpt>
      <trkpt lat="59.8015436" lon="17.6615165">
        <ele>3.50195</ele>
        <time>2012-05-01T12:24:43Z</time>
      </trkpt>
      <trkpt lat="59.8018663" lon="17.6617756">
        <ele>2.54065</ele>
        <time>2012-05-01T12:24:49Z</time>
      </trkpt>
      <trkpt lat="59.8022662" lon="17.6620636">
        <ele>1.57935</ele>
        <time>2012-05-01T12:24:56Z</time>
      </trkpt>
      <trkpt lat="59.8025443" lon="17.6624444">
        <ele>2.54065</ele>
        <time>2012-05-01T12:25:02Z</time>
      </trkpt>
      <trkpt lat="59.8028862" lon="17.6629696">
        <ele>3.50195</ele>
        <time>2012-05-01T12:25:10Z</time>
      </trkpt>
      <trkpt lat="59.8033141" lon="17.6635927">
        <ele>5.42456</ele>
        <time>2012-05-01T12:25:20Z</time>
      </trkpt>
      <trkpt lat="59.8038635" lon="17.664018">
        <ele>7.82788</ele>
        <time>2012-05-01T12:25:31Z</time>
      </trkpt>
      <trkpt lat="59.8041378" lon="17.6642362">
        <ele>8.30859</ele>
        <time>2012-05-01T12:25:37Z</time>
      </trkpt>
      <trkpt lat="59.8042263" lon="17.6642982">
        <ele>8.78918</ele>
        <time>2012-05-01T12:25:39Z</time>
      </trkpt>
      <trkpt lat="59.8045635" lon="17.664348">
        <ele>7.82788</ele>
        <time>2012-05-01T12:25:46Z</time>
      </trkpt>
      <trkpt lat="59.8048223" lon="17.6643727">
        <ele>7.34717</ele>
        <time>2012-05-01T12:25:51Z</time>
      </trkpt>
      <trkpt lat="59.8050541" lon="17.6644801">
        <ele>6.86646</ele>
        <time>2012-05-01T12:25:56Z</time>
      </trkpt>
      <trkpt lat="59.8052498" lon="17.6647697">
        <ele>6.86646</ele>
        <time>2012-05-01T12:26:01Z</time>
      </trkpt>
      <trkpt lat="59.8053613" lon="17.6649889">
        <ele>6.86646</ele>
        <time>2012-05-01T12:26:04Z</time>
      </trkpt>
      <trkpt lat="59.8056062" lon="17.6651477">
        <ele>6.38586</ele>
        <time>2012-05-01T12:26:09Z</time>
      </trkpt>
      <trkpt lat="59.8057063" lon="17.6650893">
        <ele>6.86646</ele>
        <time>2012-05-01T12:26:11Z</time>
      </trkpt>
      <trkpt lat="59.8061714" lon="17.6647918">
        <ele>6.38586</ele>
        <time>2012-05-01T12:26:20Z</time>
      </trkpt>
      <trkpt lat="59.806545" lon="17.6646249">
        <ele>8.30859</ele>
        <time>2012-05-01T12:26:27Z</time>
      </trkpt>
      <trkpt lat="59.8069222" lon="17.6646029">
        <ele>7.82788</ele>
        <time>2012-05-01T12:26:34Z</time>
      </trkpt>
      <trkpt lat="59.8074597" lon="17.6646613">
        <ele>5.90527</ele>
        <time>2012-05-01T12:26:44Z</time>
      </trkpt>
      <trkpt lat="59.8079379" lon="17.664777">
        <ele>5.42456</ele>
        <time>2012-05-01T12:26:53Z</time>
      </trkpt>
      <trkpt lat="59.8084034" lon="17.6649453">
        <ele>4.94385</ele>
        <time>2012-05-01T12:27:01Z</time>
      </trkpt>
      <trkpt lat="59.8085703" lon="17.6650362">
        <ele>4.94385</ele>
        <time>2012-05-01T12:27:04Z</time>
      </trkpt>
      <trkpt lat="59.8088918" lon="17.6653524">
        <ele>6.86646</ele>
        <time>2012-05-01T12:27:11Z</time>
      </trkpt>
      <trkpt lat="59.8089414" lon="17.6653908">
        <ele>6.86646</ele>
        <time>2012-05-01T12:27:12Z</time>
      </trkpt>
      <trkpt lat="59.8092478" lon="17.6654571">
        <ele>6.86646</ele>
        <time>2012-05-01T12:27:18Z</time>
      </trkpt>
      <trkpt lat="59.8093438" lon="17.6654756">
        <ele>6.86646</ele>
        <time>2012-05-01T12:27:20Z</time>
      </trkpt>
      <trkpt lat="59.809502" lon="17.6657216">
        <ele>6.38586</ele>
        <time>2012-05-01T12:27:24Z</time>
      </trkpt>
      <trkpt lat="59.8095309" lon="17.6658205">
        <ele>6.38586</ele>
        <time>2012-05-01T12:27:25Z</time>
      </trkpt>
      <trkpt lat="59.8098087" lon="17.6666961">
        <ele>6.38586</ele>
        <time>2012-05-01T12:27:34Z</time>
      </trkpt>
      <trkpt lat="59.8099037" lon="17.6670779">
        <ele>6.38586</ele>
        <time>2012-05-01T12:27:38Z</time>
      </trkpt>
      <trkpt lat="59.809882" lon="17.6675018">
        <ele>6.38586</ele>
        <time>2012-05-01T12:27:43Z</time>
      </trkpt>
      <trkpt lat="59.8098406" lon="17.6676372">
        <ele>6.38586</ele>
        <time>2012-05-01T12:27:45Z</time>
      </trkpt>
      <trkpt lat="59.8097892" lon="17.667874">
        <ele>6.86646</ele>
        <time>2012-05-01T12:27:48Z</time>
      </trkpt>
      <trkpt lat="59.8097701" lon="17.6683021">
        <ele>6.86646</ele>
        <time>2012-05-01T12:27:52Z</time>
      </trkpt>
      <trkpt lat="59.8098668" lon="17.6685575">
        <ele>6.86646</ele>
        <time>2012-05-01T12:27:55Z</time>
      </trkpt>
      <trkpt lat="59.8103155" lon="17.6689556">
        <ele>9.75061</ele>
        <time>2012-05-01T12:28:04Z</time>
      </trkpt>
      <trkpt lat="59.8106112" lon="17.6691922">
        <ele>10.2312</ele>
        <time>2012-05-01T12:28:11Z</time>
      </trkpt>
      <trkpt lat="59.8107263" lon="17.6692759">
        <ele>10.2312</ele>
        <time>2012-05-01T12:28:14Z</time>
      </trkpt>
      <trkpt lat="59.8110713" lon="17.6695525">
        <ele>10.2312</ele>
        <time>2012-05-01T12:28:21Z</time>
      </trkpt>
      <trkpt lat="59.8115277" lon="17.66991">
        <ele>9.75061</ele>
        <time>2012-05-01T12:28:30Z</time>
      </trkpt>
      <trkpt lat="59.8118452" lon="17.6700912">
        <ele>9.2699</ele>
        <time>2012-05-01T12:28:36Z</time>
      </trkpt>
      <trkpt lat="59.812269" lon="17.6701362">
        <ele>8.30859</ele>
        <time>2012-05-01T12:28:43Z</time>
      </trkpt>
      <trkpt lat="59.8128025" lon="17.6702612">
        <ele>7.34717</ele>
        <time>2012-05-01T12:28:52Z</time>
      </trkpt>
      <trkpt lat="59.8133116" lon="17.6706267">
        <ele>7.34717</ele>
        <time>2012-05-01T12:29:01Z</time>
      </trkpt>
      <trkpt lat="59.8136551" lon="17.670746">
        <ele>6.86646</ele>
        <time>2012-05-01T12:29:07Z</time>
      </trkpt>
      <trkpt lat="59.8141233" lon="17.6707318">
        <ele>5.42456</ele>
        <time>2012-05-01T12:29:15Z</time>
      </trkpt>
      <trkpt lat="59.8142313" lon="17.6707005">
        <ele>5.42456</ele>
        <time>2012-05-01T12:29:17Z</time>
      </trkpt>
      <trkpt lat="59.8146715" lon="17.6703761">
        <ele>4.46326</ele>
        <time>2012-05-01T12:29:26Z</time>
      </trkpt>
      <trkpt lat="59.8148123" lon="17.670247">
        <ele>3.50195</ele>
        <time>2012-05-01T12:29:29Z</time>
      </trkpt>
      <trkpt lat="59.8148964" lon="17.6701337">
        <ele>3.98267</ele>
        <time>2012-05-01T12:29:31Z</time>
      </trkpt>
      <trkpt lat="59.8149971" lon="17.6698266">
        <ele>3.50195</ele>
        <time>2012-05-01T12:29:35Z</time>
      </trkpt>
      <trkpt lat="59.8149963" lon="17.6697379">
        <ele>3.50195</ele>
        <time>2012-05-01T12:29:36Z</time>
      </trkpt>
      <trkpt lat="59.8150736" lon="17.6693611">
        <ele>2.54065</ele>
        <time>2012-05-01T12:29:41Z</time>
      </trkpt>
      <trkpt lat="59.8151863" lon="17.6692769">
        <ele>3.02124</ele>
        <time>2012-05-01T12:29:43Z</time>
      </trkpt>
      <trkpt lat="59.8153863" lon="17.6691698">
        <ele>3.02124</ele>
        <time>2012-05-01T12:29:46Z</time>
      </trkpt>
      <trkpt lat="59.8158353" lon="17.6691406">
        <ele>3.02124</ele>
        <time>2012-05-01T12:29:53Z</time>
      </trkpt>
      <trkpt lat="59.8161468" lon="17.6692415">
        <ele>3.02124</ele>
        <time>2012-05-01T12:29:59Z</time>
      </trkpt>
      <trkpt lat="59.8162473" lon="17.6692919">
        <ele>3.02124</ele>
        <time>2012-05-01T12:30:01Z</time>
      </trkpt>
      <trkpt lat="59.8164107" lon="17.6693266">
        <ele>3.50195</ele>
        <time>2012-05-01T12:30:04Z</time>
      </trkpt>
      <trkpt lat="59.8166362" lon="17.669393">
        <ele>3.50195</ele>
        <time>2012-05-01T12:30:08Z</time>
      </trkpt>
      <trkpt lat="59.8168307" lon="17.6692453">
        <ele>3.98267</ele>
        <time>2012-05-01T12:30:12Z</time>
      </trkpt>
      <trkpt lat="59.8168657" lon="17.6691603">
        <ele>4.46326</ele>
        <time>2012-05-01T12:30:13Z</time>
      </trkpt>
      <trkpt lat="59.8170725" lon="17.6688711">
        <ele>4.94385</ele>
        <time>2012-05-01T12:30:18Z</time>
      </trkpt>
      <trkpt lat="59.8172284" lon="17.6687831">
        <ele>3.50195</ele>
        <time>2012-05-01T12:30:21Z</time>
      </trkpt>
      <trkpt lat="59.8174484" lon="17.6685574">
        <ele>3.98267</ele>
        <time>2012-05-01T12:30:26Z</time>
      </trkpt>
      <trkpt lat="59.8176251" lon="17.6684998">
        <ele>3.02124</ele>
        <time>2012-05-01T12:30:30Z</time>
      </trkpt>
      <trkpt lat="59.8177821" lon="17.668531">
        <ele>3.02124</ele>
        <time>2012-05-01T12:30:33Z</time>
      </trkpt>
      <trkpt lat="59.8181363" lon="17.6687098">
        <ele>3.50195</ele>
        <time>2012-05-01T12:30:40Z</time>
      </trkpt>
      <trkpt lat="59.8184041" lon="17.6688401">
        <ele>3.98267</ele>
        <time>2012-05-01T12:30:45Z</time>
      </trkpt>
      <trkpt lat="59.8187782" lon="17.6688708">
        <ele>4.94385</ele>
        <time>2012-05-01T12:30:51Z</time>
      </trkpt>
      <trkpt lat="59.8189668" lon="17.6688531">
        <ele>5.90527</ele>
        <time>2012-05-01T12:30:54Z</time>
      </trkpt>
      <trkpt lat="59.8193821" lon="17.6687369">
        <ele>4.94385</ele>
        <time>2012-05-01T12:31:02Z</time>
      </trkpt>
      <trkpt lat="59.8196211" lon="17.668738">
        <ele>4.94385</ele>
        <time>2012-05-01T12:31:06Z</time>
      </trkpt>
      <trkpt lat="59.8200418" lon="17.668564">
        <ele>4.46326</ele>
        <time>2012-05-01T12:31:13Z</time>
      </trkpt>
      <trkpt lat="59.8204121" lon="17.6683451">
        <ele>5.42456</ele>
        <time>2012-05-01T12:31:20Z</time>
      </trkpt>
      <trkpt lat="59.8207751" lon="17.6681589">
        <ele>5.42456</ele>
        <time>2012-05-01T12:31:27Z</time>
      </trkpt>
      <trkpt lat="59.8212291" lon="17.6679542">
        <ele>6.38586</ele>
        <time>2012-05-01T12:31:35Z</time>
      </trkpt>
      <trkpt lat="59.8216351" lon="17.6677715">
        <ele>6.86646</ele>
        <time>2012-05-01T12:31:42Z</time>
      </trkpt>
      <trkpt lat="59.822033" lon="17.667686">
        <ele>6.86646</ele>
        <time>2012-05-01T12:31:49Z</time>
      </trkpt>
      <trkpt lat="59.8224909" lon="17.6676708">
        <ele>10.2312</ele>
        <time>2012-05-01T12:31:57Z</time>
      </trkpt>
      <trkpt lat="59.8229344" lon="17.6676046">
        <ele>9.75061</ele>
        <time>2012-05-01T12:32:05Z</time>
      </trkpt>
      <trkpt lat="59.8234202" lon="17.6673686">
        <ele>7.34717</ele>
        <time>2012-05-01T12:32:14Z</time>
      </trkpt>
      <trkpt lat="59.8238056" lon="17.667092">
        <ele>6.86646</ele>
        <time>2012-05-01T12:32:21Z</time>
      </trkpt>
      <trkpt lat="59.8241758" lon="17.6668253">
        <ele>7.82788</ele>
        <time>2012-05-01T12:32:29Z</time>
      </trkpt>
      <trkpt lat="59.8245121" lon="17.6667215">
        <ele>7.82788</ele>
        <time>2012-05-01T12:32:35Z</time>
      </trkpt>
      <trkpt lat="59.8248623" lon="17.666534">
        <ele>7.82788</ele>
        <time>2012-05-01T12:32:41Z</time>
      </trkpt>
      <trkpt lat="59.825184" lon="17.6662129">
        <ele>7.34717</ele>
        <time>2012-05-01T12:32:47Z</time>
      </trkpt>
      <trkpt lat="59.8255299" lon="17.6659149">
        <ele>6.38586</ele>
        <time>2012-05-01T12:32:53Z</time>
      </trkpt>
      <trkpt lat="59.8260085" lon="17.6654026">
        <ele>6.38586</ele>
        <time>2012-05-01T12:33:02Z</time>
      </trkpt>
      <trkpt lat="59.8265241" lon="17.6648576">
        <ele>7.34717</ele>
        <time>2012-05-01T12:33:12Z</time>
      </trkpt>
      <trkpt lat="59.8270458" lon="17.664315">
        <ele>6.38586</ele>
        <time>2012-05-01T12:33:22Z</time>
      </trkpt>
      <trkpt lat="59.827603" lon="17.6638274">
        <ele>5.90527</ele>
        <time>2012-05-01T12:33:32Z</time>
      </trkpt>
      <trkpt lat="59.8281796" lon="17.6634621">
        <ele>5.90527</ele>
        <time>2012-05-01T12:33:42Z</time>
      </trkpt>
      <trkpt lat="59.8286869" lon="17.6630624">
        <ele>6.38586</ele>
        <time>2012-05-01T12:33:52Z</time>
      </trkpt>
      <trkpt lat="59.8291061" lon="17.6627815">
        <ele>6.38586</ele>
        <time>2012-05-01T12:34:00Z</time>
      </trkpt>
      <trkpt lat="59.8295341" lon="17.6626189">
        <ele>5.42456</ele>
        <time>2012-05-01T12:34:08Z</time>
      </trkpt>
      <trkpt lat="59.8300693" lon="17.6623427">
        <ele>3.98267</ele>
        <time>2012-05-01T12:34:18Z</time>
      </trkpt>
      <trkpt lat="59.8304538" lon="17.6621097">
        <ele>3.50195</ele>
        <time>2012-05-01T12:34:25Z</time>
      </trkpt>
      <trkpt lat="59.8308998" lon="17.6617832">
        <ele>3.98267</ele>
        <time>2012-05-01T12:34:33Z</time>
      </trkpt>
      <trkpt lat="59.8312887" lon="17.6612655">
        <ele>2.54065</ele>
        <time>2012-05-01T12:34:41Z</time>
      </trkpt>
      <trkpt lat="59.8314882" lon="17.6608349">
        <ele>2.06006</ele>
        <time>2012-05-01T12:34:46Z</time>
      </trkpt>
      <trkpt lat="59.8317275" lon="17.66058">
        <ele>1.57935</ele>
        <time>2012-05-01T12:34:51Z</time>
      </trkpt>
      <trkpt lat="59.8318778" lon="17.6604614">
        <ele>1.57935</ele>
        <time>2012-05-01T12:34:54Z</time>
      </trkpt>
      <trkpt lat="59.8321078" lon="17.6601419">
        <ele>1.57935</ele>
        <time>2012-05-01T12:34:59Z</time>
      </trkpt>
      <trkpt lat="59.8323775" lon="17.6596999">
        <ele>2.06006</ele>
        <time>2012-05-01T12:35:05Z</time>
      </trkpt>
      <trkpt lat="59.8326594" lon="17.6592492">
        <ele>3.98267</ele>
        <time>2012-05-01T12:35:11Z</time>
      </trkpt>
      <trkpt lat="59.8329187" lon="17.6590321">
        <ele>3.02124</ele>
        <time>2012-05-01T12:35:16Z</time>
      </trkpt>
      <trkpt lat="59.8329743" lon="17.6590119">
        <ele>3.02124</ele>
        <time>2012-05-01T12:35:17Z</time>
      </trkpt>
      <trkpt lat="59.8333722" lon="17.6589649">
        <ele>3.02124</ele>
        <time>2012-05-01T12:35:24Z</time>
      </trkpt>
      <trkpt lat="59.833697" lon="17.658802">
        <ele>3.50195</ele>
        <time>2012-05-01T12:35:30Z</time>
      </trkpt>
      <trkpt lat="59.8341352" lon="17.6585694">
        <ele>2.54065</ele>
        <time>2012-05-01T12:35:38Z</time>
      </trkpt>
      <trkpt lat="59.8344657" lon="17.658421">
        <ele>2.54065</ele>
        <time>2012-05-01T12:35:44Z</time>
      </trkpt>
      <trkpt lat="59.8349335" lon="17.6582425">
        <ele>3.02124</ele>
        <time>2012-05-01T12:35:52Z</time>
      </trkpt>
      <trkpt lat="59.8353406" lon="17.6581251">
        <ele>3.02124</ele>
        <time>2012-05-01T12:35:59Z</time>
      </trkpt>
      <trkpt lat="59.8357181" lon="17.6579996">
        <ele>3.50195</ele>
        <time>2012-05-01T12:36:06Z</time>
      </trkpt>
      <trkpt lat="59.8362088" lon="17.6577963">
        <ele>3.02124</ele>
        <time>2012-05-01T12:36:15Z</time>
      </trkpt>
      <trkpt lat="59.8365948" lon="17.6576206">
        <ele>3.50195</ele>
        <time>2012-05-01T12:36:22Z</time>
      </trkpt>
      <trkpt lat="59.8369915" lon="17.6574062">
        <ele>4.94385</ele>
        <time>2012-05-01T12:36:29Z</time>
      </trkpt>
      <trkpt lat="59.8374002" lon="17.6572733">
        <ele>6.38586</ele>
        <time>2012-05-01T12:36:36Z</time>
      </trkpt>
      <trkpt lat="59.8377603" lon="17.657196">
        <ele>4.46326</ele>
        <time>2012-05-01T12:36:42Z</time>
      </trkpt>
      <trkpt lat="59.8379974" lon="17.6571322">
        <ele>2.54065</ele>
        <time>2012-05-01T12:36:46Z</time>
      </trkpt>
      <trkpt lat="59.8381672" lon="17.657069">
        <ele>2.06006</ele>
        <time>2012-05-01T12:36:49Z</time>
      </trkpt>
      <trkpt lat="59.8385337" lon="17.6569916">
        <ele>0.137451</ele>
        <time>2012-05-01T12:36:55Z</time>
      </trkpt>
      <trkpt lat="59.8388759" lon="17.6569447">
        <ele>0.618042</ele>
        <time>2012-05-01T12:37:01Z</time>
      </trkpt>
      <trkpt lat="59.8393066" lon="17.6569339">
        <ele>0</ele>
        <time>2012-05-01T12:37:09Z</time>
      </trkpt>
      <trkpt lat="59.8395824" lon="17.6569023">
        <ele>0</ele>
        <time>2012-05-01T12:37:14Z</time>
      </trkpt>
      <trkpt lat="59.8399496" lon="17.6568841">
        <ele>1.57935</ele>
        <time>2012-05-01T12:37:20Z</time>
      </trkpt>
      <trkpt lat="59.8403957" lon="17.6568457">
        <ele>3.98267</ele>
        <time>2012-05-01T12:37:27Z</time>
      </trkpt>
      <trkpt lat="59.8407771" lon="17.6568229">
        <ele>4.46326</ele>
        <time>2012-05-01T12:37:33Z</time>
      </trkpt>
      <trkpt lat="59.8409069" lon="17.6568141">
        <ele>4.46326</ele>
        <time>2012-05-01T12:37:35Z</time>
      </trkpt>
      <trkpt lat="59.8411344" lon="17.6566751">
        <ele>6.38586</ele>
        <time>2012-05-01T12:37:39Z</time>
      </trkpt>
      <trkpt lat="59.8413475" lon="17.6564164">
        <ele>8.30859</ele>
        <time>2012-05-01T12:37:43Z</time>
      </trkpt>
      <trkpt lat="59.8416281" lon="17.6559925">
        <ele>12.1538</ele>
        <time>2012-05-01T12:37:50Z</time>
      </trkpt>
      <trkpt lat="59.8418223" lon="17.6556999">
        <ele>12.1538</ele>
        <time>2012-05-01T12:37:55Z</time>
      </trkpt>
      <trkpt lat="59.8421585" lon="17.6551936">
        <ele>11.1925</ele>
        <time>2012-05-01T12:38:02Z</time>
      </trkpt>
      <trkpt lat="59.8425021" lon="17.654743">
        <ele>10.7118</ele>
        <time>2012-05-01T12:38:09Z</time>
      </trkpt>
      <trkpt lat="59.8429398" lon="17.6542112">
        <ele>9.2699</ele>
        <time>2012-05-01T12:38:18Z</time>
      </trkpt>
      <trkpt lat="59.8433258" lon="17.6537672">
        <ele>9.2699</ele>
        <time>2012-05-01T12:38:26Z</time>
      </trkpt>
      <trkpt lat="59.8437541" lon="17.6532902">
        <ele>9.75061</ele>
        <time>2012-05-01T12:38:35Z</time>
      </trkpt>
      <trkpt lat="59.8441047" lon="17.6528794">
        <ele>9.2699</ele>
        <time>2012-05-01T12:38:42Z</time>
      </trkpt>
      <trkpt lat="59.8445604" lon="17.6523027">
        <ele>10.2312</ele>
        <time>2012-05-01T12:38:51Z</time>
      </trkpt>
      <trkpt lat="59.8449515" lon="17.6517529">
        <ele>9.75061</ele>
        <time>2012-05-01T12:38:59Z</time>
      </trkpt>
      <trkpt lat="59.8453589" lon="17.6512129">
        <ele>9.2699</ele>
        <time>2012-05-01T12:39:07Z</time>
      </trkpt>
      <trkpt lat="59.8457842" lon="17.6507679">
        <ele>9.75061</ele>
        <time>2012-05-01T12:39:15Z</time>
      </trkpt>
      <trkpt lat="59.8461081" lon="17.6504261">
        <ele>9.2699</ele>
        <time>2012-05-01T12:39:21Z</time>
      </trkpt>
      <trkpt lat="59.8463535" lon="17.6501701">
        <ele>9.2699</ele>
        <time>2012-05-01T12:39:26Z</time>
      </trkpt>
      <trkpt lat="59.8467739" lon="17.6497522">
        <ele>9.2699</ele>
        <time>2012-05-01T12:39:34Z</time>
      </trkpt>
      <trkpt lat="59.8470677" lon="17.6494424">
        <ele>9.2699</ele>
        <time>2012-05-01T12:39:40Z</time>
      </trkpt>
      <trkpt lat="59.847446" lon="17.6490442">
        <ele>9.75061</ele>
        <time>2012-05-01T12:39:48Z</time>
      </trkpt>
      <trkpt lat="59.847748" lon="17.6487526">
        <ele>9.75061</ele>
        <time>2012-05-01T12:39:54Z</time>
      </trkpt>
      <trkpt lat="59.8480702" lon="17.6485631">
        <ele>9.2699</ele>
        <time>2012-05-01T12:40:00Z</time>
      </trkpt>
      <trkpt lat="59.8484213" lon="17.6483125">
        <ele>9.2699</ele>
        <time>2012-05-01T12:40:07Z</time>
      </trkpt>
      <trkpt lat="59.8487648" lon="17.6479364">
        <ele>10.7118</ele>
        <time>2012-05-01T12:40:14Z</time>
      </trkpt>
      <trkpt lat="59.8491373" lon="17.6474711">
        <ele>13.1151</ele>
        <time>2012-05-01T12:40:22Z</time>
      </trkpt>
      <trkpt lat="59.8494543" lon="17.6470817">
        <ele>14.0764</ele>
        <time>2012-05-01T12:40:29Z</time>
      </trkpt>
      <trkpt lat="59.8497942" lon="17.6467019">
        <ele>15.5184</ele>
        <time>2012-05-01T12:40:36Z</time>
      </trkpt>
      <trkpt lat="59.8498775" lon="17.6466">
        <ele>15.5184</ele>
        <time>2012-05-01T12:40:38Z</time>
      </trkpt>
      <trkpt lat="59.8501478" lon="17.6463446">
        <ele>15.999</ele>
        <time>2012-05-01T12:40:44Z</time>
      </trkpt>
      <trkpt lat="59.8501934" lon="17.6463134">
        <ele>15.999</ele>
        <time>2012-05-01T12:40:45Z</time>
      </trkpt>
      <trkpt lat="59.8504343" lon="17.646096">
        <ele>15.999</ele>
        <time>2012-05-01T12:40:51Z</time>
      </trkpt>
      <trkpt lat="59.8505681" lon="17.645984">
        <ele>15.0377</ele>
        <time>2012-05-01T12:40:54Z</time>
      </trkpt>
      <trkpt lat="59.8508922" lon="17.6456867">
        <ele>13.5958</ele>
        <time>2012-05-01T12:41:01Z</time>
      </trkpt>
      <trkpt lat="59.8509325" lon="17.6456447">
        <ele>13.1151</ele>
        <time>2012-05-01T12:41:02Z</time>
      </trkpt>
      <trkpt lat="59.8511459" lon="17.6454893">
        <ele>13.5958</ele>
        <time>2012-05-01T12:41:07Z</time>
      </trkpt>
      <trkpt lat="59.8514303" lon="17.6451899">
        <ele>13.1151</ele>
        <time>2012-05-01T12:41:13Z</time>
      </trkpt>
      <trkpt lat="59.8516257" lon="17.6449748">
        <ele>12.1538</ele>
        <time>2012-05-01T12:41:17Z</time>
      </trkpt>
      <trkpt lat="59.8518336" lon="17.6447294">
        <ele>13.1151</ele>
        <time>2012-05-01T12:41:21Z</time>
      </trkpt>
      <trkpt lat="59.8521845" lon="17.6443248">
        <ele>14.0764</ele>
        <time>2012-05-01T12:41:28Z</time>
      </trkpt>
      <trkpt lat="59.8525282" lon="17.6438908">
        <ele>16.4797</ele>
        <time>2012-05-01T12:41:35Z</time>
      </trkpt>
      <trkpt lat="59.8528411" lon="17.6434687">
        <ele>15.5184</ele>
        <time>2012-05-01T12:41:42Z</time>
      </trkpt>
      <trkpt lat="59.8531083" lon="17.6430665">
        <ele>12.1538</ele>
        <time>2012-05-01T12:41:48Z</time>
      </trkpt>
      <trkpt lat="59.8533996" lon="17.642537">
        <ele>7.82788</ele>
        <time>2012-05-01T12:41:55Z</time>
      </trkpt>
      <trkpt lat="59.8534362" lon="17.6424729">
        <ele>8.78918</ele>
        <time>2012-05-01T12:41:56Z</time>
      </trkpt>
      <trkpt lat="59.8536453" lon="17.6421244">
        <ele>8.78918</ele>
        <time>2012-05-01T12:42:01Z</time>
      </trkpt>
      <trkpt lat="59.8537247" lon="17.6420076">
        <ele>8.78918</ele>
        <time>2012-05-01T12:42:03Z</time>
      </trkpt>
      <trkpt lat="59.8539082" lon="17.6418897">
        <ele>8.78918</ele>
        <time>2012-05-01T12:42:07Z</time>
      </trkpt>
      <trkpt lat="59.8540499" lon="17.641812">
        <ele>7.82788</ele>
        <time>2012-05-01T12:42:10Z</time>
      </trkpt>
      <trkpt lat="59.8542698" lon="17.6415934">
        <ele>7.82788</ele>
        <time>2012-05-01T12:42:15Z</time>
      </trkpt>
      <trkpt lat="59.8544204" lon="17.6414494">
        <ele>7.82788</ele>
        <time>2012-05-01T12:42:19Z</time>
      </trkpt>
      <trkpt lat="59.8546933" lon="17.6411587">
        <ele>9.2699</ele>
        <time>2012-05-01T12:42:26Z</time>
      </trkpt>
      <trkpt lat="59.8548472" lon="17.6411479">
        <ele>9.2699</ele>
        <time>2012-05-01T12:42:30Z</time>
      </trkpt>
      <trkpt lat="59.8551629" lon="17.6409149">
        <ele>9.75061</ele>
        <time>2012-05-01T12:42:37Z</time>
      </trkpt>
      <trkpt lat="59.8555983" lon="17.640403">
        <ele>12.6344</ele>
        <time>2012-05-01T12:42:46Z</time>
      </trkpt>
      <trkpt lat="59.8559708" lon="17.6399899">
        <ele>18.4023</ele>
        <time>2012-05-01T12:42:54Z</time>
      </trkpt>
      <trkpt lat="59.8561675" lon="17.6397974">
        <ele>18.8831</ele>
        <time>2012-05-01T12:42:58Z</time>
      </trkpt>
      <trkpt lat="59.8565002" lon="17.6394125">
        <ele>25.1317</ele>
        <time>2012-05-01T12:43:05Z</time>
      </trkpt>
      <trkpt lat="59.856805" lon="17.6390483">
        <ele>27.5349</ele>
        <time>2012-05-01T12:43:11Z</time>
      </trkpt>
      <trkpt lat="59.856844" lon="17.6390044">
        <ele>28.0155</ele>
        <time>2012-05-01T12:43:12Z</time>
      </trkpt>
      <trkpt lat="59.8571458" lon="17.6385071">
        <ele>29.4575</ele>
        <time>2012-05-01T12:43:19Z</time>
      </trkpt>
      <trkpt lat="59.8572768" lon="17.638263">
        <ele>29.4575</ele>
        <time>2012-05-01T12:43:22Z</time>
      </trkpt>
      <trkpt lat="59.8574877" lon="17.6378298">
        <ele>29.9381</ele>
        <time>2012-05-01T12:43:27Z</time>
      </trkpt>
      <trkpt lat="59.8575487" lon="17.6376616">
        <ele>30.4188</ele>
        <time>2012-05-01T12:43:29Z</time>
      </trkpt>
      <trkpt lat="59.857606" lon="17.637488">
        <ele>30.8995</ele>
        <time>2012-05-01T12:43:32Z</time>
      </trkpt>
      <trkpt lat="59.8577509" lon="17.637258">
        <ele>27.0543</ele>
        <time>2012-05-01T12:43:39Z</time>
      </trkpt>
      <trkpt lat="59.8578542" lon="17.6369699">
        <ele>26.5736</ele>
        <time>2012-05-01T12:43:43Z</time>
      </trkpt>
      <trkpt lat="59.8580714" lon="17.6363014">
        <ele>26.5736</ele>
        <time>2012-05-01T12:43:51Z</time>
      </trkpt>
      <trkpt lat="59.8582402" lon="17.6358918">
        <ele>27.0543</ele>
        <time>2012-05-01T12:43:57Z</time>
      </trkpt>
      <trkpt lat="59.8582649" lon="17.6358198">
        <ele>27.5349</ele>
        <time>2012-05-01T12:43:58Z</time>
      </trkpt>
      <trkpt lat="59.8584341" lon="17.6357082">
        <ele>25.1317</ele>
        <time>2012-05-01T12:44:02Z</time>
      </trkpt>
      <trkpt lat="59.8585385" lon="17.6357651">
        <ele>23.209</ele>
        <time>2012-05-01T12:44:04Z</time>
      </trkpt>
      <trkpt lat="59.8586707" lon="17.6360401">
        <ele>21.2864</ele>
        <time>2012-05-01T12:44:09Z</time>
      </trkpt>
      <trkpt lat="59.8586826" lon="17.6360712">
        <ele>20.8057</ele>
        <time>2012-05-01T12:44:10Z</time>
      </trkpt>
      <trkpt lat="59.85875" lon="17.636063">
        <ele>19.3638</ele>
        <time>2012-05-01T12:44:14Z</time>
      </trkpt>
      <trkpt lat="59.8589733" lon="17.6357882">
        <ele>18.4023</ele>
        <time>2012-05-01T12:44:20Z</time>
      </trkpt>
      <trkpt lat="59.8591846" lon="17.6354171">
        <ele>18.4023</ele>
        <time>2012-05-01T12:44:25Z</time>
      </trkpt>
      <trkpt lat="59.859556" lon="17.6347266">
        <ele>15.999</ele>
        <time>2012-05-01T12:44:34Z</time>
      </trkpt>
      <trkpt lat="59.859714" lon="17.6344459">
        <ele>15.5184</ele>
        <time>2012-05-01T12:44:38Z</time>
      </trkpt>
      <trkpt lat="59.8599947" lon="17.6341511">
        <ele>11.6732</ele>
        <time>2012-05-01T12:44:45Z</time>
      </trkpt>
      <trkpt lat="59.8601019" lon="17.6340489">
        <ele>11.1925</ele>
        <time>2012-05-01T12:44:50Z</time>
      </trkpt>
      <trkpt lat="59.8601268" lon="17.6340351">
        <ele>10.2312</ele>
        <time>2012-05-01T12:44:51Z</time>
      </trkpt>
      <trkpt lat="59.8602755" lon="17.6339893">
        <ele>10.7118</ele>
        <time>2012-05-01T12:44:56Z</time>
      </trkpt>
      <trkpt lat="59.8604432" lon="17.6337229">
        <ele>13.5958</ele>
        <time>2012-05-01T12:45:01Z</time>
      </trkpt>
      <trkpt lat="59.8605494" lon="17.6335723">
        <ele>18.4023</ele>
        <time>2012-05-01T12:45:04Z</time>
      </trkpt>
      <trkpt lat="59.8606158" lon="17.633467">
        <ele>21.2864</ele>
        <time>2012-05-01T12:45:06Z</time>
      </trkpt>
      <trkpt lat="59.8608214" lon="17.6333045">
        <ele>21.767</ele>
        <time>2012-05-01T12:45:10Z</time>
      </trkpt>
      <trkpt lat="59.8609402" lon="17.633183">
        <ele>21.767</ele>
        <time>2012-05-01T12:45:13Z</time>
      </trkpt>
      <trkpt lat="59.8610862" lon="17.6331213">
        <ele>20.325</ele>
        <time>2012-05-01T12:45:18Z</time>
      </trkpt>
      <trkpt lat="59.8611881" lon="17.6330313">
        <ele>17.4412</ele>
        <time>2012-05-01T12:45:21Z</time>
      </trkpt>
      <trkpt lat="59.8611606" lon="17.6328226">
        <ele>12.1538</ele>
        <time>2012-05-01T12:45:25Z</time>
      </trkpt>
      <trkpt lat="59.8610757" lon="17.6325982">
        <ele>9.75061</ele>
        <time>2012-05-01T12:45:30Z</time>
      </trkpt>
      <trkpt lat="59.8610899" lon="17.6324396">
        <ele>10.7118</ele>
        <time>2012-05-01T12:45:34Z</time>
      </trkpt>
      <trkpt lat="59.8611806" lon="17.6323323">
        <ele>12.1538</ele>
        <time>2012-05-01T12:45:41Z</time>
      </trkpt>
      <trkpt lat="59.8612277" lon="17.6322966">
        <ele>13.1151</ele>
        <time>2012-05-01T12:45:47Z</time>
      </trkpt>
      <trkpt lat="59.8612811" lon="17.6322535">
        <ele>13.5958</ele>
        <time>2012-05-01T12:45:55Z</time>
      </trkpt>
      <trkpt lat="59.8613042" lon="17.6322499">
        <ele>13.1151</ele>
        <time>2012-05-01T12:45:57Z</time>
      </trkpt>
      <trkpt lat="59.8613436" lon="17.6322371">
        <ele>13.5958</ele>
        <time>2012-05-01T12:46:01Z</time>
      </trkpt>
      <trkpt lat="59.8614504" lon="17.6321797">
        <ele>11.6732</ele>
        <time>2012-05-01T12:46:07Z</time>
      </trkpt>
      <trkpt lat="59.8615797" lon="17.63208">
        <ele>10.7118</ele>
        <time>2012-05-01T12:46:11Z</time>
      </trkpt>
      <trkpt lat="59.8616789" lon="17.6320561">
        <ele>10.7118</ele>
        <time>2012-05-01T12:46:16Z</time>
      </trkpt>
      <trkpt lat="59.861799" lon="17.63199">
        <ele>10.2312</ele>
        <time>2012-05-01T12:46:21Z</time>
      </trkpt>
      <trkpt lat="59.8618737" lon="17.631972">
        <ele>10.2312</ele>
        <time>2012-05-01T12:46:23Z</time>
      </trkpt>
      <trkpt lat="59.8619409" lon="17.6319417">
        <ele>10.7118</ele>
        <time>2012-05-01T12:46:26Z</time>
      </trkpt>
      <trkpt lat="59.8620182" lon="17.6318823">
        <ele>10.2312</ele>
        <time>2012-05-01T12:46:30Z</time>
      </trkpt>
      <trkpt lat="59.8621823" lon="17.6319854">
        <ele>10.7118</ele>
        <time>2012-05-01T12:46:35Z</time>
      </trkpt>
      <trkpt lat="59.8623859" lon="17.632093">
        <ele>11.1925</ele>
        <time>2012-05-01T12:46:40Z</time>
      </trkpt>
      <trkpt lat="59.8624336" lon="17.632076">
        <ele>11.1925</ele>
        <time>2012-05-01T12:46:41Z</time>
      </trkpt>
      <trkpt lat="59.8627776" lon="17.6318656">
        <ele>8.78918</ele>
        <time>2012-05-01T12:46:49Z</time>
      </trkpt>
      <trkpt lat="59.8630965" lon="17.6316797">
        <ele>8.30859</ele>
        <time>2012-05-01T12:46:55Z</time>
      </trkpt>
      <trkpt lat="59.8631551" lon="17.6316486">
        <ele>7.82788</ele>
        <time>2012-05-01T12:46:56Z</time>
      </trkpt>
      <trkpt lat="59.8635839" lon="17.6313896">
        <ele>4.94385</ele>
        <time>2012-05-01T12:47:04Z</time>
      </trkpt>
      <trkpt lat="59.8639834" lon="17.6311592">
        <ele>3.98267</ele>
        <time>2012-05-01T12:47:11Z</time>
      </trkpt>
      <trkpt lat="59.8640377" lon="17.6311295">
        <ele>3.98267</ele>
        <time>2012-05-01T12:47:12Z</time>
      </trkpt>
      <trkpt lat="59.8641623" lon="17.630969">
        <ele>4.94385</ele>
        <time>2012-05-01T12:47:15Z</time>
      </trkpt>
      <trkpt lat="59.8644284" lon="17.6307518">
        <ele>3.50195</ele>
        <time>2012-05-01T12:47:21Z</time>
      </trkpt>
      <trkpt lat="59.8647117" lon="17.630321">
        <ele>8.78918</ele>
        <time>2012-05-01T12:47:28Z</time>
      </trkpt>
      <trkpt lat="59.864763" lon="17.6302455">
        <ele>8.30859</ele>
        <time>2012-05-01T12:47:29Z</time>
      </trkpt>
      <trkpt lat="59.8650908" lon="17.6298932">
        <ele>8.78918</ele>
        <time>2012-05-01T12:47:35Z</time>
      </trkpt>
      <trkpt lat="59.8651406" lon="17.6296584">
        <ele>11.1925</ele>
        <time>2012-05-01T12:47:39Z</time>
      </trkpt>
      <trkpt lat="59.8651775" lon="17.6294987">
        <ele>11.6732</ele>
        <time>2012-05-01T12:47:41Z</time>
      </trkpt>
      <trkpt lat="59.8653852" lon="17.6290968">
        <ele>11.6732</ele>
        <time>2012-05-01T12:47:47Z</time>
      </trkpt>
      <trkpt lat="59.8655183" lon="17.6289484">
        <ele>12.1538</ele>
        <time>2012-05-01T12:47:50Z</time>
      </trkpt>
      <trkpt lat="59.86566" lon="17.62866">
        <ele>12.6344</ele>
        <time>2012-05-01T12:47:54Z</time>
      </trkpt>
      <trkpt lat="59.8657069" lon="17.6284846">
        <ele>14.0764</ele>
        <time>2012-05-01T12:47:56Z</time>
      </trkpt>
      <trkpt lat="59.8658828" lon="17.6281138">
        <ele>15.999</ele>
        <time>2012-05-01T12:48:01Z</time>
      </trkpt>
      <trkpt lat="59.866013" lon="17.6279504">
        <ele>16.4797</ele>
        <time>2012-05-01T12:48:04Z</time>
      </trkpt>
      <trkpt lat="59.8663226" lon="17.6274119">
        <ele>12.6344</ele>
        <time>2012-05-01T12:48:12Z</time>
      </trkpt>
      <trkpt lat="59.8663695" lon="17.627332">
        <ele>11.6732</ele>
        <time>2012-05-01T12:48:13Z</time>
      </trkpt>
      <trkpt lat="59.8666419" lon="17.6269501">
        <ele>10.7118</ele>
        <time>2012-05-01T12:48:19Z</time>
      </trkpt>
      <trkpt lat="59.8667826" lon="17.6267465">
        <ele>13.1151</ele>
        <time>2012-05-01T12:48:24Z</time>
      </trkpt>
      <trkpt lat="59.866951" lon="17.6262815">
        <ele>14.0764</ele>
        <time>2012-05-01T12:48:30Z</time>
      </trkpt>
      <trkpt lat="59.8672313" lon="17.6258612">
        <ele>13.5958</ele>
        <time>2012-05-01T12:48:36Z</time>
      </trkpt>
      <trkpt lat="59.8675157" lon="17.6255164">
        <ele>13.5958</ele>
        <time>2012-05-01T12:48:42Z</time>
      </trkpt>
      <trkpt lat="59.8676467" lon="17.6253424">
        <ele>14.557</ele>
        <time>2012-05-01T12:48:45Z</time>
      </trkpt>
      <trkpt lat="59.8680007" lon="17.6249881">
        <ele>14.557</ele>
        <time>2012-05-01T12:48:53Z</time>
      </trkpt>
      <trkpt lat="59.8681452" lon="17.6248736">
        <ele>15.5184</ele>
        <time>2012-05-01T12:48:56Z</time>
      </trkpt>
      <trkpt lat="59.8685683" lon="17.6246059">
        <ele>15.5184</ele>
        <time>2012-05-01T12:49:04Z</time>
      </trkpt>
      <trkpt lat="59.868875" lon="17.6243477">
        <ele>15.5184</ele>
        <time>2012-05-01T12:49:10Z</time>
      </trkpt>
      <trkpt lat="59.8691789" lon="17.6240596">
        <ele>15.5184</ele>
        <time>2012-05-01T12:49:17Z</time>
      </trkpt>
      <trkpt lat="59.8692152" lon="17.6240309">
        <ele>15.5184</ele>
        <time>2012-05-01T12:49:18Z</time>
      </trkpt>
      <trkpt lat="59.8693044" lon="17.6238783">
        <ele>15.0377</ele>
        <time>2012-05-01T12:49:23Z</time>
      </trkpt>
      <trkpt lat="59.8692924" lon="17.6237951">
        <ele>14.0764</ele>
        <time>2012-05-01T12:49:25Z</time>
      </trkpt>
      <trkpt lat="59.8692341" lon="17.6234536">
        <ele>11.6732</ele>
        <time>2012-05-01T12:49:30Z</time>
      </trkpt>
      <trkpt lat="59.8692174" lon="17.6230256">
        <ele>9.75061</ele>
        <time>2012-05-01T12:49:35Z</time>
      </trkpt>
      <trkpt lat="59.8693111" lon="17.6227208">
        <ele>8.78918</ele>
        <time>2012-05-01T12:49:39Z</time>
      </trkpt>
      <trkpt lat="59.8695159" lon="17.6220981">
        <ele>8.30859</ele>
        <time>2012-05-01T12:49:46Z</time>
      </trkpt>
      <trkpt lat="59.8696204" lon="17.6218254">
        <ele>8.30859</ele>
        <time>2012-05-01T12:49:49Z</time>
      </trkpt>
      <trkpt lat="59.8697588" lon="17.6211363">
        <ele>9.75061</ele>
        <time>2012-05-01T12:49:56Z</time>
      </trkpt>
      <trkpt lat="59.8698599" lon="17.6204778">
        <ele>8.78918</ele>
        <time>2012-05-01T12:50:03Z</time>
      </trkpt>
      <trkpt lat="59.8699493" lon="17.6196029">
        <ele>6.86646</ele>
        <time>2012-05-01T12:50:12Z</time>
      </trkpt>
      <trkpt lat="59.8699597" lon="17.6195106">
        <ele>6.38586</ele>
        <time>2012-05-01T12:50:13Z</time>
      </trkpt>
      <trkpt lat="59.869956" lon="17.6191179">
        <ele>5.42456</ele>
        <time>2012-05-01T12:50:17Z</time>
      </trkpt>
      <trkpt lat="59.869994" lon="17.6185723">
        <ele>8.30859</ele>
        <time>2012-05-01T12:50:22Z</time>
      </trkpt>
      <trkpt lat="59.8700126" lon="17.6184709">
        <ele>7.82788</ele>
        <time>2012-05-01T12:50:23Z</time>
      </trkpt>
      <trkpt lat="59.870122" lon="17.6174552">
        <ele>12.1538</ele>
        <time>2012-05-01T12:50:32Z</time>
      </trkpt>
      <trkpt lat="59.8701939" lon="17.6169729">
        <ele>15.0377</ele>
        <time>2012-05-01T12:50:36Z</time>
      </trkpt>
      <trkpt lat="59.8702615" lon="17.616659">
        <ele>15.5184</ele>
        <time>2012-05-01T12:50:39Z</time>
      </trkpt>
      <trkpt lat="59.8703637" lon="17.6162299">
        <ele>15.0377</ele>
        <time>2012-05-01T12:50:43Z</time>
      </trkpt>
      <trkpt lat="59.8704094" lon="17.6160275">
        <ele>13.5958</ele>
        <time>2012-05-01T12:50:45Z</time>
      </trkpt>
      <trkpt lat="59.8704657" lon="17.6157007">
        <ele>14.0764</ele>
        <time>2012-05-01T12:50:48Z</time>
      </trkpt>
      <trkpt lat="59.8706367" lon="17.61502">
        <ele>15.0377</ele>
        <time>2012-05-01T12:50:55Z</time>
      </trkpt>
      <trkpt lat="59.870794" lon="17.6145548">
        <ele>15.0377</ele>
        <time>2012-05-01T12:51:01Z</time>
      </trkpt>
      <trkpt lat="59.8709559" lon="17.6138628">
        <ele>14.557</ele>
        <time>2012-05-01T12:51:09Z</time>
      </trkpt>
      <trkpt lat="59.8710279" lon="17.6134555">
        <ele>15.0377</ele>
        <time>2012-05-01T12:51:13Z</time>
      </trkpt>
      <trkpt lat="59.8712402" lon="17.6128148">
        <ele>15.999</ele>
        <time>2012-05-01T12:51:20Z</time>
      </trkpt>
      <trkpt lat="59.8714682" lon="17.6122932">
        <ele>16.4797</ele>
        <time>2012-05-01T12:51:26Z</time>
      </trkpt>
      <trkpt lat="59.8718609" lon="17.61147">
        <ele>15.999</ele>
        <time>2012-05-01T12:51:35Z</time>
      </trkpt>
      <trkpt lat="59.8721355" lon="17.6109754">
        <ele>14.557</ele>
        <time>2012-05-01T12:51:41Z</time>
      </trkpt>
      <trkpt lat="59.8724061" lon="17.6105019">
        <ele>13.5958</ele>
        <time>2012-05-01T12:51:47Z</time>
      </trkpt>
      <trkpt lat="59.8726455" lon="17.6100697">
        <ele>15.5184</ele>
        <time>2012-05-01T12:51:53Z</time>
      </trkpt>
      <trkpt lat="59.8727564" lon="17.6098513">
        <ele>15.999</ele>
        <time>2012-05-01T12:51:56Z</time>
      </trkpt>
      <trkpt lat="59.872864" lon="17.6095156">
        <ele>16.4797</ele>
        <time>2012-05-01T12:52:00Z</time>
      </trkpt>
      <trkpt lat="59.8730438" lon="17.6092679">
        <ele>16.9604</ele>
        <time>2012-05-01T12:52:04Z</time>
      </trkpt>
      <trkpt lat="59.8730983" lon="17.6092162">
        <ele>15.999</ele>
        <time>2012-05-01T12:52:05Z</time>
      </trkpt>
      <trkpt lat="59.8732974" lon="17.6088353">
        <ele>15.0377</ele>
        <time>2012-05-01T12:52:10Z</time>
      </trkpt>
      <trkpt lat="59.8734106" lon="17.6084931">
        <ele>14.0764</ele>
        <time>2012-05-01T12:52:14Z</time>
      </trkpt>
      <trkpt lat="59.8735831" lon="17.608347">
        <ele>13.1151</ele>
        <time>2012-05-01T12:52:18Z</time>
      </trkpt>
      <trkpt lat="59.8738271" lon="17.6084396">
        <ele>11.6732</ele>
        <time>2012-05-01T12:52:23Z</time>
      </trkpt>
      <trkpt lat="59.8738806" lon="17.6084272">
        <ele>11.6732</ele>
        <time>2012-05-01T12:52:24Z</time>
      </trkpt>
      <trkpt lat="59.8742637" lon="17.6082615">
        <ele>12.6344</ele>
        <time>2012-05-01T12:52:31Z</time>
      </trkpt>
      <trkpt lat="59.8745517" lon="17.6081148">
        <ele>13.1151</ele>
        <time>2012-05-01T12:52:36Z</time>
      </trkpt>
      <trkpt lat="59.874955" lon="17.607804">
        <ele>14.0764</ele>
        <time>2012-05-01T12:52:43Z</time>
      </trkpt>
      <trkpt lat="59.8751984" lon="17.6074831">
        <ele>14.557</ele>
        <time>2012-05-01T12:52:48Z</time>
      </trkpt>
      <trkpt lat="59.8752774" lon="17.6073118">
        <ele>13.5958</ele>
        <time>2012-05-01T12:52:50Z</time>
      </trkpt>
      <trkpt lat="59.8753869" lon="17.6069705">
        <ele>12.1538</ele>
        <time>2012-05-01T12:52:53Z</time>
      </trkpt>
      <trkpt lat="59.8757003" lon="17.6062735">
        <ele>11.6732</ele>
        <time>2012-05-01T12:52:59Z</time>
      </trkpt>
      <trkpt lat="59.8758013" lon="17.6060963">
        <ele>12.6344</ele>
        <time>2012-05-01T12:53:01Z</time>
      </trkpt>
      <trkpt lat="59.8759696" lon="17.6058585">
        <ele>15.0377</ele>
        <time>2012-05-01T12:53:04Z</time>
      </trkpt>
      <trkpt lat="59.8761396" lon="17.6055042">
        <ele>15.5184</ele>
        <time>2012-05-01T12:53:09Z</time>
      </trkpt>
      <trkpt lat="59.876215" lon="17.6055316">
        <ele>14.557</ele>
        <time>2012-05-01T12:53:12Z</time>
      </trkpt>
      <trkpt lat="59.8762321" lon="17.605568">
        <ele>14.557</ele>
        <time>2012-05-01T12:53:13Z</time>
      </trkpt>
      <trkpt lat="59.8763815" lon="17.6058695">
        <ele>15.0377</ele>
        <time>2012-05-01T12:53:19Z</time>
      </trkpt>
      <trkpt lat="59.8765254" lon="17.6062585">
        <ele>13.5958</ele>
        <time>2012-05-01T12:53:24Z</time>
      </trkpt>
      <trkpt lat="59.8767301" lon="17.6068977">
        <ele>13.5958</ele>
        <time>2012-05-01T12:53:31Z</time>
      </trkpt>
      <trkpt lat="59.8769822" lon="17.6077187">
        <ele>15.0377</ele>
        <time>2012-05-01T12:53:40Z</time>
      </trkpt>
      <trkpt lat="59.8772488" lon="17.6086164">
        <ele>15.999</ele>
        <time>2012-05-01T12:53:49Z</time>
      </trkpt>
      <trkpt lat="59.8775521" lon="17.6096349">
        <ele>17.4412</ele>
        <time>2012-05-01T12:53:59Z</time>
      </trkpt>
      <trkpt lat="59.8777478" lon="17.6102781">
        <ele>20.325</ele>
        <time>2012-05-01T12:54:06Z</time>
      </trkpt>
      <trkpt lat="59.877922" lon="17.6108199">
        <ele>22.2476</ele>
        <time>2012-05-01T12:54:13Z</time>
      </trkpt>
      <trkpt lat="59.8780655" lon="17.6111835">
        <ele>22.7283</ele>
        <time>2012-05-01T12:54:18Z</time>
      </trkpt>
      <trkpt lat="59.8782668" lon="17.6114673">
        <ele>21.2864</ele>
        <time>2012-05-01T12:54:23Z</time>
      </trkpt>
      <trkpt lat="59.8784416" lon="17.6118684">
        <ele>20.8057</ele>
        <time>2012-05-01T12:54:28Z</time>
      </trkpt>
      <trkpt lat="59.8786919" lon="17.6126863">
        <ele>21.767</ele>
        <time>2012-05-01T12:54:37Z</time>
      </trkpt>
      <trkpt lat="59.878737" lon="17.6128572">
        <ele>22.2476</ele>
        <time>2012-05-01T12:54:39Z</time>
      </trkpt>
      <trkpt lat="59.8789021" lon="17.6134126">
        <ele>22.2476</ele>
        <time>2012-05-01T12:54:45Z</time>
      </trkpt>
      <trkpt lat="59.8790802" lon="17.6140279">
        <ele>22.2476</ele>
        <time>2012-05-01T12:54:51Z</time>
      </trkpt>
      <trkpt lat="59.8792885" lon="17.6148744">
        <ele>23.209</ele>
        <time>2012-05-01T12:54:59Z</time>
      </trkpt>
      <trkpt lat="59.8793386" lon="17.6150723">
        <ele>24.1703</ele>
        <time>2012-05-01T12:55:01Z</time>
      </trkpt>
      <trkpt lat="59.8794797" lon="17.6157214">
        <ele>26.5736</ele>
        <time>2012-05-01T12:55:08Z</time>
      </trkpt>
      <trkpt lat="59.8795733" lon="17.6161374">
        <ele>28.0155</ele>
        <time>2012-05-01T12:55:14Z</time>
      </trkpt>
      <trkpt lat="59.8796289" lon="17.6163405">
        <ele>28.0155</ele>
        <time>2012-05-01T12:55:18Z</time>
      </trkpt>
      <trkpt lat="59.8796526" lon="17.616484">
        <ele>27.5349</ele>
        <time>2012-05-01T12:55:22Z</time>
      </trkpt>
      <trkpt lat="59.8796665" lon="17.6165433">
        <ele>27.5349</ele>
        <time>2012-05-01T12:55:23Z</time>
      </trkpt>
      <trkpt lat="59.8798061" lon="17.6171225">
        <ele>28.0155</ele>
        <time>2012-05-01T12:55:29Z</time>
      </trkpt>
      <trkpt lat="59.8799625" lon="17.6179105">
        <ele>28.4962</ele>
        <time>2012-05-01T12:55:36Z</time>
      </trkpt>
      <trkpt lat="59.8801515" lon="17.6187782">
        <ele>29.9381</ele>
        <time>2012-05-01T12:55:44Z</time>
      </trkpt>
      <trkpt lat="59.8803246" lon="17.6196246">
        <ele>29.9381</ele>
        <time>2012-05-01T12:55:52Z</time>
      </trkpt>
      <trkpt lat="59.8804976" lon="17.6203482">
        <ele>28.4962</ele>
        <time>2012-05-01T12:55:59Z</time>
      </trkpt>
      <trkpt lat="59.8805473" lon="17.6205584">
        <ele>28.0155</ele>
        <time>2012-05-01T12:56:01Z</time>
      </trkpt>
      <trkpt lat="59.88075" lon="17.620952">
        <ele>26.0929</ele>
        <time>2012-05-01T12:56:06Z</time>
      </trkpt>
      <trkpt lat="59.8810684" lon="17.6213351">
        <ele>21.767</ele>
        <time>2012-05-01T12:56:13Z</time>
      </trkpt>
      <trkpt lat="59.881117" lon="17.6213865">
        <ele>22.2476</ele>
        <time>2012-05-01T12:56:14Z</time>
      </trkpt>
      <trkpt lat="59.8813249" lon="17.6218209">
        <ele>22.7283</ele>
        <time>2012-05-01T12:56:19Z</time>
      </trkpt>
      <trkpt lat="59.881459" lon="17.622298">
        <ele>22.2476</ele>
        <time>2012-05-01T12:56:23Z</time>
      </trkpt>
      <trkpt lat="59.8815714" lon="17.6229041">
        <ele>24.1703</ele>
        <time>2012-05-01T12:56:29Z</time>
      </trkpt>
      <trkpt lat="59.8815954" lon="17.6232728">
        <ele>24.651</ele>
        <time>2012-05-01T12:56:33Z</time>
      </trkpt>
      <trkpt lat="59.8815493" lon="17.6237336">
        <ele>23.6896</ele>
        <time>2012-05-01T12:56:38Z</time>
      </trkpt>
      <trkpt lat="59.8814906" lon="17.6240125">
        <ele>22.7283</ele>
        <time>2012-05-01T12:56:41Z</time>
      </trkpt>
      <trkpt lat="59.8815777" lon="17.6242723">
        <ele>21.2864</ele>
        <time>2012-05-01T12:56:45Z</time>
      </trkpt>
      <trkpt lat="59.8816212" lon="17.6242938">
        <ele>21.2864</ele>
        <time>2012-05-01T12:56:46Z</time>
      </trkpt>
      <trkpt lat="59.8819325" lon="17.6245693">
        <ele>19.8444</ele>
        <time>2012-05-01T12:56:54Z</time>
      </trkpt>
      <trkpt lat="59.8820048" lon="17.6246846">
        <ele>19.3638</ele>
        <time>2012-05-01T12:56:56Z</time>
      </trkpt>
      <trkpt lat="59.8822344" lon="17.625256">
        <ele>21.767</ele>
        <time>2012-05-01T12:57:03Z</time>
      </trkpt>
      <trkpt lat="59.8822686" lon="17.6253341">
        <ele>21.767</ele>
        <time>2012-05-01T12:57:04Z</time>
      </trkpt>
      <trkpt lat="59.88232" lon="17.6254992">
        <ele>21.2864</ele>
        <time>2012-05-01T12:57:06Z</time>
      </trkpt>
      <trkpt lat="59.8824306" lon="17.6257931">
        <ele>21.767</ele>
        <time>2012-05-01T12:57:10Z</time>
      </trkpt>
      <trkpt lat="59.8826608" lon="17.625964">
        <ele>21.2864</ele>
        <time>2012-05-01T12:57:16Z</time>
      </trkpt>
      <trkpt lat="59.8827105" lon="17.6259655">
        <ele>21.2864</ele>
        <time>2012-05-01T12:57:17Z</time>
      </trkpt>
      <trkpt lat="59.8830624" lon="17.6258405">
        <ele>21.2864</ele>
        <time>2012-05-01T12:57:24Z</time>
      </trkpt>
      <trkpt lat="59.8834485" lon="17.6256724">
        <ele>20.8057</ele>
        <time>2012-05-01T12:57:31Z</time>
      </trkpt>
      <trkpt lat="59.8838591" lon="17.6255478">
        <ele>21.2864</ele>
        <time>2012-05-01T12:57:38Z</time>
      </trkpt>
      <trkpt lat="59.8843262" lon="17.6255092">
        <ele>19.8444</ele>
        <time>2012-05-01T12:57:46Z</time>
      </trkpt>
      <trkpt lat="59.8848934" lon="17.6255085">
        <ele>18.4023</ele>
        <time>2012-05-01T12:57:56Z</time>
      </trkpt>
      <trkpt lat="59.8853006" lon="17.6254828">
        <ele>16.9604</ele>
        <time>2012-05-01T12:58:03Z</time>
      </trkpt>
      <trkpt lat="59.8857079" lon="17.6253273">
        <ele>16.9604</ele>
        <time>2012-05-01T12:58:09Z</time>
      </trkpt>
      <trkpt lat="59.8859082" lon="17.6255186">
        <ele>17.4412</ele>
        <time>2012-05-01T12:58:13Z</time>
      </trkpt>
      <trkpt lat="59.8861499" lon="17.6256253">
        <ele>17.9218</ele>
        <time>2012-05-01T12:58:18Z</time>
      </trkpt>
      <trkpt lat="59.8866127" lon="17.6256117">
        <ele>18.4023</ele>
        <time>2012-05-01T12:58:26Z</time>
      </trkpt>
      <trkpt lat="59.8870176" lon="17.6255543">
        <ele>20.325</ele>
        <time>2012-05-01T12:58:33Z</time>
      </trkpt>
      <trkpt lat="59.8872478" lon="17.6254476">
        <ele>22.2476</ele>
        <time>2012-05-01T12:58:38Z</time>
      </trkpt>
      <trkpt lat="59.8875315" lon="17.6253383">
        <ele>23.6896</ele>
        <time>2012-05-01T12:58:44Z</time>
      </trkpt>
      <trkpt lat="59.8878897" lon="17.6252443">
        <ele>24.651</ele>
        <time>2012-05-01T12:58:52Z</time>
      </trkpt>
      <trkpt lat="59.8879383" lon="17.6252301">
        <ele>25.6123</ele>
        <time>2012-05-01T12:58:53Z</time>
      </trkpt>
      <trkpt lat="59.8883314" lon="17.6251051">
        <ele>28.0155</ele>
        <time>2012-05-01T12:59:01Z</time>
      </trkpt>
      <trkpt lat="59.8885901" lon="17.6250772">
        <ele>29.4575</ele>
        <time>2012-05-01T12:59:06Z</time>
      </trkpt>
      <trkpt lat="59.8889935" lon="17.6248501">
        <ele>30.8995</ele>
        <time>2012-05-01T12:59:13Z</time>
      </trkpt>
      <trkpt lat="59.889317" lon="17.6245709">
        <ele>30.4188</ele>
        <time>2012-05-01T12:59:19Z</time>
      </trkpt>
      <trkpt lat="59.8894124" lon="17.6244508">
        <ele>29.4575</ele>
        <time>2012-05-01T12:59:21Z</time>
      </trkpt>
      <trkpt lat="59.8895084" lon="17.6242898">
        <ele>27.5349</ele>
        <time>2012-05-01T12:59:23Z</time>
      </trkpt>
      <trkpt lat="59.8897349" lon="17.62413">
        <ele>25.1317</ele>
        <time>2012-05-01T12:59:27Z</time>
      </trkpt>
      <trkpt lat="59.8897967" lon="17.6241368">
        <ele>24.651</ele>
        <time>2012-05-01T12:59:28Z</time>
      </trkpt>
      <trkpt lat="59.8903223" lon="17.6241493">
        <ele>22.7283</ele>
        <time>2012-05-01T12:59:37Z</time>
      </trkpt>
      <trkpt lat="59.8907092" lon="17.6241556">
        <ele>24.651</ele>
        <time>2012-05-01T12:59:44Z</time>
      </trkpt>
      <trkpt lat="59.8910918" lon="17.6241635">
        <ele>25.6123</ele>
        <time>2012-05-01T12:59:52Z</time>
      </trkpt>
      <trkpt lat="59.8914011" lon="17.624151">
        <ele>25.6123</ele>
        <time>2012-05-01T12:59:58Z</time>
      </trkpt>
      <trkpt lat="59.8917913" lon="17.6241184">
        <ele>25.1317</ele>
        <time>2012-05-01T13:00:05Z</time>
      </trkpt>
      <trkpt lat="59.8919951" lon="17.6241425">
        <ele>26.0929</ele>
        <time>2012-05-01T13:00:09Z</time>
      </trkpt>
      <trkpt lat="59.8922288" lon="17.6239185">
        <ele>25.6123</ele>
        <time>2012-05-01T13:00:14Z</time>
      </trkpt>
      <trkpt lat="59.8923529" lon="17.6235247">
        <ele>22.7283</ele>
        <time>2012-05-01T13:00:18Z</time>
      </trkpt>
      <trkpt lat="59.8923916" lon="17.6234428">
        <ele>21.767</ele>
        <time>2012-05-01T13:00:19Z</time>
      </trkpt>
      <trkpt lat="59.892703" lon="17.6231335">
        <ele>24.651</ele>
        <time>2012-05-01T13:00:25Z</time>
      </trkpt>
      <trkpt lat="59.8927717" lon="17.6231433">
        <ele>25.1317</ele>
        <time>2012-05-01T13:00:26Z</time>
      </trkpt>
      <trkpt lat="59.8930993" lon="17.6234273">
        <ele>26.0929</ele>
        <time>2012-05-01T13:00:32Z</time>
      </trkpt>
      <trkpt lat="59.8933893" lon="17.6238456">
        <ele>26.5736</ele>
        <time>2012-05-01T13:00:38Z</time>
      </trkpt>
      <trkpt lat="59.8935958" lon="17.6241639">
        <ele>28.0155</ele>
        <time>2012-05-01T13:00:42Z</time>
      </trkpt>
      <trkpt lat="59.89371" lon="17.6246182">
        <ele>28.9769</ele>
        <time>2012-05-01T13:00:46Z</time>
      </trkpt>
      <trkpt lat="59.8937757" lon="17.6252282">
        <ele>30.4188</ele>
        <time>2012-05-01T13:00:52Z</time>
      </trkpt>
      <trkpt lat="59.8938823" lon="17.6256236">
        <ele>32.3416</ele>
        <time>2012-05-01T13:00:57Z</time>
      </trkpt>
      <trkpt lat="59.8940335" lon="17.6260625">
        <ele>33.3029</ele>
        <time>2012-05-01T13:01:03Z</time>
      </trkpt>
      <trkpt lat="59.894098" lon="17.6262002">
        <ele>33.3029</ele>
        <time>2012-05-01T13:01:05Z</time>
      </trkpt>
      <trkpt lat="59.8944749" lon="17.6267872">
        <ele>34.2642</ele>
        <time>2012-05-01T13:01:15Z</time>
      </trkpt>
      <trkpt lat="59.8947639" lon="17.6270506">
        <ele>34.2642</ele>
        <time>2012-05-01T13:01:22Z</time>
      </trkpt>
      <trkpt lat="59.895062" lon="17.6272425">
        <ele>34.2642</ele>
        <time>2012-05-01T13:01:29Z</time>
      </trkpt>
      <trkpt lat="59.8953633" lon="17.6274508">
        <ele>34.2642</ele>
        <time>2012-05-01T13:01:36Z</time>
      </trkpt>
      <trkpt lat="59.8956857" lon="17.6276191">
        <ele>34.2642</ele>
        <time>2012-05-01T13:01:43Z</time>
      </trkpt>
      <trkpt lat="59.8959949" lon="17.6277154">
        <ele>33.3029</ele>
        <time>2012-05-01T13:01:49Z</time>
      </trkpt>
      <trkpt lat="59.896391" lon="17.6280178">
        <ele>32.8223</ele>
        <time>2012-05-01T13:01:57Z</time>
      </trkpt>
      <trkpt lat="59.8968289" lon="17.6284301">
        <ele>31.8607</ele>
        <time>2012-05-01T13:02:06Z</time>
      </trkpt>
      <trkpt lat="59.8970639" lon="17.628765">
        <ele>31.8607</ele>
        <time>2012-05-01T13:02:11Z</time>
      </trkpt>
      <trkpt lat="59.8973553" lon="17.6293469">
        <ele>31.8607</ele>
        <time>2012-05-01T13:02:18Z</time>
      </trkpt>
      <trkpt lat="59.8976739" lon="17.6300874">
        <ele>32.3416</ele>
        <time>2012-05-01T13:02:26Z</time>
      </trkpt>
      <trkpt lat="59.8979359" lon="17.6310154">
        <ele>34.2642</ele>
        <time>2012-05-01T13:02:35Z</time>
      </trkpt>
      <trkpt lat="59.8980306" lon="17.6317094">
        <ele>34.2642</ele>
        <time>2012-05-01T13:02:41Z</time>
      </trkpt>
      <trkpt lat="59.8980477" lon="17.6318299">
        <ele>34.2642</ele>
        <time>2012-05-01T13:02:42Z</time>
      </trkpt>
      <trkpt lat="59.8981745" lon="17.6321774">
        <ele>34.7449</ele>
        <time>2012-05-01T13:02:46Z</time>
      </trkpt>
      <trkpt lat="59.8982686" lon="17.6323146">
        <ele>34.7449</ele>
        <time>2012-05-01T13:02:49Z</time>
      </trkpt>
      <trkpt lat="59.8983801" lon="17.6325892">
        <ele>35.2255</ele>
        <time>2012-05-01T13:02:54Z</time>
      </trkpt>
      <trkpt lat="59.898354" lon="17.6327319">
        <ele>35.2255</ele>
        <time>2012-05-01T13:02:56Z</time>
      </trkpt>
      <trkpt lat="59.8982657" lon="17.6331374">
        <ele>33.7834</ele>
        <time>2012-05-01T13:03:01Z</time>
      </trkpt>
      <trkpt lat="59.8982313" lon="17.6334237">
        <ele>32.3416</ele>
        <time>2012-05-01T13:03:04Z</time>
      </trkpt>
      <trkpt lat="59.8981144" lon="17.6343314">
        <ele>28.4962</ele>
        <time>2012-05-01T13:03:13Z</time>
      </trkpt>
      <trkpt lat="59.8980888" lon="17.634519">
        <ele>27.0543</ele>
        <time>2012-05-01T13:03:15Z</time>
      </trkpt>
      <trkpt lat="59.8979457" lon="17.6349982">
        <ele>26.0929</ele>
        <time>2012-05-01T13:03:20Z</time>
      </trkpt>
      <trkpt lat="59.8976732" lon="17.6355274">
        <ele>26.0929</ele>
        <time>2012-05-01T13:03:27Z</time>
      </trkpt>
      <trkpt lat="59.8974913" lon="17.6361248">
        <ele>27.0543</ele>
        <time>2012-05-01T13:03:34Z</time>
      </trkpt>
      <trkpt lat="59.8974013" lon="17.6365356">
        <ele>28.0155</ele>
        <time>2012-05-01T13:03:39Z</time>
      </trkpt>
      <trkpt lat="59.8974239" lon="17.6367629">
        <ele>28.0155</ele>
        <time>2012-05-01T13:03:43Z</time>
      </trkpt>
      <trkpt lat="59.8974423" lon="17.6368042">
        <ele>28.0155</ele>
        <time>2012-05-01T13:03:44Z</time>
      </trkpt>
      <trkpt lat="59.8976097" lon="17.6370102">
        <ele>26.5736</ele>
        <time>2012-05-01T13:03:50Z</time>
      </trkpt>
      <trkpt lat="59.8978182" lon="17.6371176">
        <ele>26.0929</ele>
        <time>2012-05-01T13:03:54Z</time>
      </trkpt>
      <trkpt lat="59.8982492" lon="17.6374686">
        <ele>24.1703</ele>
        <time>2012-05-01T13:04:01Z</time>
      </trkpt>
      <trkpt lat="59.8986185" lon="17.6378047">
        <ele>26.0929</ele>
        <time>2012-05-01T13:04:08Z</time>
      </trkpt>
      <trkpt lat="59.8990174" lon="17.6381676">
        <ele>28.0155</ele>
        <time>2012-05-01T13:04:15Z</time>
      </trkpt>
      <trkpt lat="59.8995462" lon="17.6386848">
        <ele>28.0155</ele>
        <time>2012-05-01T13:04:24Z</time>
      </trkpt>
      <trkpt lat="59.9000312" lon="17.6391603">
        <ele>27.5349</ele>
        <time>2012-05-01T13:04:32Z</time>
      </trkpt>
      <trkpt lat="59.900625" lon="17.6397502">
        <ele>26.5736</ele>
        <time>2012-05-01T13:04:42Z</time>
      </trkpt>
      <trkpt lat="59.9012432" lon="17.6403696">
        <ele>26.5736</ele>
        <time>2012-05-01T13:04:53Z</time>
      </trkpt>
      <trkpt lat="59.9018234" lon="17.6409215">
        <ele>24.1703</ele>
        <time>2012-05-01T13:05:04Z</time>
      </trkpt>
      <trkpt lat="59.9023747" lon="17.6413385">
        <ele>24.651</ele>
        <time>2012-05-01T13:05:14Z</time>
      </trkpt>
      <trkpt lat="59.9028736" lon="17.6416495">
        <ele>23.209</ele>
        <time>2012-05-01T13:05:23Z</time>
      </trkpt>
      <trkpt lat="59.9034131" lon="17.6419361">
        <ele>22.2476</ele>
        <time>2012-05-01T13:05:33Z</time>
      </trkpt>
      <trkpt lat="59.9035058" lon="17.6420012">
        <ele>22.2476</ele>
        <time>2012-05-01T13:05:35Z</time>
      </trkpt>
      <trkpt lat="59.9037436" lon="17.6420435">
        <ele>22.2476</ele>
        <time>2012-05-01T13:05:40Z</time>
      </trkpt>
      <trkpt lat="59.9042322" lon="17.6423061">
        <ele>22.2476</ele>
        <time>2012-05-01T13:05:49Z</time>
      </trkpt>
      <trkpt lat="59.9045774" lon="17.6425">
        <ele>21.767</ele>
        <time>2012-05-01T13:05:55Z</time>
      </trkpt>
      <trkpt lat="59.9048046" lon="17.6426687">
        <ele>21.767</ele>
        <time>2012-05-01T13:05:59Z</time>
      </trkpt>
      <trkpt lat="59.9053304" lon="17.642904">
        <ele>24.1703</ele>
        <time>2012-05-01T13:06:09Z</time>
      </trkpt>
      <trkpt lat="59.9054289" lon="17.6429436">
        <ele>23.6896</ele>
        <time>2012-05-01T13:06:11Z</time>
      </trkpt>
      <trkpt lat="59.9055316" lon="17.6429485">
        <ele>23.209</ele>
        <time>2012-05-01T13:06:13Z</time>
      </trkpt>
      <trkpt lat="59.9060436" lon="17.6431657">
        <ele>23.6896</ele>
        <time>2012-05-01T13:06:22Z</time>
      </trkpt>
      <trkpt lat="59.9065446" lon="17.643362">
        <ele>25.6123</ele>
        <time>2012-05-01T13:06:31Z</time>
      </trkpt>
      <trkpt lat="59.9070181" lon="17.6434919">
        <ele>26.5736</ele>
        <time>2012-05-01T13:06:40Z</time>
      </trkpt>
      <trkpt lat="59.9077113" lon="17.6436233">
        <ele>27.5349</ele>
        <time>2012-05-01T13:06:53Z</time>
      </trkpt>
      <trkpt lat="59.9081711" lon="17.6436924">
        <ele>29.9381</ele>
        <time>2012-05-01T13:07:02Z</time>
      </trkpt>
      <trkpt lat="59.9085777" lon="17.6437329">
        <ele>30.4188</ele>
        <time>2012-05-01T13:07:10Z</time>
      </trkpt>
      <trkpt lat="59.909127" lon="17.6436902">
        <ele>29.9381</ele>
        <time>2012-05-01T13:07:20Z</time>
      </trkpt>
      <trkpt lat="59.9097207" lon="17.6435779">
        <ele>30.4188</ele>
        <time>2012-05-01T13:07:30Z</time>
      </trkpt>
      <trkpt lat="59.9098397" lon="17.6435541">
        <ele>30.8995</ele>
        <time>2012-05-01T13:07:32Z</time>
      </trkpt>
      <trkpt lat="59.9101712" lon="17.6436374">
        <ele>31.8607</ele>
        <time>2012-05-01T13:07:38Z</time>
      </trkpt>
      <trkpt lat="59.9104716" lon="17.6435898">
        <ele>32.3416</ele>
        <time>2012-05-01T13:07:44Z</time>
      </trkpt>
      <trkpt lat="59.910854" lon="17.6434495">
        <ele>32.8223</ele>
        <time>2012-05-01T13:07:51Z</time>
      </trkpt>
      <trkpt lat="59.9113188" lon="17.643362">
        <ele>33.3029</ele>
        <time>2012-05-01T13:08:00Z</time>
      </trkpt>
      <trkpt lat="59.911758" lon="17.64327">
        <ele>31.8607</ele>
        <time>2012-05-01T13:08:08Z</time>
      </trkpt>
      <trkpt lat="59.9122587" lon="17.6431353">
        <ele>30.4188</ele>
        <time>2012-05-01T13:08:17Z</time>
      </trkpt>
      <trkpt lat="59.9125634" lon="17.6430827">
        <ele>29.4575</ele>
        <time>2012-05-01T13:08:22Z</time>
      </trkpt>
      <trkpt lat="59.9127412" lon="17.6431412">
        <ele>30.4188</ele>
        <time>2012-05-01T13:08:25Z</time>
      </trkpt>
      <trkpt lat="59.9130339" lon="17.6431146">
        <ele>31.3801</ele>
        <time>2012-05-01T13:08:31Z</time>
      </trkpt>
      <trkpt lat="59.9134244" lon="17.6430521">
        <ele>29.9381</ele>
        <time>2012-05-01T13:08:38Z</time>
      </trkpt>
      <trkpt lat="59.9140368" lon="17.6429245">
        <ele>27.0543</ele>
        <time>2012-05-01T13:08:48Z</time>
      </trkpt>
      <trkpt lat="59.914453" lon="17.6428383">
        <ele>25.6123</ele>
        <time>2012-05-01T13:08:54Z</time>
      </trkpt>
      <trkpt lat="59.914979" lon="17.6427385">
        <ele>25.1317</ele>
        <time>2012-05-01T13:09:01Z</time>
      </trkpt>
      <trkpt lat="59.9151223" lon="17.6427085">
        <ele>25.6123</ele>
        <time>2012-05-01T13:09:03Z</time>
      </trkpt>
      <trkpt lat="59.9153245" lon="17.6425978">
        <ele>26.0929</ele>
        <time>2012-05-01T13:09:06Z</time>
      </trkpt>
      <trkpt lat="59.9158265" lon="17.6424893">
        <ele>27.5349</ele>
        <time>2012-05-01T13:09:13Z</time>
      </trkpt>
      <trkpt lat="59.9163056" lon="17.6424873">
        <ele>30.4188</ele>
        <time>2012-05-01T13:09:21Z</time>
      </trkpt>
      <trkpt lat="59.9167954" lon="17.6424107">
        <ele>28.4962</ele>
        <time>2012-05-01T13:09:30Z</time>
      </trkpt>
      <trkpt lat="59.9171598" lon="17.6423244">
        <ele>27.0543</ele>
        <time>2012-05-01T13:09:36Z</time>
      </trkpt>
      <trkpt lat="59.9175953" lon="17.6423015">
        <ele>26.0929</ele>
        <time>2012-05-01T13:09:43Z</time>
      </trkpt>
      <trkpt lat="59.9179808" lon="17.6422777">
        <ele>26.0929</ele>
        <time>2012-05-01T13:09:50Z</time>
      </trkpt>
      <trkpt lat="59.9182989" lon="17.6422461">
        <ele>26.5736</ele>
        <time>2012-05-01T13:09:57Z</time>
      </trkpt>
      <trkpt lat="59.9187091" lon="17.6421939">
        <ele>26.0929</ele>
        <time>2012-05-01T13:10:07Z</time>
      </trkpt>
      <trkpt lat="59.9191106" lon="17.642129">
        <ele>26.0929</ele>
        <time>2012-05-01T13:10:16Z</time>
      </trkpt>
      <trkpt lat="59.9195794" lon="17.6420763">
        <ele>25.6123</ele>
        <time>2012-05-01T13:10:25Z</time>
      </trkpt>
      <trkpt lat="59.920044" lon="17.6419794">
        <ele>25.6123</ele>
        <time>2012-05-01T13:10:33Z</time>
      </trkpt>
      <trkpt lat="59.9205024" lon="17.6419548">
        <ele>25.6123</ele>
        <time>2012-05-01T13:10:41Z</time>
      </trkpt>
      <trkpt lat="59.9210272" lon="17.6419428">
        <ele>25.1317</ele>
        <time>2012-05-01T13:10:50Z</time>
      </trkpt>
      <trkpt lat="59.9214052" lon="17.6419071">
        <ele>25.1317</ele>
        <time>2012-05-01T13:10:57Z</time>
      </trkpt>
      <trkpt lat="59.9218104" lon="17.6418462">
        <ele>27.0543</ele>
        <time>2012-05-01T13:11:05Z</time>
      </trkpt>
      <trkpt lat="59.922327" lon="17.6417978">
        <ele>25.6123</ele>
        <time>2012-05-01T13:11:14Z</time>
      </trkpt>
      <trkpt lat="59.9229414" lon="17.641716">
        <ele>25.1317</ele>
        <time>2012-05-01T13:11:24Z</time>
      </trkpt>
      <trkpt lat="59.9233751" lon="17.64166">
        <ele>25.1317</ele>
        <time>2012-05-01T13:11:31Z</time>
      </trkpt>
      <trkpt lat="59.9237495" lon="17.6416087">
        <ele>23.6896</ele>
        <time>2012-05-01T13:11:37Z</time>
      </trkpt>
      <trkpt lat="59.9242845" lon="17.6415614">
        <ele>23.209</ele>
        <time>2012-05-01T13:11:46Z</time>
      </trkpt>
      <trkpt lat="59.9247765" lon="17.6414872">
        <ele>23.6896</ele>
        <time>2012-05-01T13:11:55Z</time>
      </trkpt>
      <trkpt lat="59.9252748" lon="17.6414388">
        <ele>23.6896</ele>
        <time>2012-05-01T13:12:04Z</time>
      </trkpt>
      <trkpt lat="59.9257891" lon="17.6413876">
        <ele>24.1703</ele>
        <time>2012-05-01T13:12:13Z</time>
      </trkpt>
      <trkpt lat="59.92633" lon="17.6413208">
        <ele>24.651</ele>
        <time>2012-05-01T13:12:22Z</time>
      </trkpt>
      <trkpt lat="59.926976" lon="17.6412457">
        <ele>25.1317</ele>
        <time>2012-05-01T13:12:33Z</time>
      </trkpt>
      <trkpt lat="59.9275363" lon="17.6412018">
        <ele>24.1703</ele>
        <time>2012-05-01T13:12:43Z</time>
      </trkpt>
      <trkpt lat="59.9279673" lon="17.6411567">
        <ele>23.209</ele>
        <time>2012-05-01T13:12:51Z</time>
      </trkpt>
      <trkpt lat="59.9285027" lon="17.6410913">
        <ele>23.209</ele>
        <time>2012-05-01T13:13:01Z</time>
      </trkpt>
      <trkpt lat="59.9290345" lon="17.6409873">
        <ele>24.651</ele>
        <time>2012-05-01T13:13:11Z</time>
      </trkpt>
      <trkpt lat="59.9294661" lon="17.6409576">
        <ele>25.1317</ele>
        <time>2012-05-01T13:13:19Z</time>
      </trkpt>
      <trkpt lat="59.9299888" lon="17.640878">
        <ele>26.0929</ele>
        <time>2012-05-01T13:13:29Z</time>
      </trkpt>
      <trkpt lat="59.9304738" lon="17.6408853">
        <ele>28.0155</ele>
        <time>2012-05-01T13:13:38Z</time>
      </trkpt>
      <trkpt lat="59.9307652" lon="17.6408452">
        <ele>27.0543</ele>
        <time>2012-05-01T13:13:44Z</time>
      </trkpt>
      <trkpt lat="59.9309163" lon="17.6408406">
        <ele>27.5349</ele>
        <time>2012-05-01T13:13:47Z</time>
      </trkpt>
      <trkpt lat="59.9312226" lon="17.641035">
        <ele>28.4962</ele>
        <time>2012-05-01T13:13:53Z</time>
      </trkpt>
      <trkpt lat="59.9315032" lon="17.641241">
        <ele>30.8995</ele>
        <time>2012-05-01T13:14:00Z</time>
      </trkpt>
      <trkpt lat="59.9318863" lon="17.6415104">
        <ele>33.3029</ele>
        <time>2012-05-01T13:14:09Z</time>
      </trkpt>
      <trkpt lat="59.9321872" lon="17.6417342">
        <ele>34.7449</ele>
        <time>2012-05-01T13:14:16Z</time>
      </trkpt>
      <trkpt lat="59.9325316" lon="17.6420493">
        <ele>35.2255</ele>
        <time>2012-05-01T13:14:23Z</time>
      </trkpt>
      <trkpt lat="59.9328475" lon="17.642456">
        <ele>34.2642</ele>
        <time>2012-05-01T13:14:30Z</time>
      </trkpt>
      <trkpt lat="59.9329086" lon="17.6426019">
        <ele>32.8223</ele>
        <time>2012-05-01T13:14:32Z</time>
      </trkpt>
      <trkpt lat="59.9331907" lon="17.6430652">
        <ele>28.0155</ele>
        <time>2012-05-01T13:14:40Z</time>
      </trkpt>
      <trkpt lat="59.9333961" lon="17.6434121">
        <ele>28.9769</ele>
        <time>2012-05-01T13:14:47Z</time>
      </trkpt>
      <trkpt lat="59.9336255" lon="17.6437116">
        <ele>28.9769</ele>
        <time>2012-05-01T13:14:55Z</time>
      </trkpt>
      <trkpt lat="59.9338753" lon="17.6439621">
        <ele>29.4575</ele>
        <time>2012-05-01T13:15:03Z</time>
      </trkpt>
      <trkpt lat="59.9341273" lon="17.6442609">
        <ele>31.3801</ele>
        <time>2012-05-01T13:15:10Z</time>
      </trkpt>
      <trkpt lat="59.9344385" lon="17.6446874">
        <ele>33.7834</ele>
        <time>2012-05-01T13:15:19Z</time>
      </trkpt>
      <trkpt lat="59.9344633" lon="17.6447347">
        <ele>33.7834</ele>
        <time>2012-05-01T13:15:20Z</time>
      </trkpt>
      <trkpt lat="59.934756" lon="17.6451059">
        <ele>36.1868</ele>
        <time>2012-05-01T13:15:29Z</time>
      </trkpt>
      <trkpt lat="59.9349084" lon="17.645307">
        <ele>36.6675</ele>
        <time>2012-05-01T13:15:33Z</time>
      </trkpt>
      <trkpt lat="59.9350425" lon="17.6454425">
        <ele>37.1481</ele>
        <time>2012-05-01T13:15:36Z</time>
      </trkpt>
      <trkpt lat="59.9354753" lon="17.6459214">
        <ele>39.0707</ele>
        <time>2012-05-01T13:15:45Z</time>
      </trkpt>
      <trkpt lat="59.9358448" lon="17.6463519">
        <ele>41.474</ele>
        <time>2012-05-01T13:15:53Z</time>
      </trkpt>
      <trkpt lat="59.9361681" lon="17.6467407">
        <ele>41.9547</ele>
        <time>2012-05-01T13:16:00Z</time>
      </trkpt>
      <trkpt lat="59.9365914" lon="17.6473023">
        <ele>41.9547</ele>
        <time>2012-05-01T13:16:08Z</time>
      </trkpt>
      <trkpt lat="59.9370343" lon="17.6478694">
        <ele>41.474</ele>
        <time>2012-05-01T13:16:16Z</time>
      </trkpt>
      <trkpt lat="59.9373278" lon="17.6482206">
        <ele>41.474</ele>
        <time>2012-05-01T13:16:21Z</time>
      </trkpt>
      <trkpt lat="59.9375041" lon="17.6486249">
        <ele>41.474</ele>
        <time>2012-05-01T13:16:25Z</time>
      </trkpt>
      <trkpt lat="59.9377536" lon="17.6492719">
        <ele>40.5128</ele>
        <time>2012-05-01T13:16:31Z</time>
      </trkpt>
      <trkpt lat="59.9379956" lon="17.649925">
        <ele>40.0321</ele>
        <time>2012-05-01T13:16:37Z</time>
      </trkpt>
      <trkpt lat="59.9382547" lon="17.650649">
        <ele>39.0707</ele>
        <time>2012-05-01T13:16:44Z</time>
      </trkpt>
      <trkpt lat="59.9384318" lon="17.6510915">
        <ele>37.6287</ele>
        <time>2012-05-01T13:16:48Z</time>
      </trkpt>
      <trkpt lat="59.9386961" lon="17.6519055">
        <ele>38.5901</ele>
        <time>2012-05-01T13:16:55Z</time>
      </trkpt>
      <trkpt lat="59.9390399" lon="17.6531538">
        <ele>40.0321</ele>
        <time>2012-05-01T13:17:06Z</time>
      </trkpt>
      <trkpt lat="59.9392783" lon="17.6542247">
        <ele>40.0321</ele>
        <time>2012-05-01T13:17:15Z</time>
      </trkpt>
      <trkpt lat="59.9394989" lon="17.6553258">
        <ele>40.0321</ele>
        <time>2012-05-01T13:17:24Z</time>
      </trkpt>
      <trkpt lat="59.939745" lon="17.6565173">
        <ele>39.5513</ele>
        <time>2012-05-01T13:17:33Z</time>
      </trkpt>
      <trkpt lat="59.9400603" lon="17.6580889">
        <ele>37.6287</ele>
        <time>2012-05-01T13:17:44Z</time>
      </trkpt>
      <trkpt lat="59.9403335" lon="17.6594119">
        <ele>37.6287</ele>
        <time>2012-05-01T13:17:53Z</time>
      </trkpt>
      <trkpt lat="59.9404009" lon="17.6598064">
        <ele>38.1094</ele>
        <time>2012-05-01T13:17:56Z</time>
      </trkpt>
      <trkpt lat="59.9404972" lon="17.6602802">
        <ele>38.5901</ele>
        <time>2012-05-01T13:18:00Z</time>
      </trkpt>
      <trkpt lat="59.9404614" lon="17.6607275">
        <ele>35.2255</ele>
        <time>2012-05-01T13:18:03Z</time>
      </trkpt>
      <trkpt lat="59.940428" lon="17.6608629">
        <ele>34.2642</ele>
        <time>2012-05-01T13:18:04Z</time>
      </trkpt>
      <trkpt lat="59.9403788" lon="17.6614695">
        <ele>33.7834</ele>
        <time>2012-05-01T13:18:08Z</time>
      </trkpt>
      <trkpt lat="59.9404535" lon="17.6618849">
        <ele>33.3029</ele>
        <time>2012-05-01T13:18:11Z</time>
      </trkpt>
      <trkpt lat="59.9406215" lon="17.6621314">
        <ele>32.8223</ele>
        <time>2012-05-01T13:18:14Z</time>
      </trkpt>
      <trkpt lat="59.9407561" lon="17.6621753">
        <ele>32.8223</ele>
        <time>2012-05-01T13:18:16Z</time>
      </trkpt>
      <trkpt lat="59.9412192" lon="17.6623838">
        <ele>31.8607</ele>
        <time>2012-05-01T13:18:23Z</time>
      </trkpt>
      <trkpt lat="59.9415851" lon="17.6627578">
        <ele>37.1481</ele>
        <time>2012-05-01T13:18:29Z</time>
      </trkpt>
      <trkpt lat="59.941844" lon="17.6632101">
        <ele>38.5901</ele>
        <time>2012-05-01T13:18:35Z</time>
      </trkpt>
      <trkpt lat="59.9422831" lon="17.6638827">
        <ele>39.0707</ele>
        <time>2012-05-01T13:18:45Z</time>
      </trkpt>
      <trkpt lat="59.9427311" lon="17.6644406">
        <ele>39.0707</ele>
        <time>2012-05-01T13:18:54Z</time>
      </trkpt>
      <trkpt lat="59.9433233" lon="17.6650164">
        <ele>37.6287</ele>
        <time>2012-05-01T13:19:04Z</time>
      </trkpt>
      <trkpt lat="59.9439392" lon="17.6654338">
        <ele>36.6675</ele>
        <time>2012-05-01T13:19:13Z</time>
      </trkpt>
      <trkpt lat="59.9445977" lon="17.6657187">
        <ele>36.6675</ele>
        <time>2012-05-01T13:19:22Z</time>
      </trkpt>
      <trkpt lat="59.9453586" lon="17.666001">
        <ele>36.6675</ele>
        <time>2012-05-01T13:19:33Z</time>
      </trkpt>
      <trkpt lat="59.9459783" lon="17.6662191">
        <ele>36.1868</ele>
        <time>2012-05-01T13:19:43Z</time>
      </trkpt>
      <trkpt lat="59.9464329" lon="17.6664708">
        <ele>34.2642</ele>
        <time>2012-05-01T13:19:51Z</time>
      </trkpt>
      <trkpt lat="59.9464911" lon="17.6665018">
        <ele>33.7834</ele>
        <time>2012-05-01T13:19:52Z</time>
      </trkpt>
      <trkpt lat="59.9466719" lon="17.6665225">
        <ele>33.3029</ele>
        <time>2012-05-01T13:19:55Z</time>
      </trkpt>
      <trkpt lat="59.9470629" lon="17.6666805">
        <ele>33.3029</ele>
        <time>2012-05-01T13:20:01Z</time>
      </trkpt>
      <trkpt lat="59.9478656" lon="17.6670772">
        <ele>32.3416</ele>
        <time>2012-05-01T13:20:13Z</time>
      </trkpt>
      <trkpt lat="59.9485242" lon="17.6674365">
        <ele>31.3801</ele>
        <time>2012-05-01T13:20:23Z</time>
      </trkpt>
      <trkpt lat="59.9490364" lon="17.6677256">
        <ele>30.8995</ele>
        <time>2012-05-01T13:20:31Z</time>
      </trkpt>
      <trkpt lat="59.9496339" lon="17.668077">
        <ele>28.9769</ele>
        <time>2012-05-01T13:20:41Z</time>
      </trkpt>
      <trkpt lat="59.950172" lon="17.6682865">
        <ele>28.0155</ele>
        <time>2012-05-01T13:20:50Z</time>
      </trkpt>
      <trkpt lat="59.9507201" lon="17.668314">
        <ele>26.5736</ele>
        <time>2012-05-01T13:20:59Z</time>
      </trkpt>
      <trkpt lat="59.9512909" lon="17.6681461">
        <ele>24.651</ele>
        <time>2012-05-01T13:21:08Z</time>
      </trkpt>
      <trkpt lat="59.9514908" lon="17.6680921">
        <ele>24.1703</ele>
        <time>2012-05-01T13:21:11Z</time>
      </trkpt>
      <trkpt lat="59.9517251" lon="17.668329">
        <ele>24.1703</ele>
        <time>2012-05-01T13:21:15Z</time>
      </trkpt>
      <trkpt lat="59.9517582" lon="17.6684547">
        <ele>23.6896</ele>
        <time>2012-05-01T13:21:16Z</time>
      </trkpt>
      <trkpt lat="59.9518328" lon="17.6691099">
        <ele>24.651</ele>
        <time>2012-05-01T13:21:21Z</time>
      </trkpt>
      <trkpt lat="59.9517618" lon="17.6704059">
        <ele>25.6123</ele>
        <time>2012-05-01T13:21:31Z</time>
      </trkpt>
      <trkpt lat="59.9517313" lon="17.6709148">
        <ele>26.0929</ele>
        <time>2012-05-01T13:21:35Z</time>
      </trkpt>
      <trkpt lat="59.9517898" lon="17.6713221">
        <ele>27.0543</ele>
        <time>2012-05-01T13:21:39Z</time>
      </trkpt>
      <trkpt lat="59.9518089" lon="17.671869">
        <ele>28.9769</ele>
        <time>2012-05-01T13:21:45Z</time>
      </trkpt>
      <trkpt lat="59.9518545" lon="17.6725279">
        <ele>29.9381</ele>
        <time>2012-05-01T13:21:52Z</time>
      </trkpt>
      <trkpt lat="59.9519657" lon="17.6734008">
        <ele>31.3801</ele>
        <time>2012-05-01T13:22:02Z</time>
      </trkpt>
      <trkpt lat="59.9520768" lon="17.6740602">
        <ele>32.3416</ele>
        <time>2012-05-01T13:22:10Z</time>
      </trkpt>
      <trkpt lat="59.9522045" lon="17.6746764">
        <ele>32.8223</ele>
        <time>2012-05-01T13:22:18Z</time>
      </trkpt>
      <trkpt lat="59.9522824" lon="17.6751129">
        <ele>34.7449</ele>
        <time>2012-05-01T13:22:24Z</time>
      </trkpt>
      <trkpt lat="59.9524244" lon="17.6755555">
        <ele>36.1868</ele>
        <time>2012-05-01T13:22:30Z</time>
      </trkpt>
      <trkpt lat="59.9526372" lon="17.6760777">
        <ele>35.2255</ele>
        <time>2012-05-01T13:22:36Z</time>
      </trkpt>
      <trkpt lat="59.9528507" lon="17.6766782">
        <ele>35.2255</ele>
        <time>2012-05-01T13:22:42Z</time>
      </trkpt>
      <trkpt lat="59.953121" lon="17.6773625">
        <ele>34.7449</ele>
        <time>2012-05-01T13:22:49Z</time>
      </trkpt>
      <trkpt lat="59.9533769" lon="17.6781135">
        <ele>31.8607</ele>
        <time>2012-05-01T13:22:57Z</time>
      </trkpt>
      <trkpt lat="59.9536772" lon="17.6790346">
        <ele>30.4188</ele>
        <time>2012-05-01T13:23:06Z</time>
      </trkpt>
      <trkpt lat="59.9539896" lon="17.6799453">
        <ele>31.8607</ele>
        <time>2012-05-01T13:23:15Z</time>
      </trkpt>
      <trkpt lat="59.9543476" lon="17.6809555">
        <ele>32.8223</ele>
        <time>2012-05-01T13:23:25Z</time>
      </trkpt>
      <trkpt lat="59.954622" lon="17.6817744">
        <ele>33.3029</ele>
        <time>2012-05-01T13:23:33Z</time>
      </trkpt>
      <trkpt lat="59.9546599" lon="17.6818676">
        <ele>33.3029</ele>
        <time>2012-05-01T13:23:34Z</time>
      </trkpt>
      <trkpt lat="59.9548427" lon="17.6821815">
        <ele>34.2642</ele>
        <time>2012-05-01T13:23:38Z</time>
      </trkpt>
      <trkpt lat="59.9551589" lon="17.6833025">
        <ele>34.2642</ele>
        <time>2012-05-01T13:23:49Z</time>
      </trkpt>
      <trkpt lat="59.9553722" lon="17.6842793">
        <ele>34.7449</ele>
        <time>2012-05-01T13:23:58Z</time>
      </trkpt>
      <trkpt lat="59.9555342" lon="17.6853565">
        <ele>35.2255</ele>
        <time>2012-05-01T13:24:08Z</time>
      </trkpt>
      <trkpt lat="59.9557021" lon="17.686553">
        <ele>36.1868</ele>
        <time>2012-05-01T13:24:19Z</time>
      </trkpt>
      <trkpt lat="59.9557148" lon="17.686667">
        <ele>36.1868</ele>
        <time>2012-05-01T13:24:20Z</time>
      </trkpt>
      <trkpt lat="59.9558866" lon="17.6877698">
        <ele>36.6675</ele>
        <time>2012-05-01T13:24:30Z</time>
      </trkpt>
      <trkpt lat="59.9560783" lon="17.6888189">
        <ele>37.6287</ele>
        <time>2012-05-01T13:24:39Z</time>
      </trkpt>
      <trkpt lat="59.9562103" lon="17.6892564">
        <ele>37.6287</ele>
        <time>2012-05-01T13:24:43Z</time>
      </trkpt>
      <trkpt lat="59.9564276" lon="17.6901781">
        <ele>37.6287</ele>
        <time>2012-05-01T13:24:52Z</time>
      </trkpt>
      <trkpt lat="59.9566532" lon="17.6908653">
        <ele>38.1094</ele>
        <time>2012-05-01T13:24:59Z</time>
      </trkpt>
      <trkpt lat="59.9569251" lon="17.691631">
        <ele>37.1481</ele>
        <time>2012-05-01T13:25:06Z</time>
      </trkpt>
      <trkpt lat="59.957189" lon="17.6924391">
        <ele>37.1481</ele>
        <time>2012-05-01T13:25:13Z</time>
      </trkpt>
      <trkpt lat="59.957506" lon="17.6933684">
        <ele>36.6675</ele>
        <time>2012-05-01T13:25:22Z</time>
      </trkpt>
      <trkpt lat="59.9578686" lon="17.694434">
        <ele>36.1868</ele>
        <time>2012-05-01T13:25:33Z</time>
      </trkpt>
      <trkpt lat="59.9582051" lon="17.695366">
        <ele>36.6675</ele>
        <time>2012-05-01T13:25:43Z</time>
      </trkpt>
      <trkpt lat="59.9586104" lon="17.6963553">
        <ele>37.6287</ele>
        <time>2012-05-01T13:25:54Z</time>
      </trkpt>
      <trkpt lat="59.9588342" lon="17.6971195">
        <ele>38.1094</ele>
        <time>2012-05-01T13:26:02Z</time>
      </trkpt>
      <trkpt lat="59.9589559" lon="17.6978155">
        <ele>39.5513</ele>
        <time>2012-05-01T13:26:09Z</time>
      </trkpt>
      <trkpt lat="59.9590011" lon="17.6985388">
        <ele>40.5128</ele>
        <time>2012-05-01T13:26:17Z</time>
      </trkpt>
      <trkpt lat="59.9590294" lon="17.6993319">
        <ele>39.5513</ele>
        <time>2012-05-01T13:26:25Z</time>
      </trkpt>
      <trkpt lat="59.9590787" lon="17.7001465">
        <ele>39.0707</ele>
        <time>2012-05-01T13:26:32Z</time>
      </trkpt>
      <trkpt lat="59.9591864" lon="17.7012552">
        <ele>38.1094</ele>
        <time>2012-05-01T13:26:42Z</time>
      </trkpt>
      <trkpt lat="59.959281" lon="17.7017412">
        <ele>39.0707</ele>
        <time>2012-05-01T13:26:47Z</time>
      </trkpt>
      <trkpt lat="59.9595105" lon="17.702583">
        <ele>40.0321</ele>
        <time>2012-05-01T13:26:55Z</time>
      </trkpt>
      <trkpt lat="59.9598313" lon="17.7035985">
        <ele>40.9934</ele>
        <time>2012-05-01T13:27:05Z</time>
      </trkpt>
      <trkpt lat="59.9599858" lon="17.7040404">
        <ele>40.9934</ele>
        <time>2012-05-01T13:27:09Z</time>
      </trkpt>
      <trkpt lat="59.9601505" lon="17.7043835">
        <ele>40.0321</ele>
        <time>2012-05-01T13:27:13Z</time>
      </trkpt>
      <trkpt lat="59.9602468" lon="17.7045267">
        <ele>39.0707</ele>
        <time>2012-05-01T13:27:15Z</time>
      </trkpt>
      <trkpt lat="59.9606603" lon="17.7050611">
        <ele>36.6675</ele>
        <time>2012-05-01T13:27:23Z</time>
      </trkpt>
      <trkpt lat="59.9607461" lon="17.705194">
        <ele>34.2642</ele>
        <time>2012-05-01T13:27:25Z</time>
      </trkpt>
      <trkpt lat="59.961065" lon="17.7057158">
        <ele>30.4188</ele>
        <time>2012-05-01T13:27:32Z</time>
      </trkpt>
      <trkpt lat="59.9614484" lon="17.7063834">
        <ele>32.3416</ele>
        <time>2012-05-01T13:27:40Z</time>
      </trkpt>
      <trkpt lat="59.9617838" lon="17.7067922">
        <ele>29.9381</ele>
        <time>2012-05-01T13:27:47Z</time>
      </trkpt>
      <trkpt lat="59.9622233" lon="17.7070749">
        <ele>25.6123</ele>
        <time>2012-05-01T13:27:55Z</time>
      </trkpt>
      <trkpt lat="59.9626484" lon="17.7072315">
        <ele>21.767</ele>
        <time>2012-05-01T13:28:02Z</time>
      </trkpt>
      <trkpt lat="59.9631352" lon="17.7072413">
        <ele>18.4023</ele>
        <time>2012-05-01T13:28:09Z</time>
      </trkpt>
      <trkpt lat="59.9637035" lon="17.7072838">
        <ele>14.557</ele>
        <time>2012-05-01T13:28:17Z</time>
      </trkpt>
      <trkpt lat="59.9643302" lon="17.7074237">
        <ele>13.1151</ele>
        <time>2012-05-01T13:28:26Z</time>
      </trkpt>
      <trkpt lat="59.9648125" lon="17.7077192">
        <ele>15.999</ele>
        <time>2012-05-01T13:28:33Z</time>
      </trkpt>
      <trkpt lat="59.9653077" lon="17.7081093">
        <ele>18.4023</ele>
        <time>2012-05-01T13:28:40Z</time>
      </trkpt>
      <trkpt lat="59.9656341" lon="17.7085094">
        <ele>20.325</ele>
        <time>2012-05-01T13:28:45Z</time>
      </trkpt>
      <trkpt lat="59.9659014" lon="17.7090695">
        <ele>26.0929</ele>
        <time>2012-05-01T13:28:50Z</time>
      </trkpt>
      <trkpt lat="59.9662215" lon="17.7101474">
        <ele>28.4962</ele>
        <time>2012-05-01T13:28:59Z</time>
      </trkpt>
      <trkpt lat="59.9665298" lon="17.7112197">
        <ele>30.8995</ele>
        <time>2012-05-01T13:29:09Z</time>
      </trkpt>
      <trkpt lat="59.9667571" lon="17.7119557">
        <ele>32.3416</ele>
        <time>2012-05-01T13:29:17Z</time>
      </trkpt>
      <trkpt lat="59.9669448" lon="17.7125037">
        <ele>32.8223</ele>
        <time>2012-05-01T13:29:23Z</time>
      </trkpt>
      <trkpt lat="59.9670788" lon="17.7132083">
        <ele>32.8223</ele>
        <time>2012-05-01T13:29:30Z</time>
      </trkpt>
      <trkpt lat="59.9671617" lon="17.713589">
        <ele>32.8223</ele>
        <time>2012-05-01T13:29:34Z</time>
      </trkpt>
      <trkpt lat="59.967285" lon="17.7144472">
        <ele>33.3029</ele>
        <time>2012-05-01T13:29:42Z</time>
      </trkpt>
      <trkpt lat="59.9674376" lon="17.7153566">
        <ele>33.3029</ele>
        <time>2012-05-01T13:29:50Z</time>
      </trkpt>
      <trkpt lat="59.9675705" lon="17.7159692">
        <ele>35.7061</ele>
        <time>2012-05-01T13:29:57Z</time>
      </trkpt>
      <trkpt lat="59.9677468" lon="17.7164816">
        <ele>35.2255</ele>
        <time>2012-05-01T13:30:04Z</time>
      </trkpt>
      <trkpt lat="59.9677735" lon="17.7165466">
        <ele>35.2255</ele>
        <time>2012-05-01T13:30:05Z</time>
      </trkpt>
      <trkpt lat="59.9680668" lon="17.7169971">
        <ele>36.1868</ele>
        <time>2012-05-01T13:30:14Z</time>
      </trkpt>
      <trkpt lat="59.9681735" lon="17.7171242">
        <ele>35.2255</ele>
        <time>2012-05-01T13:30:17Z</time>
      </trkpt>
      <trkpt lat="59.9685423" lon="17.7173808">
        <ele>30.4188</ele>
        <time>2012-05-01T13:30:26Z</time>
      </trkpt>
      <trkpt lat="59.9687246" lon="17.7174602">
        <ele>28.4962</ele>
        <time>2012-05-01T13:30:30Z</time>
      </trkpt>
      <trkpt lat="59.9689774" lon="17.7174214">
        <ele>29.4575</ele>
        <time>2012-05-01T13:30:35Z</time>
      </trkpt>
      <trkpt lat="59.9690287" lon="17.7174367">
        <ele>29.4575</ele>
        <time>2012-05-01T13:30:36Z</time>
      </trkpt>
      <trkpt lat="59.9694714" lon="17.7176484">
        <ele>28.9769</ele>
        <time>2012-05-01T13:30:44Z</time>
      </trkpt>
      <trkpt lat="59.9699946" lon="17.7180465">
        <ele>30.8995</ele>
        <time>2012-05-01T13:30:53Z</time>
      </trkpt>
      <trkpt lat="59.9705505" lon="17.7185577">
        <ele>30.8995</ele>
        <time>2012-05-01T13:31:03Z</time>
      </trkpt>
      <trkpt lat="59.9712038" lon="17.719144">
        <ele>31.8607</ele>
        <time>2012-05-01T13:31:14Z</time>
      </trkpt>
      <trkpt lat="59.971801" lon="17.7196885">
        <ele>31.3801</ele>
        <time>2012-05-01T13:31:24Z</time>
      </trkpt>
      <trkpt lat="59.9722548" lon="17.72009">
        <ele>31.8607</ele>
        <time>2012-05-01T13:31:32Z</time>
      </trkpt>
      <trkpt lat="59.9727147" lon="17.7205273">
        <ele>31.3801</ele>
        <time>2012-05-01T13:31:40Z</time>
      </trkpt>
      <trkpt lat="59.9731551" lon="17.7210917">
        <ele>31.8607</ele>
        <time>2012-05-01T13:31:48Z</time>
      </trkpt>
      <trkpt lat="59.9735251" lon="17.7218207">
        <ele>30.8995</ele>
        <time>2012-05-01T13:31:56Z</time>
      </trkpt>
      <trkpt lat="59.9738229" lon="17.7227205">
        <ele>29.9381</ele>
        <time>2012-05-01T13:32:04Z</time>
      </trkpt>
      <trkpt lat="59.974015" lon="17.7235939">
        <ele>29.9381</ele>
        <time>2012-05-01T13:32:11Z</time>
      </trkpt>
      <trkpt lat="59.9741926" lon="17.7248677">
        <ele>30.8995</ele>
        <time>2012-05-01T13:32:21Z</time>
      </trkpt>
      <trkpt lat="59.9743287" lon="17.7261669">
        <ele>29.4575</ele>
        <time>2012-05-01T13:32:31Z</time>
      </trkpt>
      <trkpt lat="59.9743548" lon="17.7272086">
        <ele>29.9381</ele>
        <time>2012-05-01T13:32:39Z</time>
      </trkpt>
      <trkpt lat="59.974377" lon="17.7283638">
        <ele>29.4575</ele>
        <time>2012-05-01T13:32:47Z</time>
      </trkpt>
      <trkpt lat="59.974405" lon="17.729319">
        <ele>29.4575</ele>
        <time>2012-05-01T13:32:54Z</time>
      </trkpt>
      <trkpt lat="59.9743784" lon="17.7300341">
        <ele>28.9769</ele>
        <time>2012-05-01T13:33:00Z</time>
      </trkpt>
      <trkpt lat="59.9742962" lon="17.7310652">
        <ele>27.5349</ele>
        <time>2012-05-01T13:33:09Z</time>
      </trkpt>
      <trkpt lat="59.9742831" lon="17.7320082">
        <ele>27.0543</ele>
        <time>2012-05-01T13:33:17Z</time>
      </trkpt>
      <trkpt lat="59.9742907" lon="17.7330938">
        <ele>27.0543</ele>
        <time>2012-05-01T13:33:26Z</time>
      </trkpt>
      <trkpt lat="59.974246" lon="17.7341818">
        <ele>27.0543</ele>
        <time>2012-05-01T13:33:35Z</time>
      </trkpt>
      <trkpt lat="59.9742537" lon="17.7350575">
        <ele>28.0155</ele>
        <time>2012-05-01T13:33:42Z</time>
      </trkpt>
      <trkpt lat="59.9743253" lon="17.7357189">
        <ele>28.4962</ele>
        <time>2012-05-01T13:33:48Z</time>
      </trkpt>
      <trkpt lat="59.9744719" lon="17.7364377">
        <ele>28.9769</ele>
        <time>2012-05-01T13:33:56Z</time>
      </trkpt>
      <trkpt lat="59.9746313" lon="17.7369518">
        <ele>29.9381</ele>
        <time>2012-05-01T13:34:03Z</time>
      </trkpt>
      <trkpt lat="59.9748449" lon="17.7374628">
        <ele>30.8995</ele>
        <time>2012-05-01T13:34:11Z</time>
      </trkpt>
      <trkpt lat="59.9751287" lon="17.7379827">
        <ele>30.8995</ele>
        <time>2012-05-01T13:34:19Z</time>
      </trkpt>
      <trkpt lat="59.9754064" lon="17.738445">
        <ele>29.4575</ele>
        <time>2012-05-01T13:34:27Z</time>
      </trkpt>
      <trkpt lat="59.975702" lon="17.7389984">
        <ele>28.9769</ele>
        <time>2012-05-01T13:34:35Z</time>
      </trkpt>
      <trkpt lat="59.975947" lon="17.7394575">
        <ele>28.4962</ele>
        <time>2012-05-01T13:34:42Z</time>
      </trkpt>
      <trkpt lat="59.97607" lon="17.7396355">
        <ele>28.9769</ele>
        <time>2012-05-01T13:34:46Z</time>
      </trkpt>
      <trkpt lat="59.9761616" lon="17.7397243">
        <ele>28.9769</ele>
        <time>2012-05-01T13:34:50Z</time>
      </trkpt>
      <trkpt lat="59.976256" lon="17.7397709">
        <ele>28.0155</ele>
        <time>2012-05-01T13:34:54Z</time>
      </trkpt>
      <trkpt lat="59.9764468" lon="17.7396123">
        <ele>28.4962</ele>
        <time>2012-05-01T13:35:00Z</time>
      </trkpt>
      <trkpt lat="59.9766832" lon="17.7394503">
        <ele>30.4188</ele>
        <time>2012-05-01T13:35:07Z</time>
      </trkpt>
      <trkpt lat="59.9768774" lon="17.7393849">
        <ele>27.5349</ele>
        <time>2012-05-01T13:35:13Z</time>
      </trkpt>
      <trkpt lat="59.9771381" lon="17.7392413">
        <ele>24.651</ele>
        <time>2012-05-01T13:35:21Z</time>
      </trkpt>
      <trkpt lat="59.9773721" lon="17.7391538">
        <ele>18.8831</ele>
        <time>2012-05-01T13:35:29Z</time>
      </trkpt>
      <trkpt lat="59.9776027" lon="17.739115">
        <ele>19.3638</ele>
        <time>2012-05-01T13:35:37Z</time>
      </trkpt>
      <trkpt lat="59.977837" lon="17.7392102">
        <ele>27.0543</ele>
        <time>2012-05-01T13:35:44Z</time>
      </trkpt>
      <trkpt lat="59.9780803" lon="17.7393282">
        <ele>26.0929</ele>
        <time>2012-05-01T13:35:52Z</time>
      </trkpt>
      <trkpt lat="59.9784227" lon="17.7393857">
        <ele>28.9769</ele>
        <time>2012-05-01T13:36:00Z</time>
      </trkpt>
      <trkpt lat="59.9786672" lon="17.739416">
        <ele>31.8607</ele>
        <time>2012-05-01T13:36:05Z</time>
      </trkpt>
      <trkpt lat="59.9788604" lon="17.7395584">
        <ele>30.4188</ele>
        <time>2012-05-01T13:36:10Z</time>
      </trkpt>
      <trkpt lat="59.9788993" lon="17.7397546">
        <ele>33.3029</ele>
        <time>2012-05-01T13:36:13Z</time>
      </trkpt>
      <trkpt lat="59.9789001" lon="17.7397968">
        <ele>35.7061</ele>
        <time>2012-05-01T13:36:15Z</time>
      </trkpt>
      <trkpt lat="59.9789025" lon="17.7397833">
        <ele>35.7061</ele>
        <time>2012-05-01T13:36:17Z</time>
      </trkpt>
    </trkseg>
  </trk>
</gpx>